[[{"header":{"parameterUnit":"m.s-1","parameterCategory":1,"la1":31.0,"la2":29.5877,"lo1":-88.7671,"lo2":-86.6584,"dy":0.0162,"dx":0.0185,"nx":115,"ny":88,"refTime":"2023-03-25T06:00:00:Z","depth":0,"parameterNumber":2,"parameterNumberName":"U-component_of_WINDS"},"data":[0.0,0.0,0.0,0.0,0.0,0.0,0.0,0.0,0.0,0.0,0.0,0.0,0.0,0.0,0.0,0.0,0.0,0.0,0.0,0.0,0.0,0.0,0.0,0.0,0.0,0.0,0.0,0.0,0.0,0.0,0.0,0.0,0.0,0.0,0.0,0.0,0.0,0.0,0.0,0.0,0.0,0.0,0.0,0.0,0.0,0.0,0.0,0.0,0.0,0.0,0.0,0.0,0.0,0.0,0.0,0.0,0.0,0.0,0.0,0.0,0.0,0.0,0.0,0.0,0.0,0.0,0.0,0.0,0.0,0.0,0.0,0.0,0.0,0.0,0.0,0.0,0.0,0.0,0.0,0.0,0.0,0.0,0.0,0.0,0.0,0.0,0.0,0.0,0.0,0.0,0.0,0.0,0.0,0.0,0.0,0.0,0.0,0.0,0.0,0.0,0.0,0.0,0.0,0.0,0.0,0.0,0.0,0.0,0.0,0.0,0.0,0.0,0.0,0.0,0.0,0.0,0.0,0.0,0.0,0.0,0.0,0.0,0.0,0.0,0.0,0.0,0.0,0.0,0.0,0.0,0.0,0.0,0.0,0.0,0.0,0.0,0.0,0.0,0.0,0.0,0.0,0.0,0.0,0.0,0.0,0.0,0.0,0.0,0.0,0.0,0.0,0.0,0.0,0.0,0.0,0.0,0.0,0.0,0.0,0.0,0.0,0.0,0.0,0.0,0.0,0.0,0.0,0.0,0.0,0.0,0.0,0.0,0.0,0.0,0.0,0.0,0.0,0.0,0.0,0.0,0.0,0.0,0.0,0.0,0.0,0.0,0.0,0.0,0.0,0.0,0.0,0.0,0.0,0.0,0.0,0.0,0.0,0.0,0.0,0.0,0.0,0.0,0.0,0.0,0.0,0.0,0.0,0.0,0.0,0.0,0.0,0.0,0.0,0.0,0.0,0.0,0.0,0.0,0.0,0.0,0.0,0.0,0.0,0.0,0.0,0.0,0.0,0.0,0.0,0.0,0.0,0.0,0.0,0.0,0.0,0.0,0.0,0.0,0.0,0.0,0.0,0.0,0.0,0.0,0.0,0.0,0.0,0.0,0.0,0.0,0.0,0.0,0.0,0.0,0.0,0.0,0.0,0.0,0.0,0.0,0.0,0.0,0.0,0.0,0.0,0.0,0.0,0.0,0.0,0.0,0.0,0.0,0.0,0.0,0.0,0.0,0.0,0.0,0.0,0.0,0.0,0.0,0.0,0.0,0.0,0.0,0.0,0.0,0.0,0.0,0.0,0.0,0.0,0.0,0.0,0.0,0.0,0.0,0.0,0.0,0.0,0.0,0.0,0.0,0.0,0.0,0.0,0.0,0.0,0.0,0.0,0.0,0.0,0.0,0.0,0.0,0.0,0.0,0.0,0.0,0.0,0.0,0.0,0.0,0.0,0.0,0.0,0.0,0.0,0.0,0.0,0.0,0.0,0.0,0.0,0.0,0.0,0.0,0.0,0.0,0.0,0.0,0.0,0.0,0.0,0.0,0.0,0.0,0.0,0.0,0.0,0.0,0.0,0.0,0.0,0.0,0.0,0.0,0.0,0.0,0.0,0.0,0.0,0.0,0.0,0.0,0.0,0.0,0.0,0.0,0.0,0.0,0.0,0.0,0.0,0.0,0.0,0.0,0.0,0.0,0.0,0.0,0.0,0.0,0.0,0.0,0.0,0.0,0.0,0.0,0.0,0.0,0.0,0.0,0.0,0.0,0.0,0.0,0.0,0.0,0.0,0.0,0.0,0.0,0.0,0.0,0.0,0.0,0.0,0.0,0.0,0.0,0.0,0.0,0.0,0.0,0.0,0.0,0.0,0.0,0.0,0.0,0.0,0.0,0.0,0.0,0.0,0.0,0.0,0.0,0.0,0.0,0.0,0.0,0.0,0.0,0.0,0.0,0.0,0.0,0.0,0.0,0.0,0.0,0.0,0.0,0.0,0.0,0.0,0.0,0.0,0.0,0.0,0.0,0.0,0.0,0.0,0.0,0.0,0.0,0.0,0.0,0.0,0.0,0.0,0.0,0.0,0.0,0.0,0.0,0.0,0.0,0.0,0.0,0.0,0.0,0.0,0.0,0.0,0.0,0.0,0.0,0.0,0.0,0.0,0.0,0.0,0.0,0.0,0.0,0.0,0.0,0.0,0.0,0.0,0.0,0.0,0.0,0.0,0.0,0.0,0.0,0.0,0.0,0.0,0.0,0.0,0.0,0.0,0.0,0.0,0.0,0.0,0.0,0.0,0.0,0.0,0.0,0.0,0.0,0.0,0.0,0.0,0.0,0.0,0.0,0.0,0.0,0.0,0.0,0.0,0.0,0.0,0.0,0.0,0.0,0.0,0.0,0.0,0.0,0.0,0.0,0.0,0.0,0.0,0.0,0.0,0.0,0.0,0.0,0.0,0.0,0.0,0.0,0.0,0.0,0.0,0.0,0.0,0.0,0.0,0.0,0.0,0.0,0.0,0.0,0.0,0.0,0.0,0.0,0.0,0.0,0.0,0.0,0.0,0.0,0.0,0.0,0.0,0.0,0.0,0.0,0.0,0.0,0.0,0.0,0.0,0.0,0.0,0.0,0.0,0.0,0.0,0.0,0.0,0.0,0.0,0.0,0.0,0.0,0.0,0.0,0.0,0.0,0.0,0.0,0.0,0.0,0.0,0.0,0.0,0.0,0.0,0.0,0.0,0.0,0.0,0.0,0.0,0.0,0.0,0.0,0.0,0.0,0.0,0.0,0.0,0.0,0.0,0.0,0.0,0.0,0.0,0.0,0.0,0.0,0.0,0.0,0.0,0.0,0.0,0.0,0.0,0.0,0.0,0.0,0.0,0.0,0.0,0.0,0.0,0.0,0.0,0.0,0.0,0.0,0.0,0.0,0.0,0.0,0.0,0.0,0.0,0.0,0.0,0.0,0.0,0.0,0.0,0.0,0.0,0.0,0.0,0.0,0.0,0.0,0.0,0.0,0.0,0.0,0.0,0.0,0.0,0.0,0.0,0.0,0.0,0.0,0.0,0.0,0.0,0.0,0.0,0.0,0.0,0.0,0.0,0.0,0.0,0.0,0.0,0.0,0.0,0.0,0.0,0.0,0.0,0.0,0.0,0.0,0.0,0.0,0.0,0.0,0.0,0.0,0.0,0.0,0.0,0.0,0.0,0.0,0.0,0.0,0.0,0.0,0.0,0.0,0.0,0.0,0.0,0.0,0.0,0.0,0.0,0.0,0.0,0.0,0.0,0.0,0.0,0.0,0.0,0.0,0.0,0.0,0.0,0.0,0.0,0.0,0.0,0.0,0.0,0.0,0.0,0.0,0.0,0.0,0.0,0.0,0.0,0.0,0.0,0.0,0.0,0.0,0.0,0.0,0.0,0.0,0.0,0.0,0.0,0.0,0.0,0.0,0.0,0.0,0.0,0.0,0.0,0.0,0.0,0.0,0.0,0.0,0.0,0.0,0.0,0.0,0.0,0.0,0.0,0.0,0.0,0.0,0.0,0.0,0.0,0.0,0.0,0.0,0.0,0.0,0.0,0.0,0.0,0.0,0.0,0.0,0.0,0.0,0.0,0.0,0.0,0.0,0.0,0.0,0.0,0.0,0.0,0.0,0.0,0.0,0.0,0.0,0.0,0.0,0.0,0.0,0.0,0.0,0.0,0.0,0.0,0.0,0.0,0.0,0.0,0.0,0.0,0.0,0.0,0.0,0.0,0.0,0.0,0.0,0.0,0.0,0.0,0.0,0.0,0.0,0.0,0.0,0.0,0.0,0.0,0.0,0.0,0.0,0.0,0.0,0.0,0.0,0.0,0.0,0.0,0.0,0.0,0.0,0.0,0.0,0.0,0.0,0.0,0.0,0.0,0.0,0.0,0.0,0.0,0.0,0.0,0.0,0.0,0.0,0.0,0.0,0.0,0.0,0.0,0.0,0.0,0.0,0.0,0.0,0.0,0.0,0.0,0.0,0.0,0.0,0.0,0.0,0.0,0.0,0.0,0.0,0.0,0.0,0.0,0.0,0.0,0.0,0.0,0.0,0.0,0.0,0.0,0.0,0.0,0.0,0.0,0.0,0.0,0.0,0.0,0.0,0.0,0.0,0.0,0.0,0.0,0.0,0.0,0.0,0.0,0.0,0.0,0.0,0.0,0.0,0.0,0.0,0.0,0.0,0.0,0.0,0.0,0.0,0.0,0.0,0.0,0.0,0.0,0.0,0.0,0.0,0.0,0.0,0.0,0.0,0.0,0.0,-3.5466,0.0,0.0,0.0,0.0,0.0,0.0,0.0,0.0,0.0,0.0,0.0,0.0,0.0,0.0,0.0,0.0,0.0,0.0,0.0,0.0,0.0,0.0,0.0,0.0,0.0,0.0,0.0,0.0,0.0,0.0,0.0,0.0,0.0,0.0,0.0,0.0,0.0,0.0,0.0,0.0,0.0,0.0,0.0,0.0,0.0,0.0,0.0,0.0,0.0,0.0,0.0,0.0,0.0,0.0,0.0,0.0,0.0,0.0,0.0,0.0,0.0,0.0,0.0,0.0,0.0,0.0,0.0,0.0,0.0,0.0,0.0,0.0,0.0,0.0,0.0,0.0,0.0,0.0,0.0,0.0,0.0,0.0,0.0,0.0,0.0,0.0,0.0,0.0,0.0,0.0,0.0,0.0,0.0,0.0,0.0,0.0,0.0,0.0,0.0,0.0,0.0,0.0,0.0,0.0,0.0,0.0,0.0,0.0,0.0,0.0,-3.4353,-3.5507,-3.4802,-3.4741,-3.5511,0.0,0.0,0.0,0.0,0.0,0.0,0.0,0.0,0.0,0.0,0.0,0.0,0.0,0.0,0.0,0.0,0.0,0.0,0.0,0.0,0.0,0.0,0.0,0.0,0.0,0.0,0.0,0.0,0.0,0.0,0.0,0.0,0.0,0.0,0.0,0.0,0.0,0.0,0.0,0.0,0.0,0.0,0.0,0.0,0.0,0.0,0.0,0.0,0.0,0.0,0.0,0.0,0.0,0.0,0.0,0.0,0.0,0.0,0.0,0.0,0.0,0.0,0.0,0.0,0.0,0.0,0.0,0.0,0.0,0.0,0.0,0.0,0.0,0.0,0.0,0.0,0.0,0.0,0.0,0.0,0.0,0.0,0.0,0.0,0.0,0.0,0.0,0.0,0.0,0.0,0.0,0.0,0.0,0.0,0.0,0.0,0.0,0.0,0.0,0.0,0.0,0.0,0.0,0.0,0.0,0.0,0.0,0.0,0.0,0.0,0.0,0.0,-3.4975,-3.4884,-3.5593,0.0,0.0,0.0,0.0,0.0,0.0,0.0,0.0,0.0,0.0,0.0,0.0,0.0,0.0,0.0,0.0,0.0,0.0,0.0,0.0,0.0,0.0,0.0,0.0,0.0,0.0,0.0,0.0,0.0,0.0,0.0,0.0,0.0,0.0,0.0,0.0,0.0,0.0,0.0,0.0,0.0,0.0,0.0,0.0,0.0,0.0,0.0,0.0,0.0,0.0,0.0,0.0,0.0,0.0,0.0,0.0,0.0,0.0,0.0,0.0,0.0,0.0,0.0,0.0,0.0,0.0,0.0,0.0,0.0,0.0,0.0,0.0,0.0,0.0,0.0,0.0,0.0,0.0,0.0,0.0,0.0,0.0,0.0,0.0,0.0,0.0,0.0,0.0,0.0,0.0,0.0,0.0,0.0,0.0,0.0,0.0,0.0,0.0,0.0,0.0,0.0,0.0,0.0,0.0,0.0,0.0,0.0,0.0,0.0,0.0,-3.4684,-3.5662,-3.5424,0.0,-3.6225,0.0,0.0,0.0,0.0,0.0,0.0,0.0,0.0,0.0,0.0,0.0,0.0,0.0,0.0,0.0,0.0,0.0,0.0,0.0,0.0,0.0,0.0,0.0,0.0,0.0,0.0,0.0,0.0,0.0,0.0,0.0,0.0,0.0,0.0,0.0,0.0,0.0,0.0,0.0,0.0,0.0,0.0,0.0,0.0,0.0,0.0,0.0,0.0,0.0,0.0,0.0,0.0,0.0,0.0,0.0,0.0,0.0,0.0,0.0,0.0,0.0,0.0,0.0,0.0,0.0,0.0,0.0,0.0,0.0,0.0,0.0,0.0,0.0,0.0,0.0,0.0,0.0,0.0,0.0,0.0,0.0,0.0,0.0,0.0,0.0,0.0,0.0,0.0,0.0,0.0,0.0,0.0,0.0,0.0,0.0,0.0,0.0,0.0,0.0,0.0,0.0,0.0,0.0,0.0,0.0,0.0,0.0,0.0,0.0,0.0,-3.4895,-3.5554,-3.5722,-3.5933,0.0,0.0,0.0,0.0,0.0,0.0,0.0,0.0,0.0,0.0,0.0,0.0,0.0,0.0,0.0,0.0,0.0,0.0,0.0,0.0,0.0,0.0,0.0,0.0,0.0,0.0,0.0,0.0,0.0,0.0,0.0,0.0,0.0,0.0,0.0,0.0,0.0,0.0,0.0,0.0,0.0,0.0,0.0,0.0,0.0,0.0,0.0,0.0,0.0,0.0,0.0,0.0,0.0,0.0,0.0,0.0,0.0,0.0,0.0,0.0,0.0,0.0,0.0,0.0,0.0,0.0,0.0,0.0,0.0,0.0,0.0,0.0,0.0,0.0,0.0,0.0,0.0,0.0,0.0,0.0,0.0,0.0,0.0,0.0,0.0,0.0,0.0,0.0,0.0,0.0,0.0,0.0,0.0,0.0,0.0,0.0,0.0,0.0,0.0,0.0,0.0,0.0,0.0,0.0,0.0,0.0,0.0,0.0,0.0,0.0,-3.4208,-3.475,-3.5344,-3.5904,-3.6179,-3.6143,0.0,0.0,0.0,0.0,0.0,0.0,0.0,0.0,0.0,0.0,0.0,0.0,0.0,0.0,0.0,0.0,0.0,0.0,0.0,0.0,0.0,0.0,0.0,0.0,0.0,0.0,0.0,0.0,0.0,0.0,0.0,0.0,0.0,0.0,0.0,0.0,0.0,0.0,0.0,0.0,0.0,0.0,0.0,0.0,0.0,0.0,0.0,0.0,0.0,0.0,0.0,0.0,0.0,0.0,0.0,0.0,0.0,0.0,0.0,0.0,0.0,0.0,0.0,0.0,0.0,0.0,0.0,0.0,0.0,0.0,0.0,0.0,0.0,0.0,0.0,0.0,0.0,0.0,0.0,0.0,0.0,0.0,0.0,0.0,0.0,0.0,0.0,0.0,0.0,0.0,0.0,0.0,0.0,0.0,0.0,0.0,0.0,0.0,0.0,0.0,0.0,0.0,0.0,0.0,0.0,0.0,0.0,0.0,-3.4668,-3.407,-3.4128,-3.503,-3.5967,-3.6501,0.0,0.0,0.0,0.0,0.0,0.0,0.0,0.0,0.0,0.0,0.0,0.0,0.0,0.0,0.0,0.0,0.0,0.0,0.0,0.0,0.0,0.0,0.0,0.0,0.0,0.0,0.0,0.0,0.0,0.0,0.0,0.0,0.0,0.0,0.0,0.0,0.0,0.0,0.0,0.0,0.0,0.0,0.0,0.0,0.0,0.0,0.0,0.0,0.0,0.0,0.0,0.0,0.0,0.0,0.0,0.0,0.0,0.0,0.0,0.0,0.0,0.0,0.0,0.0,0.0,0.0,0.0,0.0,0.0,0.0,0.0,0.0,0.0,0.0,0.0,0.0,0.0,0.0,0.0,0.0,0.0,0.0,0.0,0.0,0.0,0.0,0.0,0.0,0.0,0.0,0.0,0.0,0.0,0.0,0.0,0.0,0.0,0.0,0.0,0.0,0.0,0.0,0.0,0.0,0.0,0.0,0.0,0.0,0.0,-3.426,-3.4594,-3.5017,-3.5476,-3.6946,-3.7769,0.0,0.0,0.0,0.0,0.0,0.0,0.0,0.0,0.0,0.0,0.0,0.0,0.0,0.0,0.0,0.0,0.0,0.0,0.0,0.0,0.0,0.0,0.0,0.0,0.0,0.0,0.0,0.0,0.0,0.0,0.0,0.0,0.0,0.0,0.0,0.0,0.0,0.0,0.0,0.0,0.0,0.0,0.0,0.0,0.0,0.0,0.0,0.0,0.0,0.0,0.0,0.0,0.0,0.0,0.0,0.0,0.0,0.0,0.0,0.0,0.0,0.0,0.0,0.0,0.0,0.0,0.0,0.0,0.0,0.0,0.0,0.0,0.0,0.0,0.0,0.0,0.0,0.0,0.0,0.0,0.0,0.0,0.0,0.0,0.0,0.0,0.0,0.0,0.0,0.0,0.0,0.0,0.0,0.0,0.0,0.0,0.0,0.0,0.0,0.0,0.0,0.0,0.0,0.0,0.0,0.0,0.0,0.0,0.0,-3.4292,0.0,-3.5998,-3.6192,-3.789,-3.8644,0.0,0.0,0.0,0.0,0.0,0.0,0.0,0.0,0.0,0.0,0.0,0.0,0.0,0.0,0.0,0.0,0.0,0.0,0.0,0.0,0.0,0.0,0.0,0.0,0.0,0.0,0.0,0.0,0.0,0.0,0.0,0.0,0.0,0.0,0.0,0.0,0.0,0.0,0.0,0.0,0.0,0.0,0.0,0.0,0.0,0.0,0.0,0.0,0.0,0.0,0.0,0.0,0.0,0.0,0.0,0.0,0.0,0.0,0.0,0.0,0.0,0.0,0.0,0.0,0.0,0.0,0.0,0.0,0.0,0.0,0.0,0.0,0.0,0.0,0.0,0.0,0.0,0.0,0.0,0.0,0.0,0.0,0.0,0.0,0.0,0.0,0.0,0.0,0.0,0.0,0.0,0.0,0.0,0.0,0.0,0.0,0.0,0.0,0.0,0.0,0.0,0.0,0.0,0.0,0.0,0.0,0.0,0.0,-3.4036,-3.4906,-3.6143,-3.6851,-3.7129,-3.8645,-3.9011,0.0,0.0,0.0,0.0,0.0,0.0,0.0,0.0,0.0,0.0,0.0,0.0,0.0,0.0,0.0,0.0,0.0,0.0,0.0,0.0,0.0,0.0,0.0,0.0,0.0,0.0,0.0,0.0,0.0,0.0,0.0,0.0,0.0,0.0,0.0,0.0,0.0,0.0,0.0,0.0,0.0,0.0,0.0,0.0,0.0,0.0,0.0,0.0,0.0,0.0,0.0,0.0,0.0,0.0,0.0,0.0,0.0,0.0,0.0,0.0,0.0,0.0,0.0,0.0,0.0,0.0,0.0,0.0,0.0,0.0,0.0,0.0,0.0,0.0,0.0,0.0,0.0,0.0,0.0,0.0,0.0,0.0,0.0,0.0,0.0,0.0,0.0,0.0,0.0,0.0,0.0,0.0,0.0,0.0,0.0,0.0,0.0,0.0,0.0,0.0,0.0,0.0,0.0,0.0,0.0,0.0,0.0,0.0,0.0,-3.5495,-3.6427,-3.7228,-3.7877,-3.9138,-3.9621,0.0,0.0,0.0,0.0,0.0,0.0,0.0,0.0,0.0,0.0,0.0,0.0,0.0,0.0,0.0,0.0,0.0,0.0,0.0,0.0,0.0,0.0,0.0,0.0,0.0,0.0,0.0,0.0,0.0,0.0,0.0,0.0,0.0,0.0,0.0,0.0,0.0,0.0,0.0,0.0,0.0,0.0,0.0,0.0,0.0,0.0,0.0,0.0,0.0,0.0,0.0,0.0,0.0,0.0,0.0,0.0,0.0,0.0,0.0,0.0,0.0,0.0,0.0,0.0,0.0,0.0,0.0,0.0,0.0,0.0,0.0,0.0,0.0,0.0,0.0,0.0,0.0,0.0,0.0,0.0,0.0,0.0,0.0,0.0,0.0,0.0,0.0,0.0,0.0,0.0,0.0,0.0,0.0,0.0,0.0,0.0,0.0,0.0,0.0,0.0,0.0,0.0,0.0,0.0,0.0,0.0,0.0,0.0,0.0,-3.5683,-3.641,-3.7128,-3.7874,-3.8988,-3.9511,-3.9379,0.0,0.0,0.0,0.0,0.0,0.0,0.0,0.0,0.0,0.0,0.0,0.0,0.0,0.0,0.0,0.0,0.0,0.0,0.0,0.0,0.0,0.0,0.0,0.0,0.0,0.0,0.0,0.0,0.0,0.0,0.0,0.0,0.0,0.0,0.0,0.0,0.0,0.0,0.0,0.0,0.0,0.0,0.0,0.0,0.0,0.0,0.0,0.0,0.0,0.0,0.0,0.0,0.0,0.0,0.0,0.0,0.0,0.0,0.0,0.0,0.0,0.0,0.0,0.0,0.0,0.0,0.0,0.0,0.0,0.0,0.0,0.0,0.0,0.0,0.0,0.0,0.0,0.0,0.0,0.0,0.0,0.0,0.0,0.0,0.0,0.0,0.0,0.0,0.0,0.0,0.0,0.0,0.0,0.0,0.0,0.0,0.0,0.0,0.0,0.0,0.0,0.0,0.0,0.0,0.0,0.0,0.0,0.0,-3.5413,-3.6026,-3.6676,-3.7354,-3.8286,-3.8832,0.0,0.0,0.0,0.0,0.0,0.0,0.0,0.0,0.0,0.0,0.0,0.0,0.0,0.0,0.0,0.0,0.0,0.0,0.0,0.0,0.0,0.0,0.0,0.0,0.0,0.0,0.0,0.0,0.0,0.0,0.0,0.0,0.0,0.0,0.0,0.0,0.0,0.0,0.0,0.0,0.0,0.0,0.0,0.0,0.0,0.0,0.0,0.0,0.0,0.0,0.0,0.0,0.0,0.0,0.0,0.0,0.0,0.0,0.0,0.0,0.0,0.0,0.0,0.0,0.0,0.0,0.0,0.0,0.0,0.0,0.0,0.0,0.0,0.0,0.0,0.0,0.0,0.0,0.0,0.0,0.0,0.0,0.0,0.0,0.0,0.0,0.0,0.0,0.0,0.0,0.0,0.0,0.0,0.0,0.0,0.0,0.0,0.0,0.0,0.0,0.0,0.0,0.0,0.0,0.0,0.0,0.0,0.0,0.0,-3.4695,-3.4622,-3.5504,-3.752,-3.783,-3.8112,0.0,0.0,0.0,0.0,0.0,0.0,0.0,0.0,0.0,0.0,0.0,0.0,0.0,0.0,0.0,0.0,0.0,0.0,0.0,0.0,0.0,0.0,0.0,0.0,0.0,0.0,0.0,0.0,0.0,0.0,0.0,0.0,0.0,0.0,0.0,0.0,0.0,0.0,0.0,0.0,0.0,0.0,0.0,0.0,0.0,0.0,0.0,0.0,0.0,0.0,0.0,0.0,0.0,0.0,0.0,0.0,0.0,0.0,0.0,0.0,0.0,0.0,0.0,0.0,0.0,0.0,0.0,0.0,0.0,0.0,0.0,0.0,0.0,0.0,0.0,0.0,0.0,0.0,0.0,0.0,0.0,0.0,0.0,0.0,0.0,0.0,0.0,0.0,0.0,0.0,0.0,0.0,0.0,0.0,0.0,0.0,0.0,0.0,0.0,0.0,0.0,0.0,0.0,0.0,0.0,0.0,0.0,0.0,-3.3397,-3.4445,-3.4022,-3.4772,-3.6873,-3.6989,-3.7344,0.0,0.0,0.0,0.0,0.0,0.0,0.0,0.0,0.0,0.0,0.0,0.0,0.0,0.0,0.0,0.0,0.0,0.0,0.0,0.0,0.0,0.0,0.0,0.0,0.0,0.0,0.0,0.0,0.0,0.0,0.0,0.0,0.0,0.0,0.0,0.0,0.0,0.0,0.0,0.0,0.0,0.0,0.0,0.0,0.0,0.0,0.0,0.0,0.0,0.0,0.0,0.0,0.0,0.0,0.0,0.0,0.0,0.0,0.0,0.0,0.0,0.0,0.0,0.0,0.0,0.0,0.0,0.0,0.0,0.0,0.0,0.0,0.0,0.0,0.0,0.0,0.0,0.0,0.0,0.0,0.0,0.0,0.0,0.0,0.0,0.0,0.0,0.0,0.0,0.0,0.0,0.0,0.0,0.0,0.0,0.0,0.0,0.0,0.0,0.0,0.0,0.0,0.0,0.0,0.0,0.0,0.0,0.0,-3.3265,-3.4366,-3.3933,-3.4363,-3.5697,-3.6187,-3.6742,0.0,0.0,0.0,0.0,0.0,0.0,0.0,0.0,0.0,0.0,0.0,0.0,0.0,0.0,0.0,0.0,0.0,0.0,0.0,0.0,0.0,0.0,0.0,0.0,0.0,0.0,0.0,0.0,0.0,0.0,0.0,0.0,0.0,0.0,0.0,0.0,0.0,0.0,0.0,0.0,0.0,0.0,0.0,0.0,0.0,0.0,0.0,0.0,0.0,0.0,0.0,0.0,0.0,0.0,0.0,0.0,0.0,0.0,0.0,0.0,0.0,0.0,0.0,0.0,0.0,0.0,0.0,0.0,0.0,0.0,0.0,0.0,0.0,0.0,0.0,0.0,0.0,0.0,0.0,0.0,0.0,0.0,0.0,0.0,0.0,0.0,0.0,0.0,0.0,0.0,0.0,0.0,0.0,0.0,0.0,0.0,0.0,0.0,0.0,0.0,0.0,0.0,0.0,0.0,0.0,0.0,0.0,0.0,-3.3146,-3.3752,-3.3631,-3.4203,-3.553,-3.6715,-3.7263,0.0,0.0,0.0,0.0,0.0,0.0,0.0,0.0,0.0,0.0,0.0,0.0,0.0,0.0,0.0,0.0,0.0,0.0,0.0,0.0,0.0,0.0,0.0,0.0,0.0,0.0,0.0,0.0,0.0,0.0,0.0,0.0,0.0,0.0,0.0,0.0,0.0,0.0,0.0,0.0,0.0,0.0,0.0,0.0,0.0,0.0,0.0,0.0,-3.556,0.0,0.0,0.0,0.0,0.0,0.0,0.0,0.0,0.0,0.0,0.0,0.0,0.0,0.0,0.0,0.0,0.0,0.0,0.0,0.0,0.0,0.0,0.0,0.0,0.0,0.0,0.0,0.0,0.0,0.0,0.0,0.0,0.0,0.0,0.0,0.0,0.0,0.0,0.0,0.0,0.0,0.0,0.0,0.0,0.0,0.0,0.0,0.0,0.0,0.0,0.0,0.0,0.0,0.0,0.0,0.0,0.0,0.0,0.0,-3.2686,-3.3916,-3.3957,-3.4472,-3.548,-3.6913,-3.7465,0.0,0.0,0.0,0.0,0.0,0.0,0.0,0.0,0.0,0.0,0.0,0.0,0.0,0.0,0.0,0.0,0.0,0.0,0.0,0.0,0.0,0.0,0.0,0.0,0.0,0.0,0.0,0.0,0.0,0.0,0.0,0.0,0.0,0.0,0.0,0.0,0.0,0.0,0.0,0.0,0.0,0.0,0.0,0.0,0.0,0.0,0.0,0.0,0.0,0.0,0.0,0.0,0.0,0.0,0.0,0.0,0.0,0.0,0.0,0.0,0.0,0.0,0.0,0.0,0.0,0.0,0.0,0.0,0.0,0.0,0.0,0.0,0.0,0.0,0.0,0.0,0.0,0.0,0.0,0.0,0.0,0.0,0.0,0.0,0.0,0.0,0.0,0.0,0.0,0.0,0.0,0.0,0.0,0.0,0.0,0.0,0.0,0.0,0.0,0.0,0.0,0.0,0.0,0.0,0.0,0.0,0.0,-3.2147,-3.2272,-3.3964,-3.4327,-3.4739,-3.5374,-3.6744,-3.7349,-3.702,0.0,0.0,0.0,0.0,0.0,0.0,0.0,0.0,0.0,0.0,0.0,0.0,0.0,0.0,0.0,0.0,0.0,0.0,0.0,0.0,0.0,0.0,0.0,0.0,0.0,0.0,0.0,0.0,0.0,0.0,0.0,0.0,0.0,0.0,0.0,0.0,0.0,0.0,-3.6057,-3.688,0.0,0.0,0.0,0.0,0.0,0.0,0.0,0.0,-3.7023,0.0,0.0,0.0,0.0,0.0,0.0,0.0,0.0,0.0,0.0,0.0,0.0,0.0,0.0,0.0,0.0,0.0,0.0,0.0,0.0,0.0,0.0,0.0,0.0,0.0,0.0,0.0,0.0,0.0,0.0,0.0,0.0,0.0,0.0,0.0,0.0,0.0,0.0,0.0,0.0,0.0,0.0,0.0,0.0,0.0,0.0,0.0,0.0,0.0,0.0,0.0,0.0,0.0,0.0,0.0,0.0,-3.2437,-3.2558,-3.2587,-3.2516,-3.3686,-3.4462,-3.4754,-3.5977,-3.6584,-3.6555,0.0,0.0,0.0,0.0,0.0,0.0,0.0,0.0,0.0,0.0,0.0,0.0,0.0,0.0,0.0,0.0,0.0,0.0,0.0,0.0,0.0,0.0,0.0,0.0,0.0,0.0,0.0,0.0,0.0,0.0,0.0,0.0,0.0,0.0,0.0,0.0,0.0,0.0,0.0,-3.7879,-3.8546,0.0,0.0,0.0,0.0,0.0,0.0,0.0,0.0,-3.7854,0.0,0.0,0.0,0.0,0.0,0.0,0.0,0.0,0.0,0.0,0.0,0.0,0.0,0.0,0.0,0.0,0.0,0.0,0.0,0.0,0.0,0.0,0.0,0.0,0.0,0.0,0.0,0.0,0.0,0.0,0.0,0.0,0.0,0.0,0.0,0.0,0.0,0.0,0.0,0.0,0.0,0.0,0.0,0.0,0.0,0.0,0.0,0.0,0.0,0.0,0.0,0.0,0.0,0.0,0.0,-3.2604,-3.2225,-3.2188,-3.2523,-3.3217,-3.3692,-3.3896,-3.4852,-3.5365,0.0,0.0,0.0,0.0,0.0,0.0,0.0,0.0,0.0,0.0,0.0,0.0,0.0,0.0,0.0,0.0,0.0,0.0,0.0,0.0,0.0,0.0,0.0,0.0,0.0,0.0,0.0,0.0,0.0,0.0,0.0,0.0,0.0,0.0,0.0,0.0,0.0,0.0,0.0,0.0,-3.8066,-3.8171,-3.719,0.0,0.0,0.0,0.0,0.0,0.0,-3.8919,-3.9323,0.0,0.0,0.0,0.0,0.0,0.0,0.0,0.0,0.0,0.0,0.0,0.0,0.0,0.0,0.0,0.0,0.0,0.0,0.0,0.0,0.0,0.0,0.0,0.0,0.0,0.0,0.0,0.0,0.0,0.0,0.0,0.0,0.0,0.0,0.0,0.0,0.0,0.0,0.0,0.0,0.0,0.0,0.0,0.0,0.0,0.0,0.0,0.0,0.0,0.0,0.0,0.0,0.0,0.0,0.0,-3.2787,-3.2008,-3.188,-3.2549,-3.2863,-3.3016,-3.3051,-3.398,-3.4489,0.0,0.0,0.0,0.0,0.0,0.0,0.0,0.0,0.0,0.0,0.0,0.0,0.0,0.0,0.0,0.0,0.0,0.0,0.0,0.0,0.0,0.0,0.0,0.0,0.0,0.0,0.0,0.0,0.0,0.0,0.0,0.0,0.0,0.0,0.0,0.0,0.0,0.0,0.0,0.0,0.0,-3.7825,-3.6719,-3.7925,0.0,0.0,0.0,0.0,-4.0641,-4.037,0.0,0.0,0.0,0.0,0.0,0.0,0.0,0.0,0.0,0.0,0.0,0.0,0.0,0.0,0.0,0.0,0.0,0.0,0.0,0.0,0.0,0.0,0.0,0.0,0.0,0.0,0.0,0.0,0.0,0.0,0.0,0.0,0.0,0.0,0.0,0.0,0.0,0.0,0.0,0.0,0.0,0.0,0.0,0.0,0.0,0.0,0.0,0.0,0.0,0.0,0.0,0.0,0.0,0.0,0.0,0.0,-3.2045,-3.2485,-3.229,-3.1484,-3.2437,-3.2849,-3.2535,-3.3956,-3.4752,0.0,0.0,0.0,0.0,0.0,0.0,0.0,0.0,0.0,0.0,0.0,0.0,0.0,0.0,0.0,0.0,0.0,0.0,0.0,0.0,0.0,0.0,0.0,0.0,0.0,0.0,0.0,0.0,0.0,0.0,0.0,0.0,0.0,0.0,0.0,0.0,0.0,0.0,0.0,0.0,0.0,-3.8665,-3.7531,-3.874,-3.9398,0.0,0.0,-3.9036,-3.9675,-3.9487,0.0,0.0,0.0,0.0,0.0,0.0,0.0,0.0,0.0,0.0,0.0,0.0,0.0,0.0,0.0,0.0,0.0,0.0,0.0,0.0,0.0,0.0,0.0,0.0,0.0,0.0,0.0,0.0,0.0,0.0,0.0,0.0,0.0,0.0,0.0,0.0,0.0,0.0,0.0,0.0,0.0,0.0,0.0,0.0,0.0,0.0,0.0,0.0,0.0,0.0,0.0,0.0,0.0,0.0,0.0,-3.1359,-3.2295,-3.1843,-3.1622,-3.1648,-3.2096,-3.2117,-3.1629,-3.3182,-3.379,0.0,0.0,0.0,0.0,0.0,0.0,0.0,0.0,0.0,0.0,0.0,0.0,0.0,0.0,0.0,0.0,0.0,0.0,0.0,0.0,0.0,0.0,0.0,0.0,0.0,0.0,0.0,0.0,0.0,0.0,0.0,0.0,0.0,0.0,0.0,0.0,0.0,0.0,0.0,0.0,0.0,0.0,-3.7378,-3.8813,0.0,0.0,0.0,-4.0881,-4.171,0.0,0.0,0.0,0.0,0.0,0.0,0.0,0.0,0.0,0.0,0.0,0.0,0.0,0.0,0.0,0.0,0.0,0.0,0.0,0.0,0.0,0.0,0.0,0.0,0.0,0.0,0.0,0.0,0.0,0.0,0.0,0.0,0.0,0.0,0.0,0.0,0.0,0.0,0.0,0.0,0.0,0.0,0.0,0.0,0.0,0.0,0.0,0.0,0.0,0.0,0.0,0.0,0.0,0.0,0.0,0.0,0.0,-3.1901,-3.1087,-3.0865,-3.139,-3.1565,-3.1418,-3.1063,-3.2352,0.0,0.0,0.0,0.0,0.0,0.0,0.0,0.0,0.0,0.0,0.0,0.0,0.0,0.0,0.0,0.0,0.0,0.0,0.0,0.0,0.0,0.0,0.0,0.0,0.0,0.0,0.0,-2.8571,0.0,0.0,0.0,0.0,0.0,0.0,0.0,0.0,0.0,0.0,0.0,0.0,0.0,0.0,-3.7728,-3.752,-3.9038,-3.9841,0.0,0.0,-4.2016,-4.262,-4.1321,-4.0858,0.0,0.0,0.0,0.0,0.0,0.0,0.0,0.0,0.0,0.0,0.0,0.0,0.0,0.0,0.0,0.0,0.0,0.0,0.0,0.0,0.0,0.0,0.0,0.0,0.0,0.0,0.0,0.0,0.0,0.0,0.0,0.0,0.0,0.0,0.0,0.0,0.0,0.0,0.0,0.0,0.0,0.0,0.0,0.0,0.0,0.0,0.0,0.0,0.0,0.0,0.0,0.0,0.0,0.0,-3.0343,-2.9922,-3.0356,-3.0364,-2.9901,-3.0637,-3.1013,-3.1037,-3.183,-3.2396,0.0,0.0,0.0,0.0,0.0,0.0,0.0,0.0,0.0,0.0,0.0,0.0,0.0,0.0,0.0,0.0,0.0,0.0,0.0,0.0,0.0,0.0,0.0,0.0,0.0,0.0,0.0,0.0,0.0,0.0,0.0,0.0,0.0,0.0,0.0,0.0,0.0,0.0,0.0,0.0,0.0,-3.8364,-3.8474,-3.9765,-4.0361,0.0,-4.0306,-4.1044,-4.067,-4.0103,-4.0124,-4.1447,0.0,0.0,0.0,0.0,0.0,0.0,0.0,0.0,0.0,0.0,0.0,0.0,0.0,0.0,0.0,0.0,0.0,0.0,0.0,0.0,0.0,0.0,0.0,0.0,0.0,0.0,0.0,0.0,0.0,0.0,0.0,0.0,0.0,0.0,0.0,0.0,0.0,0.0,0.0,0.0,0.0,0.0,0.0,0.0,0.0,0.0,0.0,0.0,0.0,0.0,0.0,0.0,0.0,-2.9886,-3.0219,-2.9879,-2.9851,-3.0278,-3.0739,-3.1024,-3.1024,-3.179,-3.2292,0.0,0.0,0.0,0.0,0.0,0.0,0.0,0.0,0.0,0.0,0.0,0.0,0.0,0.0,0.0,0.0,0.0,0.0,0.0,0.0,0.0,0.0,0.0,0.0,0.0,0.0,0.0,0.0,-2.8903,-2.9526,-3.0835,0.0,0.0,0.0,0.0,0.0,0.0,0.0,0.0,0.0,0.0,-3.8183,-3.7753,-3.8767,0.0,0.0,-3.9601,-4.0401,-4.0995,-4.0401,-4.0582,-4.2656,-4.2671,0.0,0.0,0.0,0.0,0.0,0.0,0.0,0.0,0.0,0.0,0.0,0.0,0.0,0.0,0.0,0.0,0.0,0.0,0.0,0.0,0.0,0.0,0.0,0.0,0.0,0.0,0.0,0.0,0.0,0.0,0.0,0.0,0.0,0.0,0.0,0.0,0.0,0.0,0.0,0.0,0.0,0.0,0.0,0.0,0.0,0.0,0.0,0.0,0.0,0.0,0.0,0.0,-2.9216,-2.993,-2.9178,-2.9164,-2.9856,-3.048,-3.0836,-3.0836,-3.1392,-3.1746,0.0,0.0,0.0,0.0,0.0,0.0,0.0,0.0,0.0,0.0,0.0,0.0,0.0,0.0,0.0,0.0,0.0,0.0,0.0,0.0,0.0,0.0,0.0,0.0,0.0,0.0,0.0,0.0,-2.9487,-3.0283,-3.1567,0.0,0.0,0.0,0.0,0.0,0.0,0.0,0.0,0.0,0.0,-3.7616,-3.764,-3.8529,-3.9263,-3.9674,-4.0247,-4.0925,-4.175,-4.115,-4.1191,-4.2908,0.0,0.0,0.0,0.0,0.0,0.0,0.0,0.0,0.0,0.0,0.0,0.0,0.0,0.0,0.0,0.0,0.0,0.0,0.0,0.0,0.0,0.0,0.0,0.0,0.0,0.0,0.0,-2.9886,0.0,0.0,-2.9485,0.0,0.0,0.0,0.0,0.0,0.0,0.0,0.0,0.0,0.0,0.0,0.0,0.0,0.0,0.0,0.0,0.0,0.0,0.0,0.0,0.0,0.0,-2.8454,-2.8488,-2.8277,-2.8147,-2.8261,-2.964,-3.0406,-3.0406,-3.0432,-3.0586,-3.0925,0.0,0.0,0.0,0.0,0.0,0.0,0.0,0.0,0.0,0.0,0.0,0.0,0.0,0.0,0.0,0.0,0.0,0.0,0.0,0.0,0.0,0.0,0.0,0.0,0.0,0.0,-3.0716,-3.0847,-3.1104,0.0,0.0,0.0,0.0,0.0,0.0,0.0,0.0,0.0,-3.8077,-3.6909,-3.6709,-3.8667,-3.9496,-4.0416,-4.1967,-4.2606,-4.2879,-4.2638,-4.2196,-4.1791,0.0,0.0,0.0,0.0,0.0,0.0,0.0,0.0,0.0,0.0,0.0,0.0,0.0,0.0,0.0,0.0,0.0,0.0,0.0,0.0,0.0,0.0,0.0,0.0,0.0,0.0,0.0,-2.8989,-2.8918,0.0,0.0,0.0,0.0,0.0,0.0,0.0,0.0,0.0,0.0,0.0,-2.8828,-2.8921,0.0,0.0,0.0,0.0,0.0,0.0,0.0,0.0,0.0,0.0,0.0,0.0,-2.8611,-2.9025,-2.8413,-2.8374,-2.8968,-2.9914,-3.0406,-3.0406,-3.0406,-3.0187,-2.98,0.0,0.0,0.0,0.0,0.0,0.0,0.0,0.0,0.0,0.0,0.0,0.0,0.0,0.0,0.0,0.0,0.0,0.0,0.0,0.0,0.0,0.0,0.0,0.0,0.0,-3.0358,0.0,0.0,0.0,0.0,0.0,0.0,0.0,0.0,0.0,0.0,-3.7283,-3.7911,-3.7513,-3.8879,-3.9897,-3.9875,-4.0473,-4.0822,0.0,0.0,0.0,0.0,0.0,0.0,0.0,0.0,0.0,0.0,0.0,0.0,0.0,0.0,-4.5084,-4.6094,-4.5259,-4.4588,-4.5084,0.0,0.0,0.0,0.0,0.0,0.0,0.0,0.0,0.0,0.0,0.0,0.0,0.0,0.0,-2.8675,-2.8675,-2.8885,0.0,0.0,0.0,0.0,0.0,0.0,0.0,0.0,-2.8874,-2.8653,-2.8445,-2.8456,-2.8456,-2.8445,-2.8642,-2.9048,0.0,0.0,0.0,0.0,0.0,0.0,0.0,0.0,-2.8875,-2.9334,-2.8636,-2.8485,-2.908,-2.9839,-3.019,-3.019,-2.9806,-2.9071,-2.797,-2.7807,-2.7774,0.0,0.0,0.0,0.0,0.0,0.0,0.0,0.0,0.0,0.0,0.0,0.0,0.0,0.0,0.0,0.0,0.0,0.0,0.0,0.0,0.0,0.0,0.0,-3.1156,0.0,0.0,0.0,0.0,0.0,0.0,0.0,0.0,0.0,-3.5858,-3.715,-3.7763,-3.7131,-3.8792,-4.021,-4.0508,0.0,0.0,0.0,0.0,0.0,0.0,0.0,-4.3314,-4.4438,-4.37,-4.2996,-4.2908,-4.29,-4.3311,-4.4625,0.0,0.0,-4.5148,-4.4433,-4.3769,-4.3963,-4.4355,-4.4877,-4.5432,-4.6123,-4.6668,0.0,0.0,0.0,0.0,-2.8395,0.0,0.0,0.0,-2.8358,-2.8617,0.0,-2.8735,0.0,0.0,0.0,0.0,-2.9035,-2.8617,0.0,0.0,-2.7741,-2.7563,-2.7951,-2.7977,-2.7977,-2.7998,-2.8477,-2.8746,-2.8702,-2.83,0.0,0.0,0.0,0.0,0.0,0.0,-2.9161,-2.9338,-2.8719,-2.8462,-2.8593,-2.9378,-2.9792,-2.9702,-2.8597,-2.7238,-2.5631,-2.615,-2.6163,-2.5409,-2.7474,0.0,0.0,0.0,0.0,0.0,0.0,0.0,0.0,0.0,0.0,0.0,0.0,0.0,0.0,0.0,0.0,0.0,0.0,0.0,0.0,-3.1669,0.0,0.0,0.0,0.0,0.0,0.0,0.0,0.0,0.0,-3.6468,-3.6912,-3.6934,-3.686,-3.7077,0.0,0.0,0.0,0.0,-4.1142,-4.4362,-4.5087,-4.5271,-4.5468,-4.391,-4.2411,-4.1788,0.0,0.0,-4.0008,-4.157,-4.3149,-4.4851,-4.4264,-4.3669,-4.3803,-4.4286,-4.447,-4.3962,-4.4743,-4.576,-4.5951,-4.6382,-4.7061,-2.8256,0.0,0.0,0.0,0.0,-2.8102,-2.8008,-2.782,-2.7831,-2.7914,-2.8008,-2.7951,0.0,0.0,0.0,0.0,0.0,0.0,-2.8456,-2.8154,-2.7554,-2.7342,-2.7478,-2.7144,-2.7165,-2.7478,-2.7678,-2.8092,-2.8656,-2.8233,-2.8539,-2.9531,0.0,0.0,0.0,0.0,-2.8345,-2.8749,-2.7947,-2.8131,-2.9417,-2.9663,-2.9392,-2.8609,-2.6849,-2.5744,-2.521,-2.4827,-2.4817,-2.53,-2.5753,0.0,0.0,0.0,0.0,0.0,0.0,0.0,0.0,0.0,0.0,0.0,0.0,0.0,0.0,0.0,0.0,0.0,0.0,0.0,-3.0411,-3.1217,-3.2103,0.0,0.0,0.0,0.0,0.0,0.0,0.0,0.0,0.0,-3.7117,-3.8523,-3.9667,0.0,0.0,-4.2519,-4.3743,-4.26,-4.165,-4.1688,-4.1446,0.0,-4.0602,-4.1008,-4.1554,-4.2074,-4.0778,-4.0118,-4.1529,-4.1419,-4.1626,-4.3175,-4.2646,-4.206,-4.2288,-4.2386,-4.2242,-4.1809,-4.2464,-4.3506,-4.4411,-4.5142,-4.5757,-2.7616,-2.8427,-2.8566,-2.8549,-2.8502,-2.8806,-2.8863,-2.8585,-2.8186,-2.8092,-2.8175,-2.7678,-2.7726,-2.8139,-2.8233,0.0,0.0,0.0,-2.8068,-2.7431,-2.7146,-2.6934,-2.6729,-2.6423,-2.6758,-2.755,-2.7345,-2.7842,-2.8956,-2.8388,-2.84,-2.888,0.0,-2.9846,-2.894,-2.7994,-2.7944,-2.8651,-2.8028,-2.8303,-2.9611,-2.9209,-2.8319,-2.6942,-2.565,-2.4787,-2.4467,-2.3864,-2.3787,-2.4398,-2.4703,-2.5602,0.0,0.0,0.0,0.0,0.0,0.0,0.0,0.0,0.0,0.0,0.0,-2.8488,-2.9002,0.0,0.0,0.0,-2.9119,-2.9994,-3.079,-3.1987,0.0,0.0,0.0,0.0,0.0,0.0,0.0,-3.6292,-3.6119,-3.6384,-3.774,-3.8863,-3.9571,-3.9621,-4.0525,-4.1498,-4.2234,0.0,-4.0113,-3.9856,-3.9955,-3.986,-3.9443,-3.9718,-4.0108,-4.0167,-3.9886,-3.9959,-4.0883,-4.0744,-4.0935,-4.1905,-4.2021,-4.1784,-4.1576,-4.1645,-4.1581,-4.093,-4.1694,-4.2731,-4.3471,-4.4095,-4.4807,-2.711,-2.85,-2.9296,-2.9429,-2.9257,-3.0033,-3.0271,-2.9988,-2.9039,-2.8751,-2.8797,-2.7714,-2.7594,-2.8247,-2.8448,0.0,-2.7951,-2.794,-2.7462,-2.6625,-2.6584,-2.6366,-2.5982,-2.5955,-2.6661,-2.7992,-2.7456,-2.7889,-2.9154,-2.8525,-2.819,-2.806,-2.8071,-2.8387,-2.8924,-2.789,-2.784,-2.8751,-2.8521,-2.8657,-2.9133,-2.8108,-2.6748,-2.5157,-2.483,-2.4307,-2.3503,-2.3232,-2.3101,-2.3154,-2.4135,-2.4869,-2.528,0.0,0.0,0.0,0.0,0.0,0.0,0.0,0.0,0.0,0.0,0.0,0.0,0.0,0.0,-2.8409,-3.0055,0.0,-3.1332,-3.3235,0.0,0.0,0.0,-3.3323,-3.3197,-3.336,-3.3891,-3.4977,0.0,0.0,-3.8349,-3.8117,-3.7397,-3.6048,-3.6382,-3.7138,-3.8048,-3.7679,-3.7466,-3.8639,-3.9605,-4.0223,-3.983,-3.9379,-3.8623,-3.7632,-3.7644,-3.8536,-3.9242,-4.0032,-4.0759,-4.146,-4.2122,-4.229,-4.1448,-4.178,-4.1993,-4.1254,-4.205,-4.2905,-4.305,-4.3585,-4.4382,-2.7574,-2.8927,-3.0015,-3.0271,-2.9897,-2.97,-2.9398,-2.8993,-2.8412,-2.7812,-2.7157,-2.6545,-2.6541,-2.7013,-2.7096,-2.7248,-2.7441,-2.7489,-2.7144,-2.6604,-2.6206,-2.621,-2.6407,-2.6381,-2.692,-2.7847,-2.7423,-2.7766,-2.8772,-2.7974,-2.8147,-2.9246,-2.8505,-2.8083,-2.8039,-2.797,-2.7829,-2.7687,-2.7603,-2.7435,-2.718,-2.6088,-2.5294,-2.4914,-2.3963,-2.3387,-2.3188,-2.3135,-2.3101,-2.3101,-2.3242,-2.3762,-2.4725,-2.6308,0.0,0.0,0.0,0.0,0.0,0.0,0.0,0.0,0.0,-2.8796,-2.9341,0.0,-3.0201,0.0,-3.0449,-3.0587,-3.063,-3.1965,0.0,0.0,-3.3875,-3.4257,-3.4611,-3.4262,-3.4512,-3.5989,-3.5974,-3.6025,-3.6421,-3.6209,-3.5404,-3.4053,-3.6105,-3.8023,-3.8705,-3.7272,-3.6358,-3.6779,-3.6471,-3.6151,-3.6962,-3.7741,-3.8275,-3.7929,-3.8089,-3.8434,-3.9088,-4.0075,-4.0753,-4.0818,-4.1224,-4.1509,-4.1407,-4.1216,-4.1281,-4.1675,-4.2125,-4.2455,-4.2932,-4.3487,-4.4184,-2.8164,-2.9543,-3.0192,-3.0697,-3.1065,-3.1005,-3.0405,-2.9371,-2.8902,-2.781,-2.6294,-2.5599,-2.5631,-2.6227,-2.6438,-2.6555,-2.6629,-2.683,-2.6385,-2.5412,-2.5109,-2.5476,-2.6273,-2.5647,-2.6368,-2.8243,-2.714,-2.721,-2.8268,-2.7199,-2.7156,-2.8097,-2.6963,-2.6606,-2.7095,-2.7634,-2.7991,-2.8083,-2.7874,-2.7091,-2.5777,-2.5052,-2.4689,-2.4811,-2.4364,-2.4334,-2.4879,-2.4651,-2.463,-2.4879,-2.4563,-2.4787,-2.5693,-2.714,-2.8072,0.0,0.0,0.0,0.0,0.0,0.0,0.0,0.0,0.0,0.0,0.0,-3.1019,-3.1701,-3.1516,-3.1564,-3.2109,-3.2904,-3.3476,-3.3687,-3.3862,-3.4048,-3.4256,-3.3942,-3.4168,-3.5274,-3.5214,-3.4949,-3.4658,-3.4422,-3.3837,-3.2525,-3.392,-3.5257,-3.5545,-3.4813,-3.4319,-3.4397,-3.4732,-3.5359,-3.6557,-3.7553,-3.8202,-3.8202,-3.8202,-3.8333,-3.871,-3.9545,-4.0176,-4.0134,-4.055,-4.0955,-4.0996,-4.0686,-4.0676,-4.1391,-4.1887,-4.2283,-4.2867,-4.3286,-4.3805,-2.8974,-3.0344,-3.0188,-3.087,-3.2142,-3.2523,-3.1626,-2.9989,-2.9381,-2.7897,-2.5738,-2.484,-2.4967,-2.5775,-2.6202,-2.6182,-2.5846,-2.6216,-2.5594,-2.4106,-2.4043,-2.4703,-2.5822,-2.4692,-2.5665,-2.8354,-2.6668,-2.6468,-2.7649,-2.6278,-2.5774,-2.6023,-2.4918,-2.5047,-2.6407,-2.7205,-2.8039,-2.8818,-2.8215,-2.6861,-2.486,-2.4837,-2.4947,-2.5166,-2.5474,-2.6103,-2.7117,-2.678,-2.6748,-2.7195,-2.678,-2.6661,-2.7041,-2.8508,-2.9242,0.0,-3.0223,0.0,0.0,0.0,0.0,0.0,0.0,0.0,0.0,-3.0501,-3.138,-3.2753,-3.2608,-3.2899,-3.3949,-3.4262,-3.4176,-3.3598,-3.3407,-3.3264,-3.3134,-3.3276,-3.3504,-3.3894,-3.428,-3.411,-3.3187,-3.296,-3.2441,-3.1537,-3.148,-3.1625,-3.1392,-3.1883,-3.2298,-3.2177,-3.4117,-3.6029,-3.7438,-3.8037,-3.8246,-3.8304,-3.8376,-3.8318,-3.8391,-3.9119,-3.9622,-3.9466,-3.9984,-4.0437,-4.0388,-4.0192,-4.039,-4.1164,-4.1695,-4.2204,-4.2862,-4.3225,-4.3796,-3.05,-3.1704,-3.0986,-3.1086,-3.162,-3.0628,-2.9507,-2.8375,-2.7566,-2.6256,-2.4643,-2.4421,-2.5,-2.6055,-2.5931,-2.6009,-2.6238,-2.61,-2.5638,-2.4931,-2.4974,-2.5093,-2.5363,-2.5391,-2.5964,-2.6831,-2.6134,-2.5946,-2.6212,-2.5232,-2.5177,-2.6001,-2.5546,-2.5876,-2.6918,0.0,0.0,0.0,-2.6192,-2.5305,-2.4936,-2.6038,-2.6625,-2.6711,-2.7119,0.0,-2.7634,-2.7719,-2.7806,-2.7896,-2.7665,0.0,0.0,0.0,0.0,0.0,0.0,0.0,0.0,0.0,0.0,0.0,-3.1177,-3.1124,-3.0499,-3.0983,-3.1536,-3.2072,-3.1859,-3.1822,-3.2022,-3.2536,-3.2766,-3.2692,-3.2754,-3.2927,-3.3171,-3.3514,-3.3742,-3.358,-3.3501,-3.3131,-3.2466,-3.2001,-3.1486,-3.0924,-3.0758,-3.057,-3.0207,-3.0999,-3.17,-3.2252,-3.4225,-3.5935,-3.7014,-3.7772,-3.8391,-3.8826,-3.9015,-3.8986,-3.9015,-3.9634,-3.9764,-3.8795,-3.9594,-4.0232,-3.961,-3.9794,-4.0417,-4.1568,-4.1922,-4.2223,-4.2887,-4.378,-4.4579,-3.1036,-3.143,-3.1015,-3.0672,0.0,-2.9249,-2.7959,-2.6569,-2.6451,-2.5475,-2.4028,-2.4149,-2.4574,-2.52,-2.5509,-2.5444,-2.5104,-2.5391,-2.5104,-2.4229,-2.4219,-2.4702,-2.5583,-2.5115,-2.5464,-2.6529,-2.5615,-2.5105,-2.4978,-2.4572,-2.4594,-2.5049,-2.4723,-2.4879,-2.5424,-2.5261,-2.5472,-2.6188,-2.5472,-2.4727,-2.4085,-2.4727,-2.5604,-2.6671,-2.7042,0.0,0.0,0.0,0.0,0.0,0.0,0.0,0.0,-2.9188,0.0,-2.9246,-3.0126,-3.0845,-3.1196,-3.0968,-3.0683,-3.0344,-2.9995,-2.9969,-3.0458,-3.0826,-3.1071,-3.122,-3.1212,-3.1404,-3.192,-3.2228,-3.24,-3.2412,-3.2709,-3.3037,-3.3158,-3.3175,-3.3121,-3.3046,-3.2486,-3.1914,-3.1458,-3.1523,-3.1328,-3.0868,-3.1111,-3.1097,-3.0548,-3.0922,-3.1883,-3.358,-3.4712,-3.6055,-3.7285,-3.7886,-3.8434,-3.9,-3.8928,-3.887,-3.9146,-3.9266,-3.9072,-3.8414,-3.8859,-3.9173,-3.8903,-3.9186,-3.99,-4.0848,-4.1783,-4.2614,-4.3289,-4.4166,-4.4902,-3.1227,-3.0877,-3.0478,-2.9852,-2.8979,-2.7941,-2.6574,-2.5051,-2.5362,0.0,0.0,-2.4084,-2.4238,-2.4461,-2.5059,-2.4798,-2.3967,-2.4656,-2.4454,-2.3391,-2.3432,-2.426,-2.5641,-2.4535,-2.4798,-2.6152,-2.4996,-2.4325,-2.4163,-2.412,-2.4065,-2.3959,-2.3672,-2.355,-2.3633,-2.3276,-2.3696,-2.4872,-2.513,-2.4645,-2.3481,-2.3793,-2.4869,-2.6606,-2.7058,-2.806,-2.9755,-2.9499,-2.9492,-2.9869,-2.9528,-2.9403,-2.9666,-3.0465,-3.0858,-3.0743,-3.1339,-3.1552,-3.1194,-3.1151,-3.0553,-2.911,-2.8254,-2.8487,-3.0067,-3.0022,-2.9977,-3.0158,-3.0396,-3.0845,-3.1649,-3.1937,-3.2025,-3.2025,-3.2414,-3.2678,-3.2759,-3.2511,-3.2309,-3.2265,-3.1555,-3.0948,-3.0907,-3.1254,-3.1521,-3.1406,-3.1853,-3.2175,-3.1708,-3.1706,-3.2476,-3.4432,-3.5399,-3.6413,-3.7725,-3.8344,-3.8667,-3.9479,-3.9059,-3.8768,-3.9102,-3.8826,-3.8391,-3.8246,-3.8202,-3.8321,-3.8381,-3.8797,-3.943,-4.0337,-4.1763,-4.3164,-4.3977,-4.4604,-4.5163,-3.152,-3.1292,-2.9239,-2.8297,-2.8062,-2.6311,-2.5158,-2.4375,-2.3722,-2.4058,-2.504,-2.4371,-2.4689,-2.5681,-2.4681,-2.4335,-2.454,-2.4399,-2.4235,-2.4055,-2.4226,-2.4458,-2.469,-2.452,-2.4466,-2.4537,-2.4356,-2.411,-2.3884,-2.3841,-2.3751,-2.3583,-2.3533,-2.3402,-2.3223,-2.313,-2.3208,-2.3451,-2.4425,-2.4853,-2.4669,-2.6606,-2.7773,-2.8143,-2.9233,-2.9965,-3.0301,-3.0423,-3.0572,-3.0646,-3.0572,-3.0281,-2.9658,-2.976,-2.9537,-2.8964,-2.9,-2.87,-2.7964,-2.7899,-2.7775,-2.7634,-2.7458,-2.782,-2.8824,-2.8168,-2.8028,-2.8877,-2.9096,-2.905,-2.928,-3.0113,-3.0678,-3.0633,-3.0781,-3.1,-3.1315,-3.151,-3.1558,-3.1206,-3.0704,-3.075,-3.1293,-3.1276,-3.1675,-3.2414,-3.2843,-3.3173,-3.3752,-3.3238,-3.2934,-3.3819,-3.5475,-3.6895,-3.7824,-3.8591,-3.9358,-4.0655,-4.0133,-3.9639,-3.9784,-3.9305,-3.8754,-3.8289,-3.8202,-3.8389,-3.8811,-3.9031,-3.9989,-4.1652,-4.2669,-4.3432,-4.4919,-4.5483,-4.563,-3.0006,-2.9245,-2.8376,-2.7523,-2.6783,-2.5902,-2.5478,-2.5323,-2.4695,-2.4611,-2.4995,-2.4895,-2.4884,-2.4867,-2.4563,-2.4264,-2.4044,-2.3895,-2.4004,-2.4348,-2.4217,-2.4227,-2.4315,-2.4335,-2.4196,-2.4013,-2.398,-2.3851,-2.3667,-2.3634,-2.3537,-2.3319,-2.3276,-2.3232,-2.3101,-2.3101,-2.3353,-2.3864,-2.4403,-2.4679,-2.4689,-2.6205,-2.7231,-2.7706,-2.8362,-2.891,-2.9371,-2.9505,-2.9545,-2.9545,-2.9545,-2.9395,-2.9044,-2.9286,-2.9294,-2.8967,-2.8733,-2.8472,-2.8084,-2.7077,-2.6748,-2.7239,-2.7065,-2.7275,-2.8209,-2.8111,-2.8204,-2.868,-2.9189,-2.9749,-3.026,-3.0722,-3.1003,-3.1003,-3.0956,-3.1033,-3.1322,-3.0894,-3.0758,-3.0873,-3.0685,-3.0676,-3.1211,-3.2078,-3.285,-3.361,-3.3933,-3.4529,-3.5322,-3.497,-3.4712,-3.5324,-3.6272,-3.7123,-3.7943,-3.8702,-3.9397,-4.0017,-3.9828,-3.9625,-3.9567,-3.9088,-3.8594,-3.8289,-3.8202,-3.8427,-3.901,-3.9379,-4.0339,-4.1734,-4.2962,-4.382,-4.4883,-4.5507,-4.5792,-2.8364,-2.7425,-2.7399,-2.6779,-2.5902,-2.602,-2.6162,-2.6262,-2.5769,-2.5294,-2.4921,-2.5097,-2.4797,-2.4215,-2.4307,-2.4085,-2.3708,-2.3676,-2.3944,-2.436,-2.4103,-2.4039,-2.4176,-2.4163,-2.398,-2.3754,-2.3711,-2.3624,-2.345,-2.3416,-2.3276,-2.3135,-2.3101,-2.3101,-2.3101,-2.3309,-2.3767,-2.4498,-2.4914,-2.5009,-2.4829,-2.5663,-2.6419,-2.6972,-2.7331,-2.7747,-2.8263,-2.8438,-2.851,-2.851,-2.851,-2.851,-2.8534,-2.8895,-2.903,-2.8874,-2.8779,-2.8642,-2.8356,-2.6955,-2.6445,-2.7216,-2.7078,-2.725,-2.8009,-2.8738,-2.8958,-2.8866,-2.9612,-3.0407,-3.0869,-3.1238,-3.1427,-3.1492,-3.1192,-3.1177,-3.168,-3.0839,-3.0502,-3.1201,-3.1228,-3.1294,-3.2027,-3.3367,-3.45,-3.4921,-3.5469,-3.6051,-3.6439,-3.6524,-3.6764,-3.6961,-3.713,-3.7567,-3.8278,-3.8841,-3.9247,-3.9334,-3.9305,-3.9276,-3.9146,-3.8681,-3.826,-3.824,-3.8352,-3.8789,-3.9377,-4.0,-4.0984,-4.24,-4.3427,-4.4176,-4.4887,-4.546,-4.5792,-2.7448,-2.7195,-2.6034,-2.5623,-2.5889,-2.6622,-2.6661,-2.6246,-2.5738,-2.5291,-2.4872,-2.4393,-2.432,-2.4482,-2.3732,-2.3642,-2.4094,-2.4135,-2.4135,-2.4239,-2.4209,-2.4166,-2.4153,-2.3937,-2.3711,-2.3547,-2.3503,-2.3406,-2.3188,-2.3144,-2.3135,-2.3101,-2.3101,-2.3135,-2.3232,-2.394,-2.4413,-2.4541,-2.6133,-2.6547,-2.5788,-2.6588,-2.6886,-2.6519,-2.7719,-2.8163,-2.7786,-2.827,-2.851,-2.851,-2.851,-2.851,-2.8522,-2.8558,-2.821,-2.7522,-2.8108,-2.8201,-2.7398,-2.6843,-2.6737,-2.7239,-2.7709,-2.8102,-2.8622,-2.9681,-2.9841,-2.928,-2.9704,-3.0068,-2.9429,-3.017,-3.0902,-3.1158,-3.0675,-3.0565,-3.1467,-3.126,-3.1328,-3.2185,-3.2445,-3.305,-3.4233,-3.4927,-3.562,-3.6648,-3.7197,-3.7587,-3.7693,-3.7699,-3.7638,-3.7644,-3.7801,-3.826,-3.8817,-3.9131,-3.9296,-3.9741,-3.9523,-3.9233,-3.9,-3.8623,-3.8254,-3.8587,-3.8737,-3.9408,-4.0519,-4.1306,-4.2237,-4.3529,-4.4358,-4.4843,-4.5476,-4.5744,-4.5807,-2.5888,-2.5666,-2.5324,-2.5579,-2.6192,-2.6326,-2.6165,-2.5782,-2.5478,-2.4802,-2.394,-2.3461,-2.371,-2.4335,-2.3687,-2.3693,-2.4145,-2.3603,-2.3706,-2.4145,-2.3931,-2.3813,-2.3754,-2.3677,-2.3493,-2.3276,-2.3276,-2.3232,-2.3101,-2.3101,-2.3101,-2.3101,-2.3101,-2.3396,-2.3907,-2.4327,-2.4999,-2.608,-2.6511,-2.6777,-2.6966,-2.7308,-2.7219,-2.6821,-2.7272,-2.745,-2.7294,-2.7726,-2.8041,-2.8065,-2.8342,-2.851,-2.851,-2.851,-2.8099,-2.7255,-2.6969,-2.6753,-2.6412,-2.6214,-2.6466,-2.7195,-2.7741,-2.8475,-2.9622,-3.0474,-3.087,-3.0989,-3.1226,-3.1327,-3.1048,-3.1371,-3.1661,-3.1721,-3.1397,-3.165,-3.287,-3.2463,-3.2489,-3.3594,-3.4042,-3.439,-3.517,-3.5943,-3.6784,-3.7657,-3.8072,-3.8188,-3.8165,-3.7991,-3.7915,-3.7938,-3.7901,-3.7925,-3.828,-3.8625,-3.8871,-3.8967,-3.9131,-3.9131,-3.8719,-3.8449,-3.8402,-3.9142,-3.9565,-4.0386,-4.1873,-4.2248,-4.2949,-4.4315,-4.5175,-4.5476,-4.5776,-4.5807,-4.5807,-2.4817,-2.4612,-2.5109,-2.5743,-2.6279,-2.5941,-2.5704,-2.5514,-2.4999,-2.4272,-2.3571,-2.3022,-2.3339,-2.4096,-2.3727,-2.3716,-2.3995,-2.3451,-2.3563,-2.4082,-2.3732,-2.3496,-2.3493,-2.3416,-2.3276,-2.3115,-2.2974,-2.2916,-2.2925,-2.2925,-2.2974,-2.3115,-2.3353,-2.382,-2.4435,-2.4766,-2.5644,-2.6811,-2.6683,-2.68,-2.7181,-2.7284,-2.7091,-2.6717,-2.6825,-2.6825,-2.6693,-2.7318,-2.7729,-2.7741,-2.8222,-2.8379,-2.8139,-2.8127,-2.7846,-2.7267,-2.6577,-2.6287,-2.6535,-2.6659,-2.7028,-2.7725,-2.832,-2.9142,-3.0193,-3.0887,-3.1393,-3.1835,-3.2241,-3.2309,-3.2463,-3.2475,-3.2605,-3.2859,-3.2608,-3.2931,-3.4149,-3.3794,-3.3917,-3.5139,-3.5601,-3.5855,-3.6114,-3.6913,-3.7686,-3.8086,-3.8188,-3.8127,-3.8052,-3.7877,-3.7839,-3.7863,-3.7672,-3.7687,-3.7754,-3.8155,-3.8328,-3.8417,-3.8751,-3.9071,-3.8764,-3.8854,-3.9268,-4.0427,-4.0643,-4.1291,-4.2669,-4.3226,-4.3633,-4.4618,-4.5302,-4.5539,-4.5412,-4.5396,-4.5238,-2.4518,-2.4625,-2.5401,-2.5728,-2.5821,-2.5757,-2.5735,-2.5546,-2.4232,-2.3874,-2.4133,-2.3299,-2.3422,-2.433,-2.3718,-2.3669,-2.3939,-2.3995,-2.4031,-2.411,-2.3681,-2.3517,-2.346,-2.3232,-2.3135,-2.3062,-2.273,-2.2588,-2.2526,-2.2559,-2.2754,-2.3129,-2.3869,-2.4414,-2.4714,-2.5624,-2.6303,-2.6404,-2.66,-2.6581,-2.62,-2.6128,-2.6116,-2.6104,-2.6585,-2.6585,-2.631,-2.7102,-2.7642,-2.7654,-2.8067,-2.8063,-2.7377,-2.7255,-2.7226,-2.7185,-2.7133,-2.747,-2.8198,-2.8664,-2.9009,-2.9174,-2.9622,-3.0276,-3.0365,-3.0782,-3.1088,-3.1195,-3.1805,-3.2272,-3.2587,-3.2643,-3.3129,-3.3995,-3.3723,-3.4068,-3.5332,-3.5226,-3.5619,-3.6511,-3.693,-3.7226,-3.7829,-3.8107,-3.8078,-3.815,-3.8165,-3.8052,-3.7725,-3.7863,-3.7787,-3.7443,-3.7457,-3.7725,-3.8052,-3.8106,-3.8167,-3.8527,-3.9061,-3.9424,-3.9942,-4.0514,-4.1118,-4.173,-4.2169,-4.2777,-4.3609,-4.4258,-4.4787,-4.5238,-4.5096,-4.5144,-4.5317,-4.4385,-4.4354,-2.4507,-2.454,-2.4818,-2.4978,-2.4978,-2.4988,-2.4893,-2.4723,-2.4064,-2.3608,-2.3422,-2.3145,-2.3032,-2.2951,-2.3349,-2.3728,-2.4069,-2.3881,-2.375,-2.3734,-2.3547,-2.3416,-2.3202,-2.2881,-2.2847,-2.3003,-2.2715,-2.251,-2.251,-2.251,-2.2728,-2.3059,-2.3391,-2.4081,-2.5102,-2.5656,-2.5906,-2.5927,-2.5783,-2.5286,-2.4716,-2.4703,-2.4796,-2.4844,-2.5516,-2.5793,-2.56,-2.5794,-2.5884,-2.5896,-2.6232,-2.6237,-2.5987,-2.6162,-2.6577,-2.7133,-2.7174,-2.7592,-2.8415,-2.8799,-2.8975,-2.8987,-2.9306,-2.9837,-3.0257,-3.0493,-3.0779,-3.1213,-3.1496,-3.1897,-3.2356,-3.2714,-3.3368,-3.4163,-3.4256,-3.4712,-3.5959,-3.6375,-3.6678,-3.7477,-3.7835,-3.7999,-3.8115,-3.8202,-3.8089,-3.7877,-3.7839,-3.7634,-3.7341,-3.7366,-3.74,-3.7443,-3.7495,-3.7725,-3.8113,-3.7938,-3.8063,-3.9052,-3.975,-4.0382,-4.0992,-4.1462,-4.2001,-4.2971,-4.3552,-4.3951,-4.4611,-4.4997,-4.5539,-4.5507,-4.5365,-4.5128,-4.5412,-4.467,-4.4682,-2.4507,-2.4497,-2.4421,-2.4454,-2.4497,-2.4411,-2.4286,-2.4079,-2.3773,-2.3423,-2.3074,-2.294,-2.2574,-2.2308,-2.2715,-2.2929,-2.31,-2.3315,-2.3516,-2.3484,-2.3416,-2.3276,-2.3096,-2.2799,-2.2818,-2.2964,-2.2568,-2.2441,-2.2653,-2.2524,-2.2818,-2.3435,-2.3705,-2.4302,-2.5105,-2.5317,-2.5291,-2.5058,-2.4672,-2.4189,-2.3749,-2.3984,-2.4157,-2.4205,-2.4699,-2.5009,-2.511,-2.5004,-2.4928,-2.4963,-2.5234,-2.5267,-2.5063,-2.555,-2.6193,-2.6782,-2.7458,-2.8047,-2.8578,-2.8803,-2.8882,-2.8922,-2.9091,-2.946,-2.9965,-3.0082,-3.0401,-3.0768,-3.1085,-3.1402,-3.226,-3.2902,-3.3634,-3.4596,-3.5032,-3.579,-3.7092,-3.7323,-3.7577,-3.7985,-3.815,-3.8188,-3.8202,-3.8104,-3.7901,-3.761,-3.7353,-3.7048,-3.7014,-3.6936,-3.7066,-3.7491,-3.7725,-3.7915,-3.8327,-3.8481,-3.8716,-3.9654,-4.0676,-4.1377,-4.2108,-4.2527,-4.3091,-4.406,-4.4653,-4.5039,-4.5373,-4.5724,-4.5807,-4.5792,-4.5396,-4.5033,-4.5112,-4.5061,-4.4918,-2.4518,-2.4454,-2.4282,-2.4335,-2.4454,-2.4335,-2.4132,-2.3898,-2.3515,-2.3351,-2.3162,-2.2544,-2.2209,-2.2145,-2.1834,-2.1406,-2.139,-2.2581,-2.3274,-2.3276,-2.3091,-2.3047,-2.3081,-2.3003,-2.2964,-2.3047,-2.2366,-2.2388,-2.2991,-2.2804,-2.3119,-2.4093,-2.4781,-2.4781,-2.4417,-2.4716,-2.4495,-2.3946,-2.3738,-2.359,-2.3628,-2.3887,-2.4061,-2.4104,-2.4205,-2.4421,-2.4732,-2.4847,-2.4832,-2.493,-2.5335,-2.5294,-2.484,-2.5546,-2.616,-2.6573,-2.7999,-2.8934,-2.9064,-2.9091,-2.9091,-2.9131,-2.9275,-2.9443,-2.9557,-2.9738,-2.9905,-3.003,-3.0409,-3.1101,-3.2329,-3.3142,-3.4084,-3.5399,-3.6201,-3.6975,-3.781,-3.8165,-3.8202,-3.8202,-3.8202,-3.8202,-3.8142,-3.7953,-3.7725,-3.7486,-3.694,-3.6541,-3.6887,-3.6849,-3.6973,-3.7501,-3.7877,-3.8127,-3.8646,-3.9194,-3.9691,-4.0315,-4.1391,-4.2314,-4.3324,-4.3977,-4.4195,-4.4986,-4.5206,-4.5541,-4.5541,-4.5807,-4.5807,-4.5728,-4.527,-4.5065,-4.5128,-4.5128,-4.4638,-2.4786,-2.4507,-2.4411,-2.4454,-2.4497,-2.4454,-2.4361,-2.429,-2.3998,-2.339,-2.2627,-2.2372,-2.171,-2.0923,-2.081,-2.1105,-2.14,-2.1754,-2.2017,-2.2233,-2.2183,-2.2501,-2.2945,-2.2808,-2.2705,-2.281,-2.3386,-2.3452,-2.3205,-2.3496,-2.3751,-2.3569,-2.3935,-2.4068,-2.3891,-2.4205,-2.4041,-2.3393,-2.3255,-2.3016,-2.2554,-2.3121,-2.3435,-2.3456,-2.3718,-2.3924,-2.4051,-2.3817,-2.3766,-2.3919,-2.3836,-2.4125,-2.4904,-2.5839,-2.6637,-2.7302,-2.8383,-2.9104,-2.9143,-2.9236,-2.9314,-2.9353,-2.9521,-2.965,-2.9689,-2.9779,-2.9818,-2.9818,-2.998,-3.0527,-3.1736,-3.308,-3.4558,-3.6288,-3.6727,-3.7246,-3.8,-3.8202,-3.8202,-3.8202,-3.8202,-3.8202,-3.8202,-3.8014,-3.7825,-3.7525,-3.6916,-3.6623,-3.6852,-3.6812,-3.6939,-3.7506,-3.7904,-3.8464,-3.9033,-3.977,-4.0516,-4.1119,-4.2068,-4.3032,-4.4152,-4.4735,-4.5104,-4.5476,-4.5713,-4.5807,-4.5807,-4.5807,-4.5807,-4.5807,-4.5586,-4.5491,-4.546,-4.5223,-4.4875,-2.4405,-2.4249,-2.4164,-2.4257,-2.4444,-2.4325,-2.4223,-2.4047,-2.3503,-2.2715,-2.195,-2.1537,-2.0775,-1.9817,-1.9992,-2.025,-2.0402,-2.0324,-2.0743,-2.1473,-2.1923,-2.2393,-2.2999,-2.2838,-2.2594,-2.2644,-2.3363,-2.3451,-2.2895,-2.338,-2.3425,-2.3117,-2.3416,-2.3437,-2.3249,-2.3559,-2.3465,-2.2859,-2.2838,-2.2692,-2.2482,-2.28,-2.3089,-2.3171,-2.3436,-2.361,-2.36,-2.343,-2.338,-2.3504,-2.3572,-2.4314,-2.5525,-2.6543,-2.7331,-2.7947,-2.8752,-2.9378,-2.9378,-2.9495,-2.956,-2.956,-2.9702,-2.996,-3.0139,-3.0203,-3.0203,-3.0203,-3.0471,-3.0891,-3.1909,-3.3317,-3.5013,-3.6693,-3.7208,-3.7606,-3.8127,-3.8202,-3.8202,-3.8202,-3.8202,-3.8202,-3.8202,-3.8014,-3.7785,-3.7334,-3.684,-3.6603,-3.6779,-3.6774,-3.72,-3.7745,-3.8383,-3.8922,-3.9424,-4.0288,-4.1311,-4.2005,-4.2707,-4.3635,-4.4654,-4.4737,-4.4938,-4.5476,-4.5807,-4.5807,-4.5807,-4.5807,-4.5807,-4.5807,-4.5807,-4.5744,-4.5649,-4.5681,-4.546,-2.3474,-2.3857,-2.3617,-2.3946,-2.4391,-2.4057,-2.3735,-2.3297,-2.2345,-2.1614,-2.1058,-2.0254,-1.9507,-1.9014,-1.9218,-1.9173,-1.8628,-1.9109,-2.0134,-2.1259,-2.2017,-2.259,-2.3033,-2.3033,-2.2861,-2.2601,-2.2742,-2.2641,-2.2544,-2.2812,-2.265,-2.2977,-2.3323,-2.3207,-2.2749,-2.2878,-2.293,-2.2536,-2.251,-2.2709,-2.2824,-2.301,-2.311,-2.3144,-2.3391,-2.3617,-2.375,-2.4053,-2.3998,-2.38,-2.4692,-2.5617,-2.6595,-2.7562,-2.8056,-2.8379,-2.9285,-2.9686,-2.9803,-2.9778,-2.974,-2.9702,-2.9792,-3.0113,-3.0645,-3.0711,-3.0776,-3.0889,-3.1228,-3.1798,-3.2593,-3.3884,-3.5343,-3.6782,-3.7644,-3.8089,-3.8202,-3.8202,-3.8165,-3.8127,-3.8165,-3.8165,-3.8089,-3.7839,-3.7443,-3.71,-3.666,-3.6655,-3.6905,-3.7253,-3.7659,-3.8223,-3.8899,-3.9616,-4.0157,-4.073,-4.1716,-4.2595,-4.3212,-4.3886,-4.4792,-4.4871,-4.4812,-4.5349,-4.5807,-4.5807,-4.5807,-4.5807,-4.5807,-4.5807,-4.5807,-4.5807,-4.5918,-4.6029,-4.6076,-2.3453,-2.3867,-2.3836,-2.3999,-2.4262,-2.4153,-2.3511,-2.2679,-2.2127,-2.0953,-1.983,-1.9031,-1.8608,-1.8367,-1.827,-1.8711,-1.9487,-1.9671,-2.0517,-2.1897,-2.201,-2.2448,-2.2974,-2.3091,-2.2934,-2.2764,-2.3076,-2.3176,-2.2749,-2.3295,-2.3289,-2.2607,-2.3248,-2.3258,-2.2645,-2.2879,-2.2998,-2.2899,-2.2891,-2.2959,-2.3022,-2.311,-2.3232,-2.3406,-2.3493,-2.394,-2.4638,-2.5568,-2.5663,-2.5115,-2.5986,-2.7005,-2.7862,-2.8287,-2.8854,-2.969,-2.9768,-2.9927,-3.0074,-2.9939,-2.9727,-2.956,-2.9792,-3.0126,-3.0809,-3.0778,-3.0945,-3.1293,-3.1523,-3.1792,-3.2493,-3.3874,-3.5634,-3.7463,-3.8,-3.8165,-3.8165,-3.8202,-3.8089,-3.7853,-3.7777,-3.7763,-3.7763,-3.7711,-3.7601,-3.7555,-3.7325,-3.7109,-3.7453,-3.7747,-3.8156,-3.8786,-3.946,-4.0289,-4.0957,-4.1449,-4.2151,-4.3097,-4.3614,-4.3898,-4.4682,-4.5139,-4.5065,-4.5144,-4.5665,-4.5807,-4.5807,-4.5807,-4.5807,-4.5807,-4.5807,-4.5855,-4.6329,-4.6566,-4.6582,-2.2987,-2.3629,-2.3588,-2.3604,-2.3574,-2.3474,-2.265,-2.1482,-2.066,-1.9756,-1.8588,-1.7788,-1.7702,-1.7973,-1.8037,-1.8812,-2.0043,-2.0426,-2.1192,-2.2013,-2.2281,-2.2568,-2.2922,-2.3087,-2.2899,-2.2478,-2.3011,-2.2808,-2.2418,-2.3085,-2.2926,-2.2443,-2.2866,-2.2946,-2.2575,-2.2877,-2.3188,-2.3212,-2.3188,-2.3144,-2.3285,-2.3276,-2.3441,-2.3695,-2.389,-2.4493,-2.5543,-2.6495,-2.6869,-2.6867,-2.7395,-2.8134,-2.9095,-2.9239,-2.9656,-3.0589,-3.0353,-3.0273,-3.0344,-3.0142,-2.9922,-2.9822,-3.0034,-3.0419,-3.0989,-3.1409,-3.2098,-3.2032,-3.232,-3.2733,-3.3276,-3.4526,-3.6078,-3.751,-3.7787,-3.7787,-3.7901,-3.7915,-3.7763,-3.7495,-3.7341,-3.7419,-3.7572,-3.7572,-3.7658,-3.7734,-3.7744,-3.7791,-3.8048,-3.8352,-3.879,-3.947,-4.0092,-4.0909,-4.1565,-4.2072,-4.2528,-4.3425,-4.4145,-4.4366,-4.4749,-4.5365,-4.5412,-4.5381,-4.5649,-4.5807,-4.5807,-4.5807,-4.5807,-4.5807,-4.5807,-4.6076,-4.6566,-4.7087,-4.7103,-2.2387,-2.3194,-2.3062,-2.286,-2.2592,-2.2265,-2.1259,-1.9825,-1.8902,-1.8226,-1.7739,-1.691,-1.7395,-1.7978,-1.859,-1.917,-2.0055,-2.0981,-2.1544,-2.2058,-2.2426,-2.28,-2.2611,-2.2918,-2.2671,-2.2251,-2.2372,-2.222,-2.21,-2.2259,-2.2243,-2.2227,-2.2487,-2.2611,-2.2695,-2.2935,-2.3202,-2.3319,-2.3188,-2.3232,-2.345,-2.3647,-2.3876,-2.4158,-2.4941,-2.551,-2.6354,-2.7215,-2.7896,-2.8586,-2.8566,-2.9034,-2.9982,-3.0121,-3.0387,-3.0684,-3.0692,-3.0655,-3.0687,-3.0486,-3.0273,-3.0331,-3.0649,-3.1003,-3.1392,-3.2344,-3.2909,-3.2698,-3.3608,-3.4108,-3.4639,-3.5655,-3.6489,-3.7327,-3.7226,-3.7226,-3.738,-3.7495,-3.738,-3.7031,-3.6954,-3.7187,-3.7419,-3.7582,-3.7605,-3.8178,-3.8216,-3.8465,-3.8888,-3.9439,-3.9849,-4.0347,-4.0931,-4.152,-4.2121,-4.269,-4.3144,-4.375,-4.4539,-4.4954,-4.5033,-4.5444,-4.5681,-4.5807,-4.5807,-4.5807,-4.5807,-4.5807,-4.5839,-4.5918,-4.5981,-4.636,-4.6819,-4.7403,-4.7656,-2.2677,-2.3143,-2.2155,-2.19,-2.1897,-2.1016,-1.9747,-1.8287,-1.8017,-1.7838,-1.7683,-1.736,-1.8129,-1.9486,-1.9492,-2.0095,-2.0771,-2.1322,-2.1667,-2.1977,-2.2745,-2.261,-2.2341,-2.2533,-2.2645,-2.2484,-2.2483,-2.2422,-2.237,-2.2526,-2.2636,-2.2441,-2.2725,-2.2955,-2.2964,-2.3013,-2.3091,-2.3178,-2.3144,-2.3276,-2.3657,-2.4178,-2.4503,-2.4785,-2.6069,-2.6882,-2.7325,-2.8492,-2.9347,-2.9444,-2.9279,-2.942,-3.0038,-3.0137,-3.0458,-3.0989,-3.0928,-3.0837,-3.1003,-3.0984,-3.0815,-3.0712,-3.109,-3.1583,-3.215,-3.2375,-3.2868,-3.3146,-3.3912,-3.4758,-3.5615,-3.6056,-3.6559,-3.694,-3.6993,-3.6875,-3.6772,-3.6954,-3.6954,-3.6733,-3.6811,-3.707,-3.7173,-3.7534,-3.7904,-3.8473,-3.8839,-3.9094,-3.964,-4.0249,-4.0643,-4.0966,-4.1625,-4.2155,-4.2808,-4.3374,-4.3927,-4.4306,-4.4938,-4.5349,-4.5444,-4.5523,-4.5744,-4.5807,-4.5807,-4.5839,-4.595,-4.595,-4.5997,-4.6076,-4.6297,-4.6919,-4.751,-4.7931,-4.8495,-2.2398,-2.2201,-2.1564,-2.0963,-2.0357,-1.9653,-1.8558,-1.747,-1.7578,-1.7602,-1.761,-1.7805,-1.876,-1.9946,-1.9968,-2.0352,-2.1133,-2.165,-2.2137,-2.2607,-2.3086,-2.2897,-2.2625,-2.2635,-2.2818,-2.2705,-2.2676,-2.2675,-2.2813,-2.2824,-2.2811,-2.2803,-2.2984,-2.3052,-2.3101,-2.3101,-2.3101,-2.3091,-2.3144,-2.3396,-2.4102,-2.4628,-2.5474,-2.6035,-2.721,-2.7836,-2.8027,-2.8823,-2.9534,-2.9782,-2.9715,-2.9923,-3.0499,-3.058,-3.0882,-3.1332,-3.1381,-3.1314,-3.1491,-3.1399,-3.119,-3.1009,-3.1562,-3.1654,-3.2154,-3.2421,-3.3338,-3.3879,-3.4468,-3.5241,-3.6151,-3.6322,-3.6508,-3.6561,-3.6508,-3.6363,-3.647,-3.6772,-3.6836,-3.6615,-3.6758,-3.725,-3.7558,-3.7863,-3.8263,-3.8913,-3.9316,-3.9591,-3.9748,-4.0358,-4.0923,-4.1375,-4.2147,-4.2803,-4.3466,-4.4085,-4.4717,-4.5065,-4.5412,-4.5634,-4.5681,-4.5728,-4.5807,-4.5823,-4.5871,-4.6123,-4.6218,-4.6187,-4.6439,-4.6898,-4.733,-4.7817,-4.8279,-4.8742,-4.9377,-2.18,-2.1078,-2.0916,-2.0003,-1.8829,-1.8512,-1.7819,-1.6946,-1.7387,-1.7854,-1.787,-1.8523,-1.9429,-2.007,-2.0274,-2.0683,-2.133,-2.188,-2.2472,-2.2998,-2.2917,-2.288,-2.2817,-2.2969,-2.2959,-2.2598,-2.2828,-2.3072,-2.3145,-2.3043,-2.3037,-2.3076,-2.3081,-2.3101,-2.3101,-2.3101,-2.3101,-2.3101,-2.343,-2.3887,-2.484,-2.5357,-2.6477,-2.7463,-2.8084,-2.8424,-2.8693,-2.9209,-2.9656,-3.0041,-3.0216,-3.0628,-3.1046,-3.1186,-3.1336,-3.1633,-3.1672,-3.176,-3.1843,-3.1835,-3.1672,-3.1386,-3.2125,-3.2149,-3.1876,-3.2895,-3.3903,-3.4478,-3.4939,-3.5625,-3.6232,-3.635,-3.6338,-3.6258,-3.5965,-3.6018,-3.6351,-3.6758,-3.6929,-3.6733,-3.7134,-3.7772,-3.8211,-3.8583,-3.8929,-3.9292,-3.9692,-4.003,-4.0185,-4.0566,-4.1221,-4.1745,-4.2401,-4.3295,-4.399,-4.4622,-4.5286,-4.546,-4.5776,-4.5792,-4.5807,-4.5807,-4.5823,-4.5886,-4.5981,-4.6281,-4.6629,-4.6834,-4.7198,-4.7782,-4.8235,-4.8561,-4.9052,-4.9593,-5.0182,-2.0983,-2.0551,-1.9525,-1.8854,-1.8439,-1.8112,-1.7696,-1.7392,-1.8091,-1.8843,-1.9423,-1.9806,-2.0411,-2.1021,-2.1415,-2.1686,-2.1835,-2.212,-2.2403,-2.2736,-2.2595,-2.2522,-2.2735,-2.3112,-2.3072,-2.2971,-2.3155,-2.3466,-2.3556,-2.3491,-2.3201,-2.3125,-2.3101,-2.3101,-2.3101,-2.3144,-2.3325,-2.3583,-2.4214,-2.4944,-2.5645,-2.6862,-2.79,-2.8742,-2.9071,-2.9128,-2.9283,-2.9914,-3.0521,-3.0737,-3.0913,-3.1196,-3.1419,-3.1207,-3.1303,-3.1616,-3.1849,-3.195,-3.2077,-3.2333,-3.2395,-3.2505,-3.2849,-3.3018,-3.298,-3.365,-3.4428,-3.4812,-3.548,-3.6193,-3.6351,-3.6338,-3.6178,-3.6018,-3.6098,-3.6312,-3.6549,-3.7102,-3.7504,-3.7392,-3.7859,-3.8308,-3.8789,-3.9226,-3.9636,-3.9935,-4.0235,-4.0478,-4.0581,-4.1081,-4.1766,-4.2236,-4.2653,-4.3573,-4.4496,-4.5112,-4.5681,-4.5649,-4.5792,-4.5828,-4.5844,-4.5807,-4.5855,-4.6138,-4.6334,-4.6613,-4.6977,-4.7372,-4.789,-4.8403,-4.8831,-4.9266,-4.9802,-5.0354,-5.0693,-2.0235,-1.9448,-1.9112,-1.8681,-1.8247,-1.8344,-1.8354,-1.8439,-1.9088,-1.9728,-2.0255,-2.0769,-2.1252,-2.1617,-2.1731,-2.1863,-2.1936,-2.2251,-2.2524,-2.2755,-2.2849,-2.291,-2.3001,-2.3391,-2.3351,-2.3329,-2.3519,-2.3632,-2.3614,-2.3396,-2.3222,-2.3144,-2.3101,-2.3101,-2.3334,-2.3887,-2.4122,-2.4512,-2.557,-2.6635,-2.7316,-2.8851,-2.9693,-2.9973,-2.9982,-2.9954,-2.9976,-3.0484,-3.0877,-3.0953,-3.1274,-3.1484,-3.1592,-3.1624,-3.1559,-3.1845,-3.1994,-3.2157,-3.2288,-3.2581,-3.2574,-3.2539,-3.3208,-3.3546,-3.3708,-3.4234,-3.5047,-3.5507,-3.5964,-3.6587,-3.6431,-3.6218,-3.6058,-3.6098,-3.6339,-3.6617,-3.713,-3.8002,-3.8318,-3.8433,-3.8735,-3.9099,-3.9356,-3.9834,-4.0305,-4.0631,-4.0848,-4.0945,-4.1059,-4.1619,-4.2325,-4.2689,-4.3154,-4.4094,-4.4871,-4.5381,-4.5807,-4.5807,-4.5896,-4.5932,-4.6088,-4.6171,-4.643,-4.6741,-4.6934,-4.7236,-4.7514,-4.7972,-4.8498,-4.9063,-4.9557,-5.0079,-5.0623,-5.1115,-5.1389,-1.9733,-1.8785,-1.9232,-1.898,-1.8439,-1.8939,-1.9353,-1.9659,-2.0246,-2.0615,-2.0857,-2.1415,-2.1731,-2.1731,-2.1696,-2.1667,-2.1719,-2.208,-2.2433,-2.2807,-2.288,-2.3156,-2.3546,-2.3577,-2.334,-2.3241,-2.3398,-2.3587,-2.3493,-2.3276,-2.3135,-2.3222,-2.3222,-2.3466,-2.3847,-2.4877,-2.5413,-2.6192,-2.7195,-2.8545,-2.9647,-3.0479,-3.1001,-3.1051,-3.0851,-3.068,-3.0591,-3.1004,-3.1215,-3.1267,-3.144,-3.1693,-3.1793,-3.1893,-3.2025,-3.2113,-3.2125,-3.2376,-3.2593,-3.2754,-3.2819,-3.2967,-3.3814,-3.4029,-3.4362,-3.5076,-3.5896,-3.6387,-3.6573,-3.6719,-3.6391,-3.6098,-3.6221,-3.6652,-3.6904,-3.717,-3.8079,-3.8943,-3.9736,-3.9853,-3.9816,-4.0224,-4.0761,-4.108,-4.1721,-4.1721,-4.1941,-4.1771,-4.1902,-4.2266,-4.2796,-4.3157,-4.3713,-4.4622,-4.5261,-4.5555,-4.5807,-4.5807,-4.602,-4.616,-4.6434,-4.6689,-4.7077,-4.7562,-4.7986,-4.8307,-4.8459,-4.8704,-4.9324,-4.9876,-5.0365,-5.0821,-5.1208,-5.1578,-5.1858,-1.9667,-1.9666,-1.9724,-1.9514,-1.9283,-1.9972,-2.0304,-2.0459,-2.1213,-2.1645,-2.153,-2.1683,-2.1693,-2.154,-2.1349,-2.1284,-2.1336,-2.1507,-2.1888,-2.2331,-2.2137,-2.236,-2.2778,-2.2532,-2.2757,-2.293,-2.3066,-2.3209,-2.3521,-2.3382,-2.3218,-2.3402,-2.4178,-2.4566,-2.5122,-2.6151,-2.6672,-2.7283,-2.8364,-2.9529,-3.041,-3.0768,-3.0864,-3.092,-3.1009,-3.1138,-3.1101,-3.1414,-3.1568,-3.1573,-3.1645,-3.1805,-3.195,-3.195,-3.2245,-3.245,-3.2624,-3.2624,-3.284,-3.3056,-3.3501,-3.3856,-3.447,-3.4774,-3.5359,-3.5826,-3.6466,-3.6861,-3.6719,-3.6645,-3.6607,-3.6379,-3.6813,-3.7436,-3.7921,-3.8431,-3.9233,-4.0229,-4.0986,-4.1595,-4.1724,-4.2149,-4.2653,-4.2891,-4.3106,-4.3055,-4.2938,-4.2771,-4.2716,-4.3001,-4.3623,-4.4047,-4.4236,-4.5068,-4.5583,-4.5889,-4.6008,-4.5952,-4.6164,-4.6493,-4.703,-4.7464,-4.8117,-4.8586,-4.9014,-4.9245,-4.9276,-4.9614,-5.0208,-5.0576,-5.0892,-5.1263,-5.1651,-5.1997,-5.225,-1.9725,-1.9852,-2.0073,-2.0114,-2.0109,-2.0895,-2.1252,-2.129,-2.1606,-2.1807,-2.1769,-2.1655,-2.1502,-2.131,-2.1244,-2.1215,-2.1255,-2.1436,-2.1707,-2.1977,-2.1845,-2.1946,-2.2261,-2.2342,-2.2471,-2.2544,-2.3001,-2.366,-2.3914,-2.43,-2.4358,-2.4499,-2.5448,-2.6259,-2.6616,-2.7655,-2.8229,-2.8939,-2.9936,-3.1019,-3.1461,-3.1492,-3.1394,-3.1406,-3.1452,-3.145,-3.1503,-3.1592,-3.1705,-3.1705,-3.1805,-3.1893,-3.2069,-3.2245,-3.2506,-3.2667,-3.3343,-3.3641,-3.3725,-3.3768,-3.4288,-3.5006,-3.5534,-3.6241,-3.6844,-3.6975,-3.7042,-3.7303,-3.6954,-3.6911,-3.7053,-3.69,-3.7639,-3.8309,-3.8828,-3.9545,-4.0368,-4.1513,-4.238,-4.3004,-4.3571,-4.3863,-4.397,-4.38,-4.3749,-4.3549,-4.3431,-4.3282,-4.3321,-4.3524,-4.4275,-4.5119,-4.523,-4.5383,-4.5818,-4.614,-4.6369,-4.6404,-4.6525,-4.698,-4.7758,-4.8337,-4.8945,-4.9657,-5.0235,-5.0314,-5.0161,-5.0364,-5.0811,-5.1118,-5.1376,-5.1651,-5.1924,-5.2122,-5.2338,-2.0287,-2.033,-2.0664,-2.0818,-2.0847,-2.153,-2.1769,-2.1769,-2.1731,-2.1731,-2.1655,-2.1464,-2.1244,-2.1138,-2.1089,-2.1051,-2.1119,-2.144,-2.1628,-2.1669,-2.1689,-2.1719,-2.187,-2.208,-2.2248,-2.2322,-2.3173,-2.3945,-2.4821,-2.5569,-2.6107,-2.5717,-2.6889,-2.7634,-2.8197,-2.9038,-2.9817,-3.015,-3.1097,-3.1772,-3.204,-3.1965,-3.1877,-3.1845,-3.1793,-3.1705,-3.1705,-3.1705,-3.1705,-3.1805,-3.1893,-3.2025,-3.2245,-3.2463,-3.2884,-3.3215,-3.3937,-3.4538,-3.4731,-3.4978,-3.521,-3.5883,-3.6674,-3.7376,-3.7848,-3.7839,-3.7572,-3.7534,-3.7427,-3.7563,-3.7868,-3.7766,-3.8612,-3.921,-3.9664,-4.0456,-4.1276,-4.2355,-4.3327,-4.3886,-4.4449,-4.5138,-4.5099,-4.463,-4.4343,-4.4059,-4.391,-4.3863,-4.4031,-4.4241,-4.4838,-4.5746,-4.5818,-4.5885,-4.6218,-4.6512,-4.6687,-4.689,-4.701,-4.7602,-4.846,-4.9143,-4.9707,-5.0474,-5.1256,-5.1391,-5.121,-5.1283,-5.1359,-5.1487,-5.1651,-5.1924,-5.2178,-5.2354,-5.2409,-2.1658,-2.1647,-2.1665,-2.1655,-2.1645,-2.1769,-2.1807,-2.1769,-2.1578,-2.155,-2.1436,-2.1138,-2.0984,-2.0906,-2.0809,-2.0809,-2.0945,-2.0761,-2.0985,-2.1151,-2.1092,-2.1263,-2.1521,-2.1799,-2.2107,-2.2651,-2.3612,-2.451,-2.5494,-2.6987,-2.7149,-2.6951,-2.8245,-2.8857,-2.9459,-3.022,-3.0874,-3.1177,-3.1681,-3.1749,-3.1805,-3.1761,-3.1761,-3.1761,-3.1705,-3.1705,-3.1705,-3.1717,-3.1849,-3.1981,-3.2069,-3.2201,-3.2506,-3.284,-3.33,-3.3937,-3.4538,-3.5305,-3.5896,-3.5883,-3.6042,-3.6766,-3.7491,-3.7962,-3.8165,-3.7839,-3.761,-3.7739,-3.7809,-3.8192,-3.8595,-3.905,-3.961,-4.0317,-4.0815,-4.1449,-4.2261,-4.3134,-4.4029,-4.4682,-4.5184,-4.5646,-4.5807,-4.5254,-4.5076,-4.4822,-4.4818,-4.4787,-4.5036,-4.5257,-4.5588,-4.6092,-4.6198,-4.6375,-4.6705,-4.6961,-4.7095,-4.7378,-4.7613,-4.84,-4.9356,-4.9941,-5.0411,-5.1225,-5.1974,-5.2137,-5.2217,-5.1928,-5.1762,-5.1762,-5.1888,-5.2106,-5.2365,-5.252,-5.2489,-2.1328,-2.1807,-2.1807,-2.1807,-2.1807,-2.1807,-2.1731,-2.1617,-2.154,-2.1359,-2.1128,-2.0984,-2.0819,-2.0741,-2.0819,-2.0819,-2.0906,-2.0867,-2.0906,-2.0896,-2.0868,-2.0968,-2.1382,-2.2201,-2.2869,-2.3451,-2.442,-2.5295,-2.6174,-2.7435,-2.8184,-2.857,-2.9637,-3.0437,-3.1049,-3.1113,-3.1424,-3.1609,-3.1705,-3.1705,-3.1705,-3.1705,-3.1705,-3.1705,-3.1705,-3.1761,-3.1849,-3.1893,-3.2038,-3.2213,-3.2332,-3.255,-3.2884,-3.3343,-3.3937,-3.4618,-3.5291,-3.6217,-3.6716,-3.6702,-3.6844,-3.7515,-3.8,-3.8217,-3.8231,-3.7825,-3.8074,-3.8279,-3.841,-3.8767,-4.0003,-4.0025,-4.0206,-4.1258,-4.192,-4.2366,-4.3,-4.3758,-4.4335,-4.4774,-4.5253,-4.5771,-4.5807,-4.576,-4.5692,-4.5604,-4.5667,-4.5735,-4.5828,-4.5992,-4.6175,-4.6407,-4.6582,-4.6825,-4.715,-4.7334,-4.7466,-4.7864,-4.8263,-4.9185,-5.0093,-5.061,-5.1146,-5.1959,-5.2409,-5.2357,-5.2285,-5.225,-5.2142,-5.2069,-5.2106,-5.225,-5.247,-5.2672,-5.2572,-2.1252,-2.1769,-2.1807,-2.1769,-2.1731,-2.1693,-2.1589,-2.1425,-2.132,-2.1118,-2.0819,-2.0819,-2.0731,-2.0654,-2.0741,-2.0858,-2.0867,-2.0829,-2.0918,-2.0948,-2.0968,-2.1194,-2.194,-2.2737,-2.3515,-2.4232,-2.5284,-2.6204,-2.6459,-2.716,-2.8244,-2.9495,-3.0657,-3.111,-3.1625,-3.1705,-3.1705,-3.1705,-3.1705,-3.1705,-3.1705,-3.1705,-3.1705,-3.1705,-3.1761,-3.1849,-3.1994,-3.2081,-3.2245,-3.2419,-3.2636,-3.2896,-3.3343,-3.3924,-3.4592,-3.544,-3.6287,-3.7158,-3.7293,-3.7589,-3.7739,-3.8057,-3.8417,-3.842,-3.8199,-3.7953,-3.8236,-3.8972,-3.9077,-3.9639,-4.1033,-4.0905,-4.0992,-4.1869,-4.1934,-4.2328,-4.308,-4.3795,-4.4312,-4.4821,-4.5173,-4.5373,-4.5225,-4.521,-4.5646,-4.5646,-4.5735,-4.5828,-4.6048,-4.6211,-4.6407,-4.6687,-4.6929,-4.7202,-4.7488,-4.7883,-4.8263,-4.8527,-4.9008,-4.9869,-5.0683,-5.1166,-5.1597,-5.2144,-5.2409,-5.2409,-5.2373,-5.2302,-5.2338,-5.2373,-5.2407,-5.2404,-5.2407,-5.2539,-5.2572,-2.1721,-2.1807,-2.1769,-2.1655,-2.1502,-2.1502,-2.1397,-2.1205,-2.1012,-2.0819,-2.0654,-2.0615,-2.0615,-2.0605,-2.0654,-2.0741,-2.078,-2.0702,-2.0869,-2.1204,-2.1412,-2.202,-2.2798,-2.3515,-2.4148,-2.4723,-2.5648,-2.6421,-2.6591,-2.7379,-2.8633,-2.9692,-3.044,-3.1003,-3.1661,-3.1705,-3.1705,-3.1705,-3.1705,-3.1705,-3.1705,-3.1705,-3.1705,-3.1761,-3.1849,-3.195,-3.2081,-3.23,-3.2463,-3.268,-3.2927,-3.3343,-3.405,-3.4468,-3.5318,-3.6506,-3.731,-3.7898,-3.8115,-3.8764,-3.8803,-3.8469,-3.8768,-3.8754,-3.8362,-3.8252,-3.8533,-3.9363,-3.9721,-4.03,-4.1062,-4.1599,-4.186,-4.2044,-4.2149,-4.2486,-4.3254,-4.395,-4.4503,-4.4556,-4.4617,-4.4715,-4.4526,-4.4579,-4.5268,-4.5594,-4.5735,-4.5936,-4.6175,-4.6512,-4.674,-4.6963,-4.7236,-4.7488,-4.7853,-4.858,-4.9027,-4.9276,-4.9773,-5.0585,-5.1082,-5.1481,-5.1912,-5.2326,-5.2409,-5.2409,-5.2409,-5.2373,-5.2409,-5.2426,-5.2506,-5.2556,-5.2473,-5.2525,-5.2622,-2.0934,-2.0934,-2.0789,-2.0954,-2.1282,-2.1464,-2.132,-2.1022,-2.0809,-2.0644,-2.0605,-2.0615,-2.0615,-2.0615,-2.0605,-2.0644,-2.0693,-2.0664,-2.0889,-2.1311,-2.177,-2.224,-2.3032,-2.4002,-2.4682,-2.5123,-2.5935,-2.6459,-2.6475,-2.7377,-2.822,-2.9169,-3.0519,-3.1339,-3.1617,-3.1705,-3.1705,-3.1705,-3.1705,-3.1705,-3.1705,-3.1705,-3.1705,-3.1705,-3.1893,-3.2081,-3.23,-3.2506,-3.2822,-3.3136,-3.3436,-3.4076,-3.4784,-3.5195,-3.6229,-3.7067,-3.7664,-3.8117,-3.8484,-3.9,-3.9479,-3.9218,-3.9088,-3.903,-3.8347,-3.8681,-3.9146,-3.9726,-4.0321,-4.0974,-4.17,-4.1874,-4.209,-4.2281,-4.2482,-4.2911,-4.3497,-4.4182,-4.4639,-4.4274,-4.4143,-4.4472,-4.4434,-4.4677,-4.5268,-4.5817,-4.6048,-4.6191,-4.6372,-4.6844,-4.7202,-4.7337,-4.7521,-4.777,-4.8183,-4.9077,-4.9657,-4.9922,-5.0469,-5.1249,-5.1647,-5.1846,-5.2061,-5.2393,-5.2409,-5.2409,-5.2409,-5.2409,-5.2409,-5.2459,-5.2539,-5.2556,-5.244,-5.2605,-5.2904,-2.0469,-2.043,-2.0595,-2.0799,-2.1089,-2.1244,-2.1079,-2.0819,-2.0654,-2.0615,-2.0615,-2.0615,-2.0615,-2.0615,-2.0605,-2.0644,-2.0693,-2.0702,-2.0928,-2.1371,-2.205,-2.2605,-2.335,-2.4211,-2.4923,-2.538,-2.5891,-2.6325,-2.6755,-2.7313,-2.815,-2.9285,-3.073,-3.1304,-3.1536,-3.1536,-3.1705,-3.1705,-3.1705,-3.1705,-3.1705,-3.1705,-3.1749,-3.1849,-3.2025,-3.2257,-3.2593,-3.2952,-3.3432,-3.3866,-3.4389,-3.5083,-3.5724,-3.6273,-3.7208,-3.7681,-3.8371,-3.9073,-3.9813,-3.9915,-4.0263,-4.0002,-3.9871,-3.9523,-3.9073,-3.932,-3.9696,-4.0191,-4.0778,-4.1259,-4.1738,-4.1924,-4.216,-4.2351,-4.2688,-4.3076,-4.3379,-4.3974,-4.4412,-4.4043,-4.3927,-4.422,-4.4472,-4.5014,-4.5416,-4.5945,-4.6391,-4.6528,-4.6717,-4.7147,-4.7702,-4.7934,-4.8199,-4.853,-4.8994,-4.9723,-5.022,-5.0535,-5.1131,-5.1812,-5.2011,-5.2194,-5.2326,-5.2409,-5.2409,-5.2409,-5.2409,-5.2409,-5.2409,-5.2492,-5.2589,-5.2539,-5.2407,-5.2625,-5.2942,-2.0352,-2.0323,-2.1108,-2.1167,-2.0935,-2.0906,-2.0819,-2.0595,-2.0595,-2.0615,-2.0615,-2.0615,-2.0615,-2.0605,-2.0605,-2.0693,-2.0858,-2.0906,-2.1204,-2.164,-2.2271,-2.2888,-2.3563,-2.4301,-2.4921,-2.5444,-2.5982,-2.6487,-2.7123,-2.7725,-2.8437,-2.9429,-3.0766,-3.1136,-3.1211,-3.1344,-3.1585,-3.1669,-3.1705,-3.1705,-3.1705,-3.1749,-3.1777,-3.1872,-3.2042,-3.2302,-3.2721,-3.3361,-3.4218,-3.4881,-3.549,-3.6496,-3.7111,-3.7262,-3.8037,-3.8837,-3.9648,-4.0437,-4.1018,-4.0887,-4.0839,-4.0582,-4.0813,-4.059,-4.017,-3.983,-4.0101,-4.0435,-4.0934,-4.1186,-4.1518,-4.1813,-4.2092,-4.2392,-4.2688,-4.2915,-4.3101,-4.3482,-4.3912,-4.3966,-4.3888,-4.4043,-4.4182,-4.4639,-4.5651,-4.6291,-4.6848,-4.7338,-4.7474,-4.7596,-4.8148,-4.8712,-4.901,-4.9374,-4.9906,-5.0353,-5.0651,-5.0916,-5.1595,-5.2227,-5.2393,-5.2409,-5.2409,-5.2409,-5.2409,-5.2409,-5.2409,-5.2409,-5.2409,-5.2509,-5.2556,-5.2506,-5.2409,-5.257,-5.2772,-1.9717,-2.0196,-2.0167,-2.045,-2.0829,-2.0731,-2.0654,-2.0605,-2.0615,-2.0615,-2.0615,-2.0615,-2.0605,-2.0605,-2.0741,-2.0829,-2.0945,-2.1132,-2.1531,-2.202,-2.2625,-2.3037,-2.3637,-2.4283,-2.4773,-2.5229,-2.5829,-2.6789,-2.7467,-2.805,-2.9273,-3.0482,-3.0611,-3.0723,-3.091,-3.1091,-3.1416,-3.1657,-3.1741,-3.1705,-3.1761,-3.1805,-3.178,-3.1741,-3.2025,-3.2251,-3.2646,-3.3517,-3.4312,-3.4875,-3.6443,-3.7538,-3.7217,-3.8183,-3.9207,-3.9315,-3.9823,-4.0292,-4.0615,-4.0663,-4.0672,-4.0734,-4.0783,-4.0369,-4.0036,-4.0086,-4.0361,-4.0744,-4.1196,-4.1612,-4.1715,-4.1883,-4.2051,-4.2284,-4.2581,-4.2835,-4.3021,-4.326,-4.3615,-4.3457,-4.3433,-4.3966,-4.4105,-4.4955,-4.5972,-4.6619,-4.7251,-4.7856,-4.8326,-4.8461,-4.8793,-4.9391,-4.974,-5.0121,-5.0353,-5.0734,-5.1015,-5.1382,-5.1995,-5.2409,-5.2409,-5.2409,-5.2409,-5.2409,-5.2409,-5.2409,-5.2409,-5.2409,-5.2409,-5.2409,-5.2475,-5.2442,-5.2445,-5.2712,-5.2939,-1.9638,-1.9962,-2.0089,-2.0381,-2.0693,-2.0644,-2.0615,-2.0615,-2.0615,-2.0615,-2.0615,-2.0615,-2.0644,-2.0731,-2.0858,-2.0984,-2.1187,-2.1495,-2.1788,-2.207,-2.3012,-2.2994,-2.3438,-2.4422,-2.5033,-2.5502,-2.6447,-2.7756,-2.8372,-2.924,-3.034,-3.0079,-3.0146,-3.0434,-3.0651,-3.1067,-3.1609,-3.1801,-3.1874,-3.1753,-3.1842,-3.1942,-3.1794,-3.1902,-3.2174,-3.2491,-3.2995,-3.4014,-3.513,-3.6089,-3.8076,-3.8771,-3.8712,-3.9736,-4.0124,-4.0262,-4.0726,-4.0813,-4.0922,-4.0861,-4.0726,-4.0589,-4.0619,-4.0478,-4.0462,-4.0543,-4.074,-4.1022,-4.1571,-4.2036,-4.2009,-4.1968,-4.2009,-4.2092,-4.2459,-4.2795,-4.2955,-4.3115,-4.3036,-4.285,-4.3235,-4.3873,-4.4564,-4.5452,-4.6347,-4.7184,-4.7911,-4.8535,-4.9054,-4.9406,-4.9754,-5.0286,-5.0518,-5.0783,-5.1015,-5.1231,-5.1547,-5.1812,-5.2078,-5.2393,-5.2409,-5.2409,-5.2409,-5.2409,-5.2409,-5.2409,-5.2409,-5.2409,-5.2409,-5.2445,-5.2535,-5.2659,-5.2835,-5.3145,-5.3365,-2.0001,-1.9795,-2.0547,-2.0741,-2.0615,-2.0605,-2.0615,-2.0615,-2.0615,-2.0615,-2.0615,-2.0644,-2.0741,-2.0867,-2.0984,-2.1205,-2.1442,-2.1812,-2.2165,-2.1999,-2.3022,-2.3384,-2.4023,-2.4602,-2.5811,-2.6534,-2.7525,-2.897,-2.9948,-3.0375,-3.0085,-2.9489,-3.011,-3.0561,-3.0784,-3.1259,-3.1874,-3.2394,-3.2295,-3.2102,-3.2063,-3.2087,-3.2299,-3.2667,-3.3132,-3.3654,-3.464,-3.598,-3.754,-3.862,-3.9662,-4.0278,-4.0686,-4.0891,-4.1001,-4.1061,-4.1324,-4.1274,-4.1053,-4.0901,-4.0845,-4.0731,-4.0645,-4.0689,-4.0732,-4.0928,-4.1111,-4.1251,-4.1744,-4.1953,-4.1968,-4.2009,-4.2051,-4.2133,-4.2351,-4.2581,-4.2648,-4.293,-4.3115,-4.314,-4.3858,-4.4434,-4.4799,-4.573,-4.6991,-4.7837,-4.8898,-4.9557,-5.0146,-5.0616,-5.0783,-5.1197,-5.128,-5.1479,-5.1779,-5.1995,-5.2144,-5.2359,-5.2393,-5.2393,-5.2409,-5.2409,-5.2409,-5.2409,-5.2409,-5.2409,-5.2409,-5.2409,-5.248,-5.2589,-5.2747,-5.2939,-5.323,-5.3697,-5.4117,-2.0089,-2.0576,-2.0654,-2.0644,-2.0595,-2.0615,-2.0595,-2.0615,-2.0615,-2.0595,-2.0615,-2.0741,-2.0838,-2.0885,-2.1195,-2.1415,-2.1602,-2.2208,-2.2656,-2.3179,-2.3814,-2.4472,-2.5391,-2.6162,-2.6995,-2.7952,-2.906,-3.0068,-3.0506,-3.05,-3.0278,-3.0053,-3.0302,-3.0302,-3.1264,-3.1745,-3.2163,-3.2899,-3.2935,-3.2965,-3.315,-3.3395,-3.3682,-3.409,-3.4523,-3.5027,-3.5927,-3.6967,-3.7669,-3.8331,-4.0009,-4.0862,-4.1277,-4.1306,-4.1153,-4.0986,-4.1281,-4.1241,-4.0972,-4.0702,-4.0602,-4.0616,-4.0573,-4.0787,-4.1001,-4.1269,-4.1438,-4.1564,-4.1704,-4.187,-4.1953,-4.2051,-4.2092,-4.2175,-4.2315,-4.2383,-4.2465,-4.2872,-4.3245,-4.3871,-4.4587,-4.5086,-4.5456,-4.6285,-4.7513,-4.8877,-5.036,-5.1349,-5.198,-5.2407,-5.1959,-5.2175,-5.2026,-5.2191,-5.2409,-5.2409,-5.2409,-5.2409,-5.2409,-5.2409,-5.2409,-5.2409,-5.2409,-5.2409,-5.2409,-5.2409,-5.2409,-5.2409,-5.2499,-5.2729,-5.3025,-5.3264,-5.4006,-5.4558,-5.5029,-2.042,-2.0712,-2.0438,-2.0273,-2.0282,-2.0116,-2.0136,-2.0292,-2.0388,-2.0544,-2.0722,-2.0848,-2.0874,-2.0938,-2.1324,-2.1776,-2.1973,-2.2762,-2.3524,-2.423,-2.4865,-2.5406,-2.6406,-2.7464,-2.8026,-2.8852,-3.0024,-3.0802,-3.0779,-3.0417,-3.0151,-3.0172,-2.9992,-3.0634,-3.1751,-3.199,-3.2545,-3.3248,-3.3501,-3.4021,-3.4384,-3.4749,-3.485,-3.5179,-3.5894,-3.6524,-3.7385,-3.8319,-3.8919,-3.9507,-4.09,-4.1403,-4.163,-4.1506,-4.1269,-4.11,-4.1043,-4.0887,-4.053,-4.0357,-4.03,-4.04,-4.0744,-4.11,-4.1269,-4.1522,-4.1745,-4.187,-4.1912,-4.2051,-4.2051,-4.2092,-4.2092,-4.2133,-4.2553,-4.2827,-4.3351,-4.3997,-4.4336,-4.475,-4.5626,-4.6707,-4.712,-4.7762,-4.8942,-5.0167,-5.1658,-5.2593,-5.3341,-5.3914,-5.3516,-5.3185,-5.3053,-5.2589,-5.2409,-5.2409,-5.2409,-5.2409,-5.2409,-5.2409,-5.2409,-5.2409,-5.2409,-5.2409,-5.2409,-5.2409,-5.2409,-5.2445,-5.2659,-5.2904,-5.3264,-5.3631,-5.4527,-5.5391,-5.5794,-2.0692,-2.0468,-2.0078,-1.9883,-1.9785,-1.9463,-1.9549,-1.9879,-2.0058,-2.0379,-2.0733,-2.0887,-2.0906,-2.1084,-2.1494,-2.2009,-2.2696,-2.3638,-2.4486,-2.5289,-2.5958,-2.6704,-2.7386,-2.8137,-2.8966,-2.9663,-3.0548,-3.061,-3.0476,-3.0313,-3.0269,-3.0121,-3.0657,-3.1436,-3.1801,-3.2362,-3.323,-3.3715,-3.4278,-3.5174,-3.5667,-3.6096,-3.6082,-3.6565,-3.7468,-3.8454,-3.9126,-3.986,-4.063,-4.0963,-4.1459,-4.1709,-4.1785,-4.1522,-4.1213,-4.1001,-4.0702,-4.043,-4.0213,-4.0314,-4.0357,-4.053,-4.1086,-4.1396,-4.1522,-4.176,-4.2024,-4.2208,-4.2208,-4.2223,-4.2223,-4.2281,-4.2281,-4.2511,-4.2991,-4.3437,-4.4251,-4.5045,-4.5484,-4.5849,-4.7006,-4.8164,-4.884,-4.9427,-5.0497,-5.1694,-5.2646,-5.3486,-5.4262,-5.4725,-5.4792,-5.4411,-5.4146,-5.3566,-5.2771,-5.2459,-5.2475,-5.2409,-5.2409,-5.2409,-5.2409,-5.2409,-5.2409,-5.2409,-5.2409,-5.2426,-5.2516,-5.257,-5.2817,-5.3281,-5.3813,-5.4388,-5.5285,-5.6055,-5.6412,-2.04,-2.0029,-1.9932,-1.9727,-1.9414,-1.9333,-1.9429,-1.9644,-1.971,-1.9922,-2.0459,-2.0953,-2.1278,-2.1675,-2.2413,-2.3018,-2.3559,-2.4563,-2.5548,-2.6421,-2.6938,-2.7946,-2.8815,-2.9246,-3.0236,-3.0713,-3.0912,-3.0744,-3.0678,-3.0636,-3.0933,-3.1363,-3.1516,-3.2345,-3.3371,-3.3844,-3.4025,-3.4554,-3.5223,-3.6135,-3.6637,-3.7118,-3.7661,-3.8437,-3.9578,-3.9836,-4.0253,-4.1114,-4.1294,-4.1424,-4.163,-4.1825,-4.1647,-4.1396,-4.1043,-4.0616,-4.03,-4.0213,-4.014,-4.0314,-4.04,-4.0958,-4.1438,-4.162,-4.1774,-4.2013,-4.2366,-4.2769,-4.2798,-4.2756,-4.2758,-4.2905,-4.2992,-4.3555,-4.4049,-4.449,-4.5087,-4.6041,-4.6791,-4.777,-4.8956,-4.9835,-5.0493,-5.128,-5.2336,-5.337,-5.4097,-5.4891,-5.5206,-5.5603,-5.5918,-5.5554,-5.514,-5.4324,-5.3483,-5.2721,-5.2539,-5.2492,-5.2442,-5.2509,-5.2509,-5.2426,-5.2426,-5.2572,-5.2542,-5.2528,-5.2601,-5.2764,-5.3517,-5.403,-5.4534,-5.5172,-5.6116,-5.6752,-5.7153]},{"header":{"parameterUnit":"m.s-1","parameterCategory":1,"la1":31.0,"la2":29.5877,"lo1":-88.7671,"lo2":-86.6584,"dy":0.0162,"dx":0.0185,"nx":115,"ny":88,"refTime":"2023-03-25T06:00:00:Z","depth":0,"parameterNumber":3,"parameterNumberName":"V-component_of_WINDS"},"data":[0.0,0.0,0.0,0.0,0.0,0.0,0.0,0.0,0.0,0.0,0.0,0.0,0.0,0.0,0.0,0.0,0.0,0.0,0.0,0.0,0.0,0.0,0.0,0.0,0.0,0.0,0.0,0.0,0.0,0.0,0.0,0.0,0.0,0.0,0.0,0.0,0.0,0.0,0.0,0.0,0.0,0.0,0.0,0.0,0.0,0.0,0.0,0.0,0.0,0.0,0.0,0.0,0.0,0.0,0.0,0.0,0.0,0.0,0.0,0.0,0.0,0.0,0.0,0.0,0.0,0.0,0.0,0.0,0.0,0.0,0.0,0.0,0.0,0.0,0.0,0.0,0.0,0.0,0.0,0.0,0.0,0.0,0.0,0.0,0.0,0.0,0.0,0.0,0.0,0.0,0.0,0.0,0.0,0.0,0.0,0.0,0.0,0.0,0.0,0.0,0.0,0.0,0.0,0.0,0.0,0.0,0.0,0.0,0.0,0.0,0.0,0.0,0.0,0.0,0.0,0.0,0.0,0.0,0.0,0.0,0.0,0.0,0.0,0.0,0.0,0.0,0.0,0.0,0.0,0.0,0.0,0.0,0.0,0.0,0.0,0.0,0.0,0.0,0.0,0.0,0.0,0.0,0.0,0.0,0.0,0.0,0.0,0.0,0.0,0.0,0.0,0.0,0.0,0.0,0.0,0.0,0.0,0.0,0.0,0.0,0.0,0.0,0.0,0.0,0.0,0.0,0.0,0.0,0.0,0.0,0.0,0.0,0.0,0.0,0.0,0.0,0.0,0.0,0.0,0.0,0.0,0.0,0.0,0.0,0.0,0.0,0.0,0.0,0.0,0.0,0.0,0.0,0.0,0.0,0.0,0.0,0.0,0.0,0.0,0.0,0.0,0.0,0.0,0.0,0.0,0.0,0.0,0.0,0.0,0.0,0.0,0.0,0.0,0.0,0.0,0.0,0.0,0.0,0.0,0.0,0.0,0.0,0.0,0.0,0.0,0.0,0.0,0.0,0.0,0.0,0.0,0.0,0.0,0.0,0.0,0.0,0.0,0.0,0.0,0.0,0.0,0.0,0.0,0.0,0.0,0.0,0.0,0.0,0.0,0.0,0.0,0.0,0.0,0.0,0.0,0.0,0.0,0.0,0.0,0.0,0.0,0.0,0.0,0.0,0.0,0.0,0.0,0.0,0.0,0.0,0.0,0.0,0.0,0.0,0.0,0.0,0.0,0.0,0.0,0.0,0.0,0.0,0.0,0.0,0.0,0.0,0.0,0.0,0.0,0.0,0.0,0.0,0.0,0.0,0.0,0.0,0.0,0.0,0.0,0.0,0.0,0.0,0.0,0.0,0.0,0.0,0.0,0.0,0.0,0.0,0.0,0.0,0.0,0.0,0.0,0.0,0.0,0.0,0.0,0.0,0.0,0.0,0.0,0.0,0.0,0.0,0.0,0.0,0.0,0.0,0.0,0.0,0.0,0.0,0.0,0.0,0.0,0.0,0.0,0.0,0.0,0.0,0.0,0.0,0.0,0.0,0.0,0.0,0.0,0.0,0.0,0.0,0.0,0.0,0.0,0.0,0.0,0.0,0.0,0.0,0.0,0.0,0.0,0.0,0.0,0.0,0.0,0.0,0.0,0.0,0.0,0.0,0.0,0.0,0.0,0.0,0.0,0.0,0.0,0.0,0.0,0.0,0.0,0.0,0.0,0.0,0.0,0.0,0.0,0.0,0.0,0.0,0.0,0.0,0.0,0.0,0.0,0.0,0.0,0.0,0.0,0.0,0.0,0.0,0.0,0.0,0.0,0.0,0.0,0.0,0.0,0.0,0.0,0.0,0.0,0.0,0.0,0.0,0.0,0.0,0.0,0.0,0.0,0.0,0.0,0.0,0.0,0.0,0.0,0.0,0.0,0.0,0.0,0.0,0.0,0.0,0.0,0.0,0.0,0.0,0.0,0.0,0.0,0.0,0.0,0.0,0.0,0.0,0.0,0.0,0.0,0.0,0.0,0.0,0.0,0.0,0.0,0.0,0.0,0.0,0.0,0.0,0.0,0.0,0.0,0.0,0.0,0.0,0.0,0.0,0.0,0.0,0.0,0.0,0.0,0.0,0.0,0.0,0.0,0.0,0.0,0.0,0.0,0.0,0.0,0.0,0.0,0.0,0.0,0.0,0.0,0.0,0.0,0.0,0.0,0.0,0.0,0.0,0.0,0.0,0.0,0.0,0.0,0.0,0.0,0.0,0.0,0.0,0.0,0.0,0.0,0.0,0.0,0.0,0.0,0.0,0.0,0.0,0.0,0.0,0.0,0.0,0.0,0.0,0.0,0.0,0.0,0.0,0.0,0.0,0.0,0.0,0.0,0.0,0.0,0.0,0.0,0.0,0.0,0.0,0.0,0.0,0.0,0.0,0.0,0.0,0.0,0.0,0.0,0.0,0.0,0.0,0.0,0.0,0.0,0.0,0.0,0.0,0.0,0.0,0.0,0.0,0.0,0.0,0.0,0.0,0.0,0.0,0.0,0.0,0.0,0.0,0.0,0.0,0.0,0.0,0.0,0.0,0.0,0.0,0.0,0.0,0.0,0.0,0.0,0.0,0.0,0.0,0.0,0.0,0.0,0.0,0.0,0.0,0.0,0.0,0.0,0.0,0.0,0.0,0.0,0.0,0.0,0.0,0.0,0.0,0.0,0.0,0.0,0.0,0.0,0.0,0.0,0.0,0.0,0.0,0.0,0.0,0.0,0.0,0.0,0.0,0.0,0.0,0.0,0.0,0.0,0.0,0.0,0.0,0.0,0.0,0.0,0.0,0.0,0.0,0.0,0.0,0.0,0.0,0.0,0.0,0.0,0.0,0.0,0.0,0.0,0.0,0.0,0.0,0.0,0.0,0.0,0.0,0.0,0.0,0.0,0.0,0.0,0.0,0.0,0.0,0.0,0.0,0.0,0.0,0.0,0.0,0.0,0.0,0.0,0.0,0.0,0.0,0.0,0.0,0.0,0.0,0.0,0.0,0.0,0.0,0.0,0.0,0.0,0.0,0.0,0.0,0.0,0.0,0.0,0.0,0.0,0.0,0.0,0.0,0.0,0.0,0.0,0.0,0.0,0.0,0.0,0.0,0.0,0.0,0.0,0.0,0.0,0.0,0.0,0.0,0.0,0.0,0.0,0.0,0.0,0.0,0.0,0.0,0.0,0.0,0.0,0.0,0.0,0.0,0.0,0.0,0.0,0.0,0.0,0.0,0.0,0.0,0.0,0.0,0.0,0.0,0.0,0.0,0.0,0.0,0.0,0.0,0.0,0.0,0.0,0.0,0.0,0.0,0.0,0.0,0.0,0.0,0.0,0.0,0.0,0.0,0.0,0.0,0.0,0.0,0.0,0.0,0.0,0.0,0.0,0.0,0.0,0.0,0.0,0.0,0.0,0.0,0.0,0.0,0.0,0.0,0.0,0.0,0.0,0.0,0.0,0.0,0.0,0.0,0.0,0.0,0.0,0.0,0.0,0.0,0.0,0.0,0.0,0.0,0.0,0.0,0.0,0.0,0.0,0.0,0.0,0.0,0.0,0.0,0.0,0.0,0.0,0.0,0.0,0.0,0.0,0.0,0.0,0.0,0.0,0.0,0.0,0.0,0.0,0.0,0.0,0.0,0.0,0.0,0.0,0.0,0.0,0.0,0.0,0.0,0.0,0.0,0.0,0.0,0.0,0.0,0.0,0.0,0.0,0.0,0.0,0.0,0.0,0.0,0.0,0.0,0.0,0.0,0.0,0.0,0.0,0.0,0.0,0.0,0.0,0.0,0.0,0.0,0.0,0.0,0.0,0.0,0.0,0.0,0.0,0.0,0.0,0.0,0.0,0.0,0.0,0.0,0.0,0.0,0.0,0.0,0.0,0.0,0.0,0.0,0.0,0.0,0.0,0.0,0.0,0.0,0.0,0.0,0.0,0.0,0.0,0.0,0.0,0.0,0.0,0.0,0.0,0.0,0.0,0.0,0.0,0.0,0.0,0.0,0.0,0.0,0.0,0.0,0.0,0.0,0.0,0.0,0.0,0.0,0.0,0.0,0.0,0.0,0.0,0.0,0.0,0.0,0.0,0.0,0.0,0.0,0.0,0.0,0.0,0.0,0.0,0.0,0.0,0.0,0.0,0.0,0.0,0.0,0.0,0.0,0.0,0.0,0.0,0.0,0.0,0.0,0.0,0.0,0.0,0.0,0.0,0.0,0.0,0.0,0.0,0.0,0.0,0.0,0.0,0.0,0.0,0.0,0.0,0.0,-3.6887,0.0,0.0,0.0,0.0,0.0,0.0,0.0,0.0,0.0,0.0,0.0,0.0,0.0,0.0,0.0,0.0,0.0,0.0,0.0,0.0,0.0,0.0,0.0,0.0,0.0,0.0,0.0,0.0,0.0,0.0,0.0,0.0,0.0,0.0,0.0,0.0,0.0,0.0,0.0,0.0,0.0,0.0,0.0,0.0,0.0,0.0,0.0,0.0,0.0,0.0,0.0,0.0,0.0,0.0,0.0,0.0,0.0,0.0,0.0,0.0,0.0,0.0,0.0,0.0,0.0,0.0,0.0,0.0,0.0,0.0,0.0,0.0,0.0,0.0,0.0,0.0,0.0,0.0,0.0,0.0,0.0,0.0,0.0,0.0,0.0,0.0,0.0,0.0,0.0,0.0,0.0,0.0,0.0,0.0,0.0,0.0,0.0,0.0,0.0,0.0,0.0,0.0,0.0,0.0,0.0,0.0,0.0,0.0,0.0,0.0,-3.6518,-3.7092,-3.6117,-3.5741,-3.6136,0.0,0.0,0.0,0.0,0.0,0.0,0.0,0.0,0.0,0.0,0.0,0.0,0.0,0.0,0.0,0.0,0.0,0.0,0.0,0.0,0.0,0.0,0.0,0.0,0.0,0.0,0.0,0.0,0.0,0.0,0.0,0.0,0.0,0.0,0.0,0.0,0.0,0.0,0.0,0.0,0.0,0.0,0.0,0.0,0.0,0.0,0.0,0.0,0.0,0.0,0.0,0.0,0.0,0.0,0.0,0.0,0.0,0.0,0.0,0.0,0.0,0.0,0.0,0.0,0.0,0.0,0.0,0.0,0.0,0.0,0.0,0.0,0.0,0.0,0.0,0.0,0.0,0.0,0.0,0.0,0.0,0.0,0.0,0.0,0.0,0.0,0.0,0.0,0.0,0.0,0.0,0.0,0.0,0.0,0.0,0.0,0.0,0.0,0.0,0.0,0.0,0.0,0.0,0.0,0.0,0.0,0.0,0.0,0.0,0.0,0.0,0.0,-3.5513,-3.519,-3.567,0.0,0.0,0.0,0.0,0.0,0.0,0.0,0.0,0.0,0.0,0.0,0.0,0.0,0.0,0.0,0.0,0.0,0.0,0.0,0.0,0.0,0.0,0.0,0.0,0.0,0.0,0.0,0.0,0.0,0.0,0.0,0.0,0.0,0.0,0.0,0.0,0.0,0.0,0.0,0.0,0.0,0.0,0.0,0.0,0.0,0.0,0.0,0.0,0.0,0.0,0.0,0.0,0.0,0.0,0.0,0.0,0.0,0.0,0.0,0.0,0.0,0.0,0.0,0.0,0.0,0.0,0.0,0.0,0.0,0.0,0.0,0.0,0.0,0.0,0.0,0.0,0.0,0.0,0.0,0.0,0.0,0.0,0.0,0.0,0.0,0.0,0.0,0.0,0.0,0.0,0.0,0.0,0.0,0.0,0.0,0.0,0.0,0.0,0.0,0.0,0.0,0.0,0.0,0.0,0.0,0.0,0.0,0.0,0.0,0.0,-3.5141,-3.5352,-3.5424,0.0,-3.6225,0.0,0.0,0.0,0.0,0.0,0.0,0.0,0.0,0.0,0.0,0.0,0.0,0.0,0.0,0.0,0.0,0.0,0.0,0.0,0.0,0.0,0.0,0.0,0.0,0.0,0.0,0.0,0.0,0.0,0.0,0.0,0.0,0.0,0.0,0.0,0.0,0.0,0.0,0.0,0.0,0.0,0.0,0.0,0.0,0.0,0.0,0.0,0.0,0.0,0.0,0.0,0.0,0.0,0.0,0.0,0.0,0.0,0.0,0.0,0.0,0.0,0.0,0.0,0.0,0.0,0.0,0.0,0.0,0.0,0.0,0.0,0.0,0.0,0.0,0.0,0.0,0.0,0.0,0.0,0.0,0.0,0.0,0.0,0.0,0.0,0.0,0.0,0.0,0.0,0.0,0.0,0.0,0.0,0.0,0.0,0.0,0.0,0.0,0.0,0.0,0.0,0.0,0.0,0.0,0.0,0.0,0.0,0.0,0.0,0.0,-3.5509,-3.5322,-3.518,-3.4852,0.0,0.0,0.0,0.0,0.0,0.0,0.0,0.0,0.0,0.0,0.0,0.0,0.0,0.0,0.0,0.0,0.0,0.0,0.0,0.0,0.0,0.0,0.0,0.0,0.0,0.0,0.0,0.0,0.0,0.0,0.0,0.0,0.0,0.0,0.0,0.0,0.0,0.0,0.0,0.0,0.0,0.0,0.0,0.0,0.0,0.0,0.0,0.0,0.0,0.0,0.0,0.0,0.0,0.0,0.0,0.0,0.0,0.0,0.0,0.0,0.0,0.0,0.0,0.0,0.0,0.0,0.0,0.0,0.0,0.0,0.0,0.0,0.0,0.0,0.0,0.0,0.0,0.0,0.0,0.0,0.0,0.0,0.0,0.0,0.0,0.0,0.0,0.0,0.0,0.0,0.0,0.0,0.0,0.0,0.0,0.0,0.0,0.0,0.0,0.0,0.0,0.0,0.0,0.0,0.0,0.0,0.0,0.0,0.0,0.0,-3.5578,-3.5131,-3.4506,-3.3923,-3.337,-3.283,0.0,0.0,0.0,0.0,0.0,0.0,0.0,0.0,0.0,0.0,0.0,0.0,0.0,0.0,0.0,0.0,0.0,0.0,0.0,0.0,0.0,0.0,0.0,0.0,0.0,0.0,0.0,0.0,0.0,0.0,0.0,0.0,0.0,0.0,0.0,0.0,0.0,0.0,0.0,0.0,0.0,0.0,0.0,0.0,0.0,0.0,0.0,0.0,0.0,0.0,0.0,0.0,0.0,0.0,0.0,0.0,0.0,0.0,0.0,0.0,0.0,0.0,0.0,0.0,0.0,0.0,0.0,0.0,0.0,0.0,0.0,0.0,0.0,0.0,0.0,0.0,0.0,0.0,0.0,0.0,0.0,0.0,0.0,0.0,0.0,0.0,0.0,0.0,0.0,0.0,0.0,0.0,0.0,0.0,0.0,0.0,0.0,0.0,0.0,0.0,0.0,0.0,0.0,0.0,0.0,0.0,0.0,0.0,-3.6057,-3.4594,-3.3319,-3.2311,-3.1265,-3.1244,0.0,0.0,0.0,0.0,0.0,0.0,0.0,0.0,0.0,0.0,0.0,0.0,0.0,0.0,0.0,0.0,0.0,0.0,0.0,0.0,0.0,0.0,0.0,0.0,0.0,0.0,0.0,0.0,0.0,0.0,0.0,0.0,0.0,0.0,0.0,0.0,0.0,0.0,0.0,0.0,0.0,0.0,0.0,0.0,0.0,0.0,0.0,0.0,0.0,0.0,0.0,0.0,0.0,0.0,0.0,0.0,0.0,0.0,0.0,0.0,0.0,0.0,0.0,0.0,0.0,0.0,0.0,0.0,0.0,0.0,0.0,0.0,0.0,0.0,0.0,0.0,0.0,0.0,0.0,0.0,0.0,0.0,0.0,0.0,0.0,0.0,0.0,0.0,0.0,0.0,0.0,0.0,0.0,0.0,0.0,0.0,0.0,0.0,0.0,0.0,0.0,0.0,0.0,0.0,0.0,0.0,0.0,0.0,0.0,-3.5555,-3.4293,-3.3013,-3.1733,-3.2401,-3.2615,0.0,0.0,0.0,0.0,0.0,0.0,0.0,0.0,0.0,0.0,0.0,0.0,0.0,0.0,0.0,0.0,0.0,0.0,0.0,0.0,0.0,0.0,0.0,0.0,0.0,0.0,0.0,0.0,0.0,0.0,0.0,0.0,0.0,0.0,0.0,0.0,0.0,0.0,0.0,0.0,0.0,0.0,0.0,0.0,0.0,0.0,0.0,0.0,0.0,0.0,0.0,0.0,0.0,0.0,0.0,0.0,0.0,0.0,0.0,0.0,0.0,0.0,0.0,0.0,0.0,0.0,0.0,0.0,0.0,0.0,0.0,0.0,0.0,0.0,0.0,0.0,0.0,0.0,0.0,0.0,0.0,0.0,0.0,0.0,0.0,0.0,0.0,0.0,0.0,0.0,0.0,0.0,0.0,0.0,0.0,0.0,0.0,0.0,0.0,0.0,0.0,0.0,0.0,0.0,0.0,0.0,0.0,0.0,0.0,-3.4896,0.0,-3.2555,-3.1601,-3.2504,-3.2643,0.0,0.0,0.0,0.0,0.0,0.0,0.0,0.0,0.0,0.0,0.0,0.0,0.0,0.0,0.0,0.0,0.0,0.0,0.0,0.0,0.0,0.0,0.0,0.0,0.0,0.0,0.0,0.0,0.0,0.0,0.0,0.0,0.0,0.0,0.0,0.0,0.0,0.0,0.0,0.0,0.0,0.0,0.0,0.0,0.0,0.0,0.0,0.0,0.0,0.0,0.0,0.0,0.0,0.0,0.0,0.0,0.0,0.0,0.0,0.0,0.0,0.0,0.0,0.0,0.0,0.0,0.0,0.0,0.0,0.0,0.0,0.0,0.0,0.0,0.0,0.0,0.0,0.0,0.0,0.0,0.0,0.0,0.0,0.0,0.0,0.0,0.0,0.0,0.0,0.0,0.0,0.0,0.0,0.0,0.0,0.0,0.0,0.0,0.0,0.0,0.0,0.0,0.0,0.0,0.0,0.0,0.0,0.0,-3.5092,-3.4227,-3.283,-3.2034,-3.1711,-3.1294,-3.0962,0.0,0.0,0.0,0.0,0.0,0.0,0.0,0.0,0.0,0.0,0.0,0.0,0.0,0.0,0.0,0.0,0.0,0.0,0.0,0.0,0.0,0.0,0.0,0.0,0.0,0.0,0.0,0.0,0.0,0.0,0.0,0.0,0.0,0.0,0.0,0.0,0.0,0.0,0.0,0.0,0.0,0.0,0.0,0.0,0.0,0.0,0.0,0.0,0.0,0.0,0.0,0.0,0.0,0.0,0.0,0.0,0.0,0.0,0.0,0.0,0.0,0.0,0.0,0.0,0.0,0.0,0.0,0.0,0.0,0.0,0.0,0.0,0.0,0.0,0.0,0.0,0.0,0.0,0.0,0.0,0.0,0.0,0.0,0.0,0.0,0.0,0.0,0.0,0.0,0.0,0.0,0.0,0.0,0.0,0.0,0.0,0.0,0.0,0.0,0.0,0.0,0.0,0.0,0.0,0.0,0.0,0.0,0.0,0.0,-3.4881,-3.3821,-3.2937,-3.2279,-3.2049,-3.2013,0.0,0.0,0.0,0.0,0.0,0.0,0.0,0.0,0.0,0.0,0.0,0.0,0.0,0.0,0.0,0.0,0.0,0.0,0.0,0.0,0.0,0.0,0.0,0.0,0.0,0.0,0.0,0.0,0.0,0.0,0.0,0.0,0.0,0.0,0.0,0.0,0.0,0.0,0.0,0.0,0.0,0.0,0.0,0.0,0.0,0.0,0.0,0.0,0.0,0.0,0.0,0.0,0.0,0.0,0.0,0.0,0.0,0.0,0.0,0.0,0.0,0.0,0.0,0.0,0.0,0.0,0.0,0.0,0.0,0.0,0.0,0.0,0.0,0.0,0.0,0.0,0.0,0.0,0.0,0.0,0.0,0.0,0.0,0.0,0.0,0.0,0.0,0.0,0.0,0.0,0.0,0.0,0.0,0.0,0.0,0.0,0.0,0.0,0.0,0.0,0.0,0.0,0.0,0.0,0.0,0.0,0.0,0.0,0.0,-3.5219,-3.3953,-3.3138,-3.2851,-3.2354,-3.2426,-3.3043,0.0,0.0,0.0,0.0,0.0,0.0,0.0,0.0,0.0,0.0,0.0,0.0,0.0,0.0,0.0,0.0,0.0,0.0,0.0,0.0,0.0,0.0,0.0,0.0,0.0,0.0,0.0,0.0,0.0,0.0,0.0,0.0,0.0,0.0,0.0,0.0,0.0,0.0,0.0,0.0,0.0,0.0,0.0,0.0,0.0,0.0,0.0,0.0,0.0,0.0,0.0,0.0,0.0,0.0,0.0,0.0,0.0,0.0,0.0,0.0,0.0,0.0,0.0,0.0,0.0,0.0,0.0,0.0,0.0,0.0,0.0,0.0,0.0,0.0,0.0,0.0,0.0,0.0,0.0,0.0,0.0,0.0,0.0,0.0,0.0,0.0,0.0,0.0,0.0,0.0,0.0,0.0,0.0,0.0,0.0,0.0,0.0,0.0,0.0,0.0,0.0,0.0,0.0,0.0,0.0,0.0,0.0,0.0,-3.5491,-3.3449,-3.2735,-3.3413,-3.234,-3.2297,0.0,0.0,0.0,0.0,0.0,0.0,0.0,0.0,0.0,0.0,0.0,0.0,0.0,0.0,0.0,0.0,0.0,0.0,0.0,0.0,0.0,0.0,0.0,0.0,0.0,0.0,0.0,0.0,0.0,0.0,0.0,0.0,0.0,0.0,0.0,0.0,0.0,0.0,0.0,0.0,0.0,0.0,0.0,0.0,0.0,0.0,0.0,0.0,0.0,0.0,0.0,0.0,0.0,0.0,0.0,0.0,0.0,0.0,0.0,0.0,0.0,0.0,0.0,0.0,0.0,0.0,0.0,0.0,0.0,0.0,0.0,0.0,0.0,0.0,0.0,0.0,0.0,0.0,0.0,0.0,0.0,0.0,0.0,0.0,0.0,0.0,0.0,0.0,0.0,0.0,0.0,0.0,0.0,0.0,0.0,0.0,0.0,0.0,0.0,0.0,0.0,0.0,0.0,0.0,0.0,0.0,0.0,0.0,0.0,-3.6085,-3.4098,-3.3035,-3.3049,-3.2813,-3.2695,0.0,0.0,0.0,0.0,0.0,0.0,0.0,0.0,0.0,0.0,0.0,0.0,0.0,0.0,0.0,0.0,0.0,0.0,0.0,0.0,0.0,0.0,0.0,0.0,0.0,0.0,0.0,0.0,0.0,0.0,0.0,0.0,0.0,0.0,0.0,0.0,0.0,0.0,0.0,0.0,0.0,0.0,0.0,0.0,0.0,0.0,0.0,0.0,0.0,0.0,0.0,0.0,0.0,0.0,0.0,0.0,0.0,0.0,0.0,0.0,0.0,0.0,0.0,0.0,0.0,0.0,0.0,0.0,0.0,0.0,0.0,0.0,0.0,0.0,0.0,0.0,0.0,0.0,0.0,0.0,0.0,0.0,0.0,0.0,0.0,0.0,0.0,0.0,0.0,0.0,0.0,0.0,0.0,0.0,0.0,0.0,0.0,0.0,0.0,0.0,0.0,0.0,0.0,0.0,0.0,0.0,0.0,0.0,-3.6287,-3.6377,-3.4395,-3.3214,-3.2983,-3.2942,-3.2894,0.0,0.0,0.0,0.0,0.0,0.0,0.0,0.0,0.0,0.0,0.0,0.0,0.0,0.0,0.0,0.0,0.0,0.0,0.0,0.0,0.0,0.0,0.0,0.0,0.0,0.0,0.0,0.0,0.0,0.0,0.0,0.0,0.0,0.0,0.0,0.0,0.0,0.0,0.0,0.0,0.0,0.0,0.0,0.0,0.0,0.0,0.0,0.0,0.0,0.0,0.0,0.0,0.0,0.0,0.0,0.0,0.0,0.0,0.0,0.0,0.0,0.0,0.0,0.0,0.0,0.0,0.0,0.0,0.0,0.0,0.0,0.0,0.0,0.0,0.0,0.0,0.0,0.0,0.0,0.0,0.0,0.0,0.0,0.0,0.0,0.0,0.0,0.0,0.0,0.0,0.0,0.0,0.0,0.0,0.0,0.0,0.0,0.0,0.0,0.0,0.0,0.0,0.0,0.0,0.0,0.0,0.0,0.0,-3.6461,-3.6452,-3.4455,-3.3329,-3.3143,-3.287,-3.2866,0.0,0.0,0.0,0.0,0.0,0.0,0.0,0.0,0.0,0.0,0.0,0.0,0.0,0.0,0.0,0.0,0.0,0.0,0.0,0.0,0.0,0.0,0.0,0.0,0.0,0.0,0.0,0.0,0.0,0.0,0.0,0.0,0.0,0.0,0.0,0.0,0.0,0.0,0.0,0.0,0.0,0.0,0.0,0.0,0.0,0.0,0.0,0.0,0.0,0.0,0.0,0.0,0.0,0.0,0.0,0.0,0.0,0.0,0.0,0.0,0.0,0.0,0.0,0.0,0.0,0.0,0.0,0.0,0.0,0.0,0.0,0.0,0.0,0.0,0.0,0.0,0.0,0.0,0.0,0.0,0.0,0.0,0.0,0.0,0.0,0.0,0.0,0.0,0.0,0.0,0.0,0.0,0.0,0.0,0.0,0.0,0.0,0.0,0.0,0.0,0.0,0.0,0.0,0.0,0.0,0.0,0.0,0.0,-3.7382,-3.6995,-3.475,-3.3465,-3.335,-3.3131,-3.275,0.0,0.0,0.0,0.0,0.0,0.0,0.0,0.0,0.0,0.0,0.0,0.0,0.0,0.0,0.0,0.0,0.0,0.0,0.0,0.0,0.0,0.0,0.0,0.0,0.0,0.0,0.0,0.0,0.0,0.0,0.0,0.0,0.0,0.0,0.0,0.0,0.0,0.0,0.0,0.0,0.0,0.0,0.0,0.0,0.0,0.0,0.0,0.0,-4.531,0.0,0.0,0.0,0.0,0.0,0.0,0.0,0.0,0.0,0.0,0.0,0.0,0.0,0.0,0.0,0.0,0.0,0.0,0.0,0.0,0.0,0.0,0.0,0.0,0.0,0.0,0.0,0.0,0.0,0.0,0.0,0.0,0.0,0.0,0.0,0.0,0.0,0.0,0.0,0.0,0.0,0.0,0.0,0.0,0.0,0.0,0.0,0.0,0.0,0.0,0.0,0.0,0.0,0.0,0.0,0.0,0.0,0.0,0.0,-3.7189,-3.7585,-3.4706,-3.3216,-3.3376,-3.2586,-3.2069,0.0,0.0,0.0,0.0,0.0,0.0,0.0,0.0,0.0,0.0,0.0,0.0,0.0,0.0,0.0,0.0,0.0,0.0,0.0,0.0,0.0,0.0,0.0,0.0,0.0,0.0,0.0,0.0,0.0,0.0,0.0,0.0,0.0,0.0,0.0,0.0,0.0,0.0,0.0,0.0,0.0,0.0,0.0,0.0,0.0,0.0,0.0,0.0,0.0,0.0,0.0,0.0,0.0,0.0,0.0,0.0,0.0,0.0,0.0,0.0,0.0,0.0,0.0,0.0,0.0,0.0,0.0,0.0,0.0,0.0,0.0,0.0,0.0,0.0,0.0,0.0,0.0,0.0,0.0,0.0,0.0,0.0,0.0,0.0,0.0,0.0,0.0,0.0,0.0,0.0,0.0,0.0,0.0,0.0,0.0,0.0,0.0,0.0,0.0,0.0,0.0,0.0,0.0,0.0,0.0,0.0,0.0,-3.7063,-3.6799,-3.7804,-3.4477,-3.2823,-3.3203,-3.18,-3.127,-3.1898,0.0,0.0,0.0,0.0,0.0,0.0,0.0,0.0,0.0,0.0,0.0,0.0,0.0,0.0,0.0,0.0,0.0,0.0,0.0,0.0,0.0,0.0,0.0,0.0,0.0,0.0,0.0,0.0,0.0,0.0,0.0,0.0,0.0,0.0,0.0,0.0,0.0,0.0,-4.8177,-4.6781,0.0,0.0,0.0,0.0,0.0,0.0,0.0,0.0,-4.2684,0.0,0.0,0.0,0.0,0.0,0.0,0.0,0.0,0.0,0.0,0.0,0.0,0.0,0.0,0.0,0.0,0.0,0.0,0.0,0.0,0.0,0.0,0.0,0.0,0.0,0.0,0.0,0.0,0.0,0.0,0.0,0.0,0.0,0.0,0.0,0.0,0.0,0.0,0.0,0.0,0.0,0.0,0.0,0.0,0.0,0.0,0.0,0.0,0.0,0.0,0.0,0.0,0.0,0.0,0.0,0.0,-3.8486,-3.7869,-3.7405,-3.7078,-3.4205,-3.2632,-3.2551,-3.1343,-3.1177,-3.2341,0.0,0.0,0.0,0.0,0.0,0.0,0.0,0.0,0.0,0.0,0.0,0.0,0.0,0.0,0.0,0.0,0.0,0.0,0.0,0.0,0.0,0.0,0.0,0.0,0.0,0.0,0.0,0.0,0.0,0.0,0.0,0.0,0.0,0.0,0.0,0.0,0.0,0.0,0.0,-4.5443,-4.444,0.0,0.0,0.0,0.0,0.0,0.0,0.0,0.0,-4.1765,0.0,0.0,0.0,0.0,0.0,0.0,0.0,0.0,0.0,0.0,0.0,0.0,0.0,0.0,0.0,0.0,0.0,0.0,0.0,0.0,0.0,0.0,0.0,0.0,0.0,0.0,0.0,0.0,0.0,0.0,0.0,0.0,0.0,0.0,0.0,0.0,0.0,0.0,0.0,0.0,0.0,0.0,0.0,0.0,0.0,0.0,0.0,0.0,0.0,0.0,0.0,0.0,0.0,0.0,0.0,-3.8856,-3.7564,-3.7028,-3.7331,-3.485,-3.3399,-3.3164,-3.2216,-3.2264,0.0,0.0,0.0,0.0,0.0,0.0,0.0,0.0,0.0,0.0,0.0,0.0,0.0,0.0,0.0,0.0,0.0,0.0,0.0,0.0,0.0,0.0,0.0,0.0,0.0,0.0,0.0,0.0,0.0,0.0,0.0,0.0,0.0,0.0,0.0,0.0,0.0,0.0,0.0,0.0,-4.5567,-4.43,-4.2876,0.0,0.0,0.0,0.0,0.0,0.0,-4.2194,-4.171,0.0,0.0,0.0,0.0,0.0,0.0,0.0,0.0,0.0,0.0,0.0,0.0,0.0,0.0,0.0,0.0,0.0,0.0,0.0,0.0,0.0,0.0,0.0,0.0,0.0,0.0,0.0,0.0,0.0,0.0,0.0,0.0,0.0,0.0,0.0,0.0,0.0,0.0,0.0,0.0,0.0,0.0,0.0,0.0,0.0,0.0,0.0,0.0,0.0,0.0,0.0,0.0,0.0,0.0,0.0,-3.9161,-3.7312,-3.6674,-3.7361,-3.5318,-3.404,-3.3706,-3.3246,-3.3451,0.0,0.0,0.0,0.0,0.0,0.0,0.0,0.0,0.0,0.0,0.0,0.0,0.0,0.0,0.0,0.0,0.0,0.0,0.0,0.0,0.0,0.0,0.0,0.0,0.0,0.0,0.0,0.0,0.0,0.0,0.0,0.0,0.0,0.0,0.0,0.0,0.0,0.0,0.0,0.0,0.0,-4.4288,-4.2147,-4.2306,0.0,0.0,0.0,0.0,-4.264,-4.2171,0.0,0.0,0.0,0.0,0.0,0.0,0.0,0.0,0.0,0.0,0.0,0.0,0.0,0.0,0.0,0.0,0.0,0.0,0.0,0.0,0.0,0.0,0.0,0.0,0.0,0.0,0.0,0.0,0.0,0.0,0.0,0.0,0.0,0.0,0.0,0.0,0.0,0.0,0.0,0.0,0.0,0.0,0.0,0.0,0.0,0.0,0.0,0.0,0.0,0.0,0.0,0.0,0.0,0.0,0.0,0.0,-3.8787,-3.8035,-3.7146,-3.6139,-3.486,-3.3794,-3.3036,-3.3661,-3.4077,0.0,0.0,0.0,0.0,0.0,0.0,0.0,0.0,0.0,0.0,0.0,0.0,0.0,0.0,0.0,0.0,0.0,0.0,0.0,0.0,0.0,0.0,0.0,0.0,0.0,0.0,0.0,0.0,0.0,0.0,0.0,0.0,0.0,0.0,0.0,0.0,0.0,0.0,0.0,0.0,0.0,-4.3895,-4.2421,-4.2093,-4.1881,0.0,0.0,-4.1953,-4.3488,-4.2998,0.0,0.0,0.0,0.0,0.0,0.0,0.0,0.0,0.0,0.0,0.0,0.0,0.0,0.0,0.0,0.0,0.0,0.0,0.0,0.0,0.0,0.0,0.0,0.0,0.0,0.0,0.0,0.0,0.0,0.0,0.0,0.0,0.0,0.0,0.0,0.0,0.0,0.0,0.0,0.0,0.0,0.0,0.0,0.0,0.0,0.0,0.0,0.0,0.0,0.0,0.0,0.0,0.0,0.0,0.0,-3.9867,-3.9264,-3.8372,-3.7436,-3.6488,-3.5412,-3.4517,-3.377,-3.4586,-3.5221,0.0,0.0,0.0,0.0,0.0,0.0,0.0,0.0,0.0,0.0,0.0,0.0,0.0,0.0,0.0,0.0,0.0,0.0,0.0,0.0,0.0,0.0,0.0,0.0,0.0,0.0,0.0,0.0,0.0,0.0,0.0,0.0,0.0,0.0,0.0,0.0,0.0,0.0,0.0,0.0,0.0,0.0,-4.1878,-4.2265,0.0,0.0,0.0,-4.2519,-4.2723,0.0,0.0,0.0,0.0,0.0,0.0,0.0,0.0,0.0,0.0,0.0,0.0,0.0,0.0,0.0,0.0,0.0,0.0,0.0,0.0,0.0,0.0,0.0,0.0,0.0,0.0,0.0,0.0,0.0,0.0,0.0,0.0,0.0,0.0,0.0,0.0,0.0,0.0,0.0,0.0,0.0,0.0,0.0,0.0,0.0,0.0,0.0,0.0,0.0,0.0,0.0,0.0,0.0,0.0,0.0,0.0,0.0,-3.9836,-3.8561,-3.7609,-3.6915,-3.5756,-3.4893,-3.4424,-3.5152,0.0,0.0,0.0,0.0,0.0,0.0,0.0,0.0,0.0,0.0,0.0,0.0,0.0,0.0,0.0,0.0,0.0,0.0,0.0,0.0,0.0,0.0,0.0,0.0,0.0,0.0,0.0,-4.3064,0.0,0.0,0.0,0.0,0.0,0.0,0.0,0.0,0.0,0.0,0.0,0.0,0.0,0.0,-4.437,-4.1488,-4.2323,-4.2537,0.0,0.0,-4.2942,-4.2342,-4.2882,-4.3055,0.0,0.0,0.0,0.0,0.0,0.0,0.0,0.0,0.0,0.0,0.0,0.0,0.0,0.0,0.0,0.0,0.0,0.0,0.0,0.0,0.0,0.0,0.0,0.0,0.0,0.0,0.0,0.0,0.0,0.0,0.0,0.0,0.0,0.0,0.0,0.0,0.0,0.0,0.0,0.0,0.0,0.0,0.0,0.0,0.0,0.0,0.0,0.0,0.0,0.0,0.0,0.0,0.0,0.0,-4.0913,-4.0253,-3.8767,-3.7664,-3.7008,-3.5322,-3.4443,-3.4395,-3.4889,-3.5509,0.0,0.0,0.0,0.0,0.0,0.0,0.0,0.0,0.0,0.0,0.0,0.0,0.0,0.0,0.0,0.0,0.0,0.0,0.0,0.0,0.0,0.0,0.0,0.0,0.0,0.0,0.0,0.0,0.0,0.0,0.0,0.0,0.0,0.0,0.0,0.0,0.0,0.0,0.0,0.0,0.0,-4.4133,-4.1621,-4.2179,-4.2718,0.0,-4.2474,-4.2688,-4.3044,-4.3573,-4.3501,-4.2269,0.0,0.0,0.0,0.0,0.0,0.0,0.0,0.0,0.0,0.0,0.0,0.0,0.0,0.0,0.0,0.0,0.0,0.0,0.0,0.0,0.0,0.0,0.0,0.0,0.0,0.0,0.0,0.0,0.0,0.0,0.0,0.0,0.0,0.0,0.0,0.0,0.0,0.0,0.0,0.0,0.0,0.0,0.0,0.0,0.0,0.0,0.0,0.0,0.0,0.0,0.0,0.0,0.0,-4.161,-4.0932,-3.9382,-3.8294,-3.7557,-3.5518,-3.438,-3.438,-3.4845,-3.5551,0.0,0.0,0.0,0.0,0.0,0.0,0.0,0.0,0.0,0.0,0.0,0.0,0.0,0.0,0.0,0.0,0.0,0.0,0.0,0.0,0.0,0.0,0.0,0.0,0.0,0.0,0.0,0.0,-4.3053,-4.2462,-4.1958,0.0,0.0,0.0,0.0,0.0,0.0,0.0,0.0,0.0,0.0,-4.3253,-4.1381,-4.2122,0.0,0.0,-4.2653,-4.3136,-4.2545,-4.3136,-4.3234,-4.1918,-4.2208,0.0,0.0,0.0,0.0,0.0,0.0,0.0,0.0,0.0,0.0,0.0,0.0,0.0,0.0,0.0,0.0,0.0,0.0,0.0,0.0,0.0,0.0,0.0,0.0,0.0,0.0,0.0,0.0,0.0,0.0,0.0,0.0,0.0,0.0,0.0,0.0,0.0,0.0,0.0,0.0,0.0,0.0,0.0,0.0,0.0,0.0,0.0,0.0,0.0,0.0,0.0,0.0,-4.1821,-4.1289,-3.9613,-3.8527,-3.8043,-3.5766,-3.4549,-3.4549,-3.4864,-3.549,0.0,0.0,0.0,0.0,0.0,0.0,0.0,0.0,0.0,0.0,0.0,0.0,0.0,0.0,0.0,0.0,0.0,0.0,0.0,0.0,0.0,0.0,0.0,0.0,0.0,0.0,0.0,0.0,-4.3106,-4.2455,-4.1607,0.0,0.0,0.0,0.0,0.0,0.0,0.0,0.0,0.0,0.0,-4.2424,-4.1167,-4.1863,-4.2381,-4.1808,-4.2691,-4.3126,-4.23,-4.2612,-4.2654,-4.1799,0.0,0.0,0.0,0.0,0.0,0.0,0.0,0.0,0.0,0.0,0.0,0.0,0.0,0.0,0.0,0.0,0.0,0.0,0.0,0.0,0.0,0.0,0.0,0.0,0.0,0.0,0.0,-4.1898,0.0,0.0,-4.2109,0.0,0.0,0.0,0.0,0.0,0.0,0.0,0.0,0.0,0.0,0.0,0.0,0.0,0.0,0.0,0.0,0.0,0.0,0.0,0.0,0.0,0.0,-4.1304,-4.1257,-3.9279,-3.8213,-3.8105,-3.6036,-3.4902,-3.4902,-3.4931,-3.5341,-3.6208,0.0,0.0,0.0,0.0,0.0,0.0,0.0,0.0,0.0,0.0,0.0,0.0,0.0,0.0,0.0,0.0,0.0,0.0,0.0,0.0,0.0,0.0,0.0,0.0,0.0,0.0,-4.1415,-4.1122,-4.0904,0.0,0.0,0.0,0.0,0.0,0.0,0.0,0.0,0.0,-4.2011,-4.1902,-4.1766,-4.1014,-4.1439,-4.2127,-4.2799,-4.2606,-4.2414,-4.2546,-4.2104,-4.1791,0.0,0.0,0.0,0.0,0.0,0.0,0.0,0.0,0.0,0.0,0.0,0.0,0.0,0.0,0.0,0.0,0.0,0.0,0.0,0.0,0.0,0.0,0.0,0.0,0.0,0.0,0.0,-4.2476,-4.2572,0.0,0.0,0.0,0.0,0.0,0.0,0.0,0.0,0.0,0.0,0.0,-4.2539,-4.2476,0.0,0.0,0.0,0.0,0.0,0.0,0.0,0.0,0.0,0.0,0.0,0.0,-4.1147,-4.0785,-3.9108,-3.7997,-3.7497,-3.5809,-3.4902,-3.4902,-3.4902,-3.558,-3.6964,0.0,0.0,0.0,0.0,0.0,0.0,0.0,0.0,0.0,0.0,0.0,0.0,0.0,0.0,0.0,0.0,0.0,0.0,0.0,0.0,0.0,0.0,0.0,0.0,0.0,-4.2856,0.0,0.0,0.0,0.0,0.0,0.0,0.0,0.0,0.0,0.0,-4.2795,-4.2945,-4.1389,-4.1511,-4.1677,-4.1292,-4.1637,-4.2088,0.0,0.0,0.0,0.0,0.0,0.0,0.0,0.0,0.0,0.0,0.0,0.0,0.0,0.0,-3.9975,-4.0157,-3.9954,-3.9797,-4.0151,0.0,0.0,0.0,0.0,0.0,0.0,0.0,0.0,0.0,0.0,0.0,0.0,0.0,0.0,-4.2713,-4.2713,-4.2523,0.0,0.0,0.0,0.0,0.0,0.0,0.0,0.0,-4.2507,-4.268,-4.2772,-4.2789,-4.2789,-4.2772,-4.2664,-4.2365,0.0,0.0,0.0,0.0,0.0,0.0,0.0,0.0,-4.0388,-4.0007,-3.8435,-3.7375,-3.6888,-3.5719,-3.5115,-3.5115,-3.5365,-3.6222,-3.7713,-3.8894,-3.985,0.0,0.0,0.0,0.0,0.0,0.0,0.0,0.0,0.0,0.0,0.0,0.0,0.0,0.0,0.0,0.0,0.0,0.0,0.0,0.0,0.0,0.0,0.0,-4.1818,0.0,0.0,0.0,0.0,0.0,0.0,0.0,0.0,0.0,-4.0798,-4.1715,-4.1848,-4.0521,-4.1057,-4.1457,-4.1221,0.0,0.0,0.0,0.0,0.0,0.0,0.0,-4.1464,-4.072,-4.0484,-4.0007,-3.889,-3.8374,-3.8235,-3.8452,0.0,0.0,-3.916,-3.8881,-3.8808,-3.9412,-3.9501,-3.953,-3.9668,-4.0094,-4.0389,0.0,0.0,0.0,0.0,-4.2899,0.0,0.0,0.0,-4.2947,-4.2728,0.0,-4.2601,0.0,0.0,0.0,0.0,-4.2445,-4.2728,0.0,0.0,-4.3232,-4.3369,-4.3143,-4.308,-4.308,-4.3113,-4.2821,-4.2618,-4.2553,-4.1858,0.0,0.0,0.0,0.0,0.0,0.0,-3.914,-3.8933,-3.7343,-3.643,-3.6352,-3.5797,-3.5504,-3.5554,-3.6275,-3.7233,-3.8451,-3.9044,-3.9622,-4.0271,-4.1705,0.0,0.0,0.0,0.0,0.0,0.0,0.0,0.0,0.0,0.0,0.0,0.0,0.0,0.0,0.0,0.0,0.0,0.0,0.0,0.0,-4.1086,0.0,0.0,0.0,0.0,0.0,0.0,0.0,0.0,0.0,-4.0148,-4.0905,-4.12,-4.0847,-3.9586,0.0,0.0,0.0,0.0,-4.1775,-4.2006,-4.1861,-4.1574,-4.1301,-4.0946,-4.0599,-4.0091,0.0,0.0,-3.7883,-3.7429,-3.7262,-3.7886,-3.7973,-3.8212,-3.9181,-3.8753,-3.8572,-3.9238,-3.9239,-3.9169,-3.9246,-3.9614,-3.984,-4.2288,0.0,0.0,0.0,0.0,-4.3068,-4.3129,-4.3251,-4.3267,-4.319,-4.3129,-4.3143,0.0,0.0,0.0,0.0,0.0,0.0,-4.2789,-4.2941,-4.2632,-4.2815,-4.3446,-4.2917,-4.295,-4.3446,-4.3342,-4.3052,-4.2584,-4.1857,-4.1719,-4.2077,0.0,0.0,0.0,0.0,-3.9374,-3.8325,-3.7511,-3.6662,-3.5765,-3.5587,-3.5735,-3.629,-3.7467,-3.8258,-3.8635,-3.9253,-3.9812,-4.0293,-4.0816,0.0,0.0,0.0,0.0,0.0,0.0,0.0,0.0,0.0,0.0,0.0,0.0,0.0,0.0,0.0,0.0,0.0,0.0,0.0,-4.1761,-4.0867,-3.9999,0.0,0.0,0.0,0.0,0.0,0.0,0.0,0.0,0.0,-4.0773,-4.1041,-4.1166,0.0,0.0,-4.133,-4.1692,-4.1499,-4.1379,-4.1507,-4.1086,0.0,-4.0161,-3.9775,-3.9261,-3.8385,-3.7284,-3.6762,-3.7475,-3.6806,-3.6425,-3.7202,-3.7896,-3.8372,-3.8411,-3.7748,-3.7703,-3.8817,-3.8741,-3.8575,-3.9291,-3.985,-4.0304,-4.1822,-4.2244,-4.255,-4.2726,-4.2758,-4.2506,-4.2491,-4.2679,-4.299,-4.3052,-4.2974,-4.3342,-4.3312,-4.3021,-4.2959,0.0,0.0,0.0,-4.2811,-4.2851,-4.2407,-4.238,-4.2671,-4.2286,-4.2307,-4.2728,-4.2512,-4.2164,-4.174,-4.1112,-4.0938,-4.1245,0.0,-4.0891,-4.0293,-3.9887,-3.9085,-3.7935,-3.7279,-3.6554,-3.5604,-3.591,-3.6492,-3.7424,-3.8298,-3.8908,-3.9156,-3.9618,-3.9982,-4.0207,-4.0411,-4.1072,0.0,0.0,0.0,0.0,0.0,0.0,0.0,0.0,0.0,0.0,0.0,-4.7412,-4.6525,0.0,0.0,0.0,-4.2269,-4.1001,-4.0308,-3.9767,0.0,0.0,0.0,0.0,0.0,0.0,0.0,-4.0307,-4.0646,-4.0854,-4.0916,-4.0774,-4.0798,-4.0939,-4.1149,-4.1227,-4.1232,0.0,-4.1088,-4.1092,-4.0394,-3.9773,-3.9443,-3.886,-3.8061,-3.6968,-3.5913,-3.5509,-3.641,-3.6126,-3.6057,-3.6669,-3.7423,-3.8037,-3.8264,-3.7579,-3.7358,-3.8756,-3.8626,-3.8475,-3.9141,-3.9703,-4.0168,-4.1056,-4.1082,-4.1646,-4.2029,-4.2173,-4.1528,-4.1379,-4.1656,-4.2252,-4.2425,-4.2394,-4.3087,-4.321,-4.288,-4.2676,0.0,-4.3143,-4.3127,-4.29,-4.2506,-4.244,-4.2092,-4.148,-4.1335,-4.1349,-4.15,-4.0802,-4.0484,-4.0404,-3.999,-3.9796,-3.9888,-3.9904,-3.9705,-3.9267,-3.91,-3.8583,-3.781,-3.7002,-3.6352,-3.5896,-3.6631,-3.7587,-3.8646,-3.8881,-3.9279,-3.9901,-4.0037,-4.0113,-4.0104,-4.0366,-4.0882,-4.166,0.0,0.0,0.0,0.0,0.0,0.0,0.0,0.0,0.0,0.0,0.0,0.0,0.0,0.0,-4.282,-4.0617,0.0,-3.8865,-3.8317,0.0,0.0,0.0,-3.945,-4.0722,-4.074,-4.1113,-4.2242,0.0,0.0,-4.1124,-4.0431,-3.9929,-3.9948,-4.0673,-4.0885,-4.0094,-4.0494,-4.0797,-4.0717,-3.9778,-3.9013,-3.8801,-3.7863,-3.6732,-3.579,-3.495,-3.4698,-3.5256,-3.5574,-3.5902,-3.6199,-3.6777,-3.7415,-3.823,-3.7867,-3.7893,-3.8639,-3.8701,-3.8632,-3.8762,-3.9073,-3.9353,-3.9656,-3.9724,-4.0013,-4.0723,-4.1626,-4.0973,-4.131,-4.2284,-4.1924,-4.202,-4.2423,-4.2072,-4.2167,-4.2607,-4.2532,-4.2875,-4.3492,-4.3462,-4.3125,-4.2473,-4.1939,-4.1844,-4.2158,-4.0623,-4.0479,-4.148,-4.0848,-4.0212,-3.9692,-4.0044,-3.9827,-3.9076,-3.9596,-3.992,-3.9951,-3.9761,-3.9286,-3.8548,-3.8344,-3.7935,-3.7324,-3.8048,-3.858,-3.8827,-3.9489,-3.9901,-4.0062,-4.007,-4.0113,-4.0113,-4.0257,-4.0542,-4.0946,-4.1898,0.0,0.0,0.0,0.0,0.0,0.0,0.0,0.0,0.0,-4.4876,-4.2993,0.0,-4.2537,0.0,-4.0224,-3.9504,-3.947,-3.8777,0.0,0.0,-3.8458,-3.872,-3.9553,-4.0651,-4.113,-4.05,-4.1293,-4.1534,-4.0716,-3.9776,-3.932,-3.9521,-3.9923,-4.0332,-4.052,-4.0498,-4.0379,-4.0049,-3.911,-3.8178,-3.7449,-3.6129,-3.5073,-3.4756,-3.4522,-3.4607,-3.5195,-3.5378,-3.5583,-3.5954,-3.72,-3.7787,-3.7201,-3.7934,-3.8496,-3.8272,-3.8096,-3.8227,-3.8572,-3.839,-3.8156,-3.8854,-3.8852,-3.8994,-3.9468,-4.0121,-4.0044,-4.0257,-4.0705,-4.0896,-4.0845,-4.0586,-4.0474,-4.0524,-4.0676,-4.1005,-4.1185,-4.13,-4.1612,-4.1317,-4.0569,-4.0183,-4.0183,-4.0553,-3.9399,-3.9462,-4.0523,-3.986,-3.9315,-3.8996,-3.9299,-3.9328,-3.9119,-3.9508,-4.0008,-4.055,-4.0208,-3.9698,-3.9009,-3.863,-3.8421,-3.8306,-3.8761,-3.9224,-3.9609,-3.9954,-4.0201,-4.0303,-4.003,-3.9997,-4.0303,-4.0084,-4.0153,-4.0623,-4.12,-4.1423,0.0,0.0,0.0,0.0,0.0,0.0,0.0,0.0,0.0,0.0,0.0,-4.192,-4.0393,-3.9444,-3.8979,-3.9038,-3.8525,-3.8341,-3.8752,-3.904,-3.9602,-4.0554,-4.145,-4.182,-4.1483,-4.1688,-4.1375,-4.0134,-3.9511,-3.9011,-3.859,-3.8679,-3.89,-3.9218,-3.9349,-3.9393,-3.9222,-3.8321,-3.7179,-3.6002,-3.5019,-3.4397,-3.4397,-3.4397,-3.4515,-3.4855,-3.5064,-3.5234,-3.543,-3.6431,-3.7119,-3.643,-3.7038,-3.7683,-3.7597,-3.7221,-3.7245,-3.7676,-3.7462,-3.7248,-3.845,-3.8404,-3.8552,-3.8635,-3.8732,-3.9279,-3.9055,-3.8385,-3.9706,-3.9382,-3.7979,-3.8619,-3.863,-3.8213,-3.8938,-3.8999,-3.859,-3.9328,-3.9224,-3.8484,-3.8477,-3.8498,-3.8464,-3.8296,-3.8593,-3.9295,-3.8621,-3.8332,-3.8407,-3.8415,-3.8848,-3.9597,-3.9588,-4.0083,-4.0955,-4.0524,-3.9951,-3.9393,-3.8745,-3.863,-3.9116,-3.9269,-3.9731,-4.047,-4.0276,-4.0291,-4.0488,-3.9891,-3.9842,-4.0413,-3.9891,-3.9807,-4.0375,-4.0338,-4.034,0.0,-4.0565,0.0,0.0,0.0,0.0,0.0,0.0,0.0,0.0,-4.2466,-4.1454,-3.9469,-3.8775,-3.835,-3.8288,-3.8219,-3.8375,-3.8907,-3.9813,-4.0895,-4.2124,-4.2211,-4.2404,-4.3091,-4.1956,-4.0651,-3.9463,-3.9194,-3.8661,-3.7584,-3.7351,-3.7357,-3.7246,-3.7829,-3.8322,-3.8347,-3.756,-3.6503,-3.5142,-3.4551,-3.4437,-3.4489,-3.4554,-3.4502,-3.4567,-3.4838,-3.4977,-3.4917,-3.5452,-3.5854,-3.5732,-3.5952,-3.6288,-3.674,-3.6405,-3.6205,-3.6607,-3.6512,-3.6102,-3.843,-3.8461,-3.9042,-3.961,-4.0109,-4.0186,-3.9515,-3.8434,-3.9186,-3.8382,-3.6621,-3.6722,-3.6804,-3.6953,-3.8084,-3.8833,-3.9361,-4.0479,-4.0634,-3.9995,-3.9967,-3.9963,-3.9907,-3.882,-3.8675,-3.9314,-3.8654,-3.8286,-3.8318,-3.8854,-3.9331,-3.9752,-3.9907,-4.0229,-4.0668,0.0,0.0,0.0,-4.014,-4.0106,-4.0198,-4.0287,-4.0417,-4.0547,-4.0205,0.0,-4.0114,-3.9865,-3.9804,-3.9932,-3.9879,0.0,0.0,0.0,0.0,0.0,0.0,0.0,0.0,0.0,0.0,0.0,-3.9637,-3.9927,-4.0382,-4.0652,-4.0274,-3.8993,-3.9519,-3.9649,-3.8933,-3.9294,-3.9661,-3.9747,-3.9823,-4.0211,-4.1146,-4.1019,-4.0932,-4.1191,-4.0371,-3.9484,-3.8691,-3.8138,-3.7524,-3.6772,-3.6656,-3.6432,-3.592,-3.6862,-3.7778,-3.8182,-3.7515,-3.6568,-3.5588,-3.484,-3.4567,-3.4959,-3.5129,-3.5103,-3.5129,-3.5375,-3.5258,-3.4702,-3.5185,-3.5673,-3.5431,-3.5752,-3.5994,-3.6134,-3.5963,-3.6062,-3.6548,-3.569,-3.4751,-3.8326,-3.8987,-3.9342,-3.9882,0.0,-4.0817,-3.9745,-3.7857,-3.8486,-3.7591,-3.5623,-3.4973,-3.4771,-3.4924,-3.6262,-3.7021,-3.7394,-3.8727,-3.9122,-3.8775,-3.8758,-3.8962,-3.9301,-3.8581,-3.8655,-3.9331,-3.8977,-3.8843,-3.8925,-3.9228,-3.9744,-4.0381,-4.0147,-4.0303,-4.0884,-4.0525,-4.037,-4.0422,-4.037,-4.035,-4.0282,-4.035,-4.0287,-4.0105,-3.9809,0.0,0.0,0.0,0.0,0.0,0.0,0.0,0.0,-3.9266,0.0,-3.9076,-3.9439,-3.9748,-4.0019,-3.9727,-3.9627,-3.9814,-4.0077,-4.0316,-4.0511,-4.0722,-4.0585,-4.005,-4.0402,-4.0377,-3.9595,-3.9798,-4.0011,-4.0026,-4.0213,-4.0525,-4.0855,-4.0513,-4.0179,-4.0088,-3.9234,-3.8287,-3.7573,-3.6827,-3.6119,-3.551,-3.5088,-3.4918,-3.5064,-3.6365,-3.7496,-3.7623,-3.7305,-3.645,-3.5305,-3.4716,-3.4607,-3.5116,-3.5051,-3.4999,-3.5247,-3.5201,-3.4949,-3.4512,-3.4835,-3.504,-3.4875,-3.4821,-3.4838,-3.4965,-3.4674,-3.4585,-3.5055,-3.474,-3.4299,-3.8648,-3.9699,-3.9809,-4.0159,-4.0721,-4.1134,-3.9677,-3.7053,-3.7337,0.0,0.0,-3.3609,-3.3208,-3.336,-3.4809,-3.5497,-3.5616,-3.6988,-3.7566,-3.7525,-3.75,-3.7807,-3.8374,-3.842,-3.8739,-3.9325,-3.9331,-3.9405,-3.9528,-3.9554,-3.9953,-4.0675,-4.0187,-4.0281,-4.0933,-4.0417,-4.0127,-4.0192,-4.0216,-4.0217,-4.0163,-4.0092,-3.9895,-3.9632,-3.9277,-3.8978,-3.869,-3.8098,-3.8004,-3.8577,-3.8051,-3.7975,-3.8487,-3.8731,-3.8794,-3.8736,-3.9135,-3.949,-3.9748,-3.9782,-3.9998,-4.0436,-4.1014,-4.1352,-4.1479,-4.1608,-4.1641,-4.1509,-4.136,-4.1026,-4.0509,-4.0331,-4.0261,-4.0261,-4.0751,-4.099,-4.0725,-4.0147,-3.9632,-3.9315,-3.828,-3.7211,-3.6428,-3.5639,-3.4931,-3.4349,-3.3935,-3.3684,-3.4603,-3.6074,-3.7113,-3.7086,-3.6817,-3.6175,-3.5179,-3.4677,-3.4816,-3.5547,-3.5168,-3.4907,-3.5208,-3.4959,-3.4567,-3.4437,-3.4397,-3.4353,-3.4256,-3.3874,-3.3528,-3.3847,-3.3369,-3.2972,-3.3516,-3.3918,-3.3956,-4.0163,-4.0415,-4.0992,-4.1269,-4.1312,-4.0808,-3.8925,-3.6307,-3.5169,-3.3963,-3.278,-3.3087,-3.3289,-3.3544,-3.5412,-3.6592,-3.7253,-3.8576,-3.9163,-3.9159,-3.9053,-3.9046,-3.9131,-3.9146,-3.9249,-3.9458,-3.9455,-3.9537,-3.9651,-3.9677,-3.9822,-4.0035,-3.9951,-4.0028,-4.0223,-4.0163,-4.0096,-4.0112,-4.0351,-4.0457,-4.0454,-4.0008,-3.9756,-3.9638,-3.8793,-3.8354,-3.8264,-3.7992,-3.7922,-3.8013,-3.7922,-3.773,-3.7453,-3.7497,-3.7299,-3.6906,-3.6952,-3.7234,-3.7791,-3.779,-3.8581,-4.0208,-4.0518,-4.1051,-4.2234,-4.2862,-4.2953,-4.2411,-4.2237,-4.2269,-4.2109,-4.1542,-4.1176,-4.1209,-4.1221,-4.086,-3.9902,-3.9348,-3.8884,-3.8364,-3.7412,-3.6485,-3.5605,-3.4889,-3.4341,-3.4158,-3.3936,-3.4351,-3.5257,-3.6035,-3.6577,-3.6907,-3.6417,-3.602,-3.5815,-3.5595,-3.5594,-3.6606,-3.6136,-3.5691,-3.5822,-3.5391,-3.4894,-3.4476,-3.4397,-3.4189,-3.3738,-3.3484,-3.3258,-3.3132,-3.2815,-3.2877,-3.3238,-3.3426,-3.3457,-4.0458,-4.0531,-4.1191,-4.1485,-4.134,-3.9886,-3.8131,-3.6249,-3.5187,-3.4265,-3.3548,-3.4108,-3.4646,-3.5186,-3.6416,-3.7363,-3.8015,-3.8615,-3.9075,-3.9345,-3.8944,-3.896,-3.9388,-3.9422,-3.9484,-3.9573,-3.9616,-3.9694,-3.9781,-3.9824,-3.9858,-3.9986,-4.0011,-4.0037,-4.0113,-4.0113,-3.9944,-3.9618,-3.9724,-3.9783,-3.98,-3.9219,-3.88,-3.8486,-3.7981,-3.7591,-3.7256,-3.7175,-3.7143,-3.7143,-3.7143,-3.7038,-3.6842,-3.7149,-3.7242,-3.7076,-3.7701,-3.8216,-3.8478,-3.9122,-3.9748,-4.0383,-4.1086,-4.1602,-4.192,-4.2572,-4.2814,-4.252,-4.2173,-4.1804,-4.1459,-4.1142,-4.0956,-4.0956,-4.0525,-4.0171,-3.9821,-3.8666,-3.7898,-3.7703,-3.6488,-3.5366,-3.4816,-3.41,-3.3575,-3.3537,-3.3711,-3.4303,-3.5168,-3.5353,-3.5633,-3.6182,-3.5957,-3.5616,-3.546,-3.5387,-3.5551,-3.6031,-3.5861,-3.5678,-3.5626,-3.5195,-3.475,-3.4476,-3.4397,-3.4147,-3.3539,-3.3043,-3.2739,-3.246,-3.2301,-3.2425,-3.2759,-3.3063,-3.3269,-4.0415,-4.0469,-4.1005,-4.104,-4.056,-3.8849,-3.745,-3.6397,-3.6126,-3.5625,-3.5099,-3.5429,-3.5996,-3.6672,-3.7429,-3.8081,-3.8593,-3.8635,-3.8883,-3.9269,-3.8761,-3.8847,-3.9451,-3.9528,-3.9616,-3.9729,-3.9755,-3.9807,-3.991,-3.9952,-4.0011,-4.007,-4.0113,-4.0113,-4.0113,-3.9969,-3.9653,-3.9206,-3.892,-3.8882,-3.8974,-3.8407,-3.7819,-3.7209,-3.7189,-3.6905,-3.6338,-3.6399,-3.6492,-3.6492,-3.6492,-3.6492,-3.6522,-3.6984,-3.7325,-3.7544,-3.8278,-3.8795,-3.9029,-4.0151,-4.0721,-4.0445,-4.1498,-4.2061,-4.1819,-4.2009,-4.2332,-4.2395,-4.1901,-4.1376,-4.1057,-4.0802,-4.0681,-4.0581,-3.9924,-3.9637,-3.9738,-3.8083,-3.692,-3.7101,-3.5688,-3.4452,-3.412,-3.3586,-3.3244,-3.3284,-3.3586,-3.4136,-3.4579,-3.466,-3.4888,-3.5305,-3.5467,-3.5262,-3.4693,-3.4972,-3.5338,-3.5417,-3.5391,-3.5365,-3.5247,-3.4829,-3.445,-3.4356,-3.423,-3.3942,-3.3409,-3.2754,-3.2309,-3.2169,-3.2134,-3.217,-3.2687,-3.3028,-3.3269,-4.0407,-4.0413,-4.0475,-3.9741,-3.8655,-3.7844,-3.712,-3.6626,-3.7625,-3.7762,-3.6961,-3.6507,-3.6743,-3.7431,-3.8164,-3.877,-3.9318,-3.9385,-3.9385,-3.9458,-3.9408,-3.9435,-3.9511,-3.9642,-3.9755,-3.9875,-3.9901,-3.9935,-4.0062,-4.0087,-4.007,-4.0113,-4.0113,-4.007,-4.0037,-3.9549,-3.9259,-3.9179,-3.8112,-3.7825,-3.8322,-3.7796,-3.7175,-3.65,-3.6534,-3.6292,-3.5645,-3.6184,-3.6492,-3.6492,-3.6492,-3.6492,-3.6507,-3.6553,-3.6847,-3.7364,-3.7048,-3.7002,-3.7624,-3.8785,-3.9732,-4.0383,-4.0984,-4.1662,-4.2136,-4.1708,-4.1739,-4.2109,-4.1836,-4.1575,-4.2029,-4.1525,-4.1008,-4.0789,-4.0249,-3.9743,-3.9032,-3.7255,-3.6119,-3.6459,-3.5252,-3.4225,-3.3936,-3.3729,-3.3654,-3.3582,-3.3936,-3.4291,-3.4464,-3.4545,-3.464,-3.495,-3.4867,-3.4829,-3.5028,-3.5234,-3.546,-3.5783,-3.5587,-3.5325,-3.5116,-3.4776,-3.4369,-3.4289,-3.3972,-3.3584,-3.3106,-3.2563,-3.219,-3.2357,-3.245,-3.2581,-3.304,-3.3235,-3.3281,-4.0151,-3.9806,-4.0233,-3.9862,-3.8922,-3.8216,-3.7805,-3.7689,-3.7684,-3.7829,-3.7942,-3.7274,-3.7579,-3.8662,-3.8559,-3.8853,-3.9401,-3.8611,-3.8685,-3.9401,-3.9051,-3.9146,-3.9729,-3.9798,-3.9884,-4.0011,-4.0011,-4.0037,-4.0113,-4.0113,-4.0113,-4.0113,-4.0113,-3.9918,-3.9592,-3.9312,-3.8865,-3.8124,-3.7252,-3.6772,-3.6609,-3.6404,-3.5957,-3.5352,-3.5302,-3.5213,-3.5013,-3.5568,-3.5891,-3.5922,-3.6276,-3.6492,-3.6492,-3.6492,-3.6785,-3.7342,-3.7549,-3.7679,-3.7895,-3.8411,-3.8689,-3.8658,-3.9253,-3.9737,-3.9941,-3.9984,-4.0321,-4.0844,-4.0786,-4.0734,-4.0922,-4.0699,-4.0524,-4.0328,-3.9738,-3.9085,-3.8656,-3.7099,-3.6083,-3.6025,-3.4869,-3.3943,-3.3815,-3.3738,-3.378,-3.3981,-3.428,-3.4384,-3.4439,-3.466,-3.4743,-3.4688,-3.4729,-3.4905,-3.5154,-3.5471,-3.5463,-3.5241,-3.5234,-3.5234,-3.4786,-3.462,-3.435,-3.4251,-3.3941,-3.3514,-3.301,-3.2785,-3.2512,-3.2642,-3.2822,-3.304,-3.3258,-3.3281,-3.3281,-3.9812,-3.9388,-3.9699,-3.9547,-3.9052,-3.8549,-3.8379,-3.8365,-3.7769,-3.8008,-3.8653,-3.7753,-3.8086,-3.9225,-3.8718,-3.8702,-3.8966,-3.8269,-3.8452,-3.9394,-3.9013,-3.9201,-3.9884,-3.9952,-4.0011,-4.0037,-3.9893,-3.9791,-3.9808,-3.9808,-3.9893,-4.0037,-3.9944,-3.9644,-3.9199,-3.8782,-3.8019,-3.7157,-3.6308,-3.5564,-3.5026,-3.4922,-3.4675,-3.4274,-3.4412,-3.4412,-3.4243,-3.5044,-3.5491,-3.5507,-3.6122,-3.6569,-3.6754,-3.6739,-3.6952,-3.7358,-3.778,-3.7982,-3.7809,-3.7985,-3.7891,-3.7554,-3.8012,-3.8323,-3.8299,-3.8571,-3.8941,-3.9313,-3.9461,-3.9632,-3.991,-3.9925,-3.9818,-3.9508,-3.8775,-3.8218,-3.7926,-3.6558,-3.5586,-3.568,-3.4605,-3.3803,-3.3899,-3.3899,-3.4007,-3.4293,-3.4384,-3.4481,-3.4564,-3.4784,-3.4825,-3.4771,-3.4977,-3.499,-3.4975,-3.5116,-3.5044,-3.4743,-3.4663,-3.4567,-3.4296,-3.4224,-3.4135,-3.3922,-3.3877,-3.3736,-3.3262,-3.3019,-3.2805,-3.279,-3.2914,-3.3086,-3.2994,-3.2982,-3.2868,-3.9332,-3.9218,-3.865,-3.8504,-3.8371,-3.8367,-3.8334,-3.8414,-3.8312,-3.8674,-3.8904,-3.7835,-3.8035,-3.9126,-3.8609,-3.8341,-3.8404,-3.8966,-3.9311,-3.9537,-3.9705,-3.9825,-3.9926,-4.0037,-4.007,-4.0045,-3.9469,-3.9123,-3.9114,-3.9073,-3.9411,-3.9961,-3.9432,-3.9166,-3.8793,-3.7371,-3.6537,-3.6342,-3.5299,-3.433,-3.3686,-3.3594,-3.3578,-3.3563,-3.4104,-3.4104,-3.3675,-3.4767,-3.546,-3.5475,-3.6168,-3.6738,-3.7252,-3.7342,-3.7387,-3.7417,-3.7431,-3.7208,-3.6832,-3.7188,-3.7465,-3.751,-3.7829,-3.8233,-3.8088,-3.7928,-3.788,-3.7843,-3.8327,-3.8802,-3.9531,-3.9687,-3.9307,-3.8509,-3.7784,-3.7341,-3.6989,-3.5457,-3.4699,-3.5181,-3.4513,-3.3962,-3.4286,-3.4387,-3.4361,-3.4426,-3.4439,-3.4564,-3.4949,-3.4771,-3.4853,-3.5223,-3.5236,-3.4949,-3.4564,-3.4765,-3.4669,-3.4386,-3.4105,-3.3746,-3.3739,-3.3695,-3.367,-3.3567,-3.3392,-3.3346,-3.3387,-3.3275,-3.2989,-3.2868,-3.2764,-3.2799,-3.2925,-3.2248,-3.2225,-3.9315,-3.9272,-3.905,-3.8925,-3.8925,-3.8942,-3.898,-3.8995,-3.851,-3.815,-3.7943,-3.7402,-3.7219,-3.7361,-3.8102,-3.8626,-3.899,-3.8876,-3.9139,-3.9696,-3.9875,-3.9952,-3.9986,-3.9631,-3.9673,-3.9943,-3.9343,-3.8988,-3.8988,-3.8988,-3.868,-3.8187,-3.7985,-3.7528,-3.6782,-3.6135,-3.5739,-3.5603,-3.4764,-3.4329,-3.4333,-3.3691,-3.3282,-3.3271,-3.3178,-3.3013,-3.2767,-3.3998,-3.4664,-3.4679,-3.6105,-3.7039,-3.7287,-3.7712,-3.778,-3.7431,-3.7401,-3.7118,-3.6616,-3.6613,-3.6673,-3.6688,-3.676,-3.701,-3.7198,-3.7156,-3.7173,-3.7447,-3.7618,-3.8098,-3.8732,-3.9247,-3.9156,-3.836,-3.7962,-3.7305,-3.6353,-3.5435,-3.5035,-3.4872,-3.4367,-3.4214,-3.4319,-3.4397,-3.4522,-3.4784,-3.4825,-3.5018,-3.5358,-3.5304,-3.5182,-3.5223,-3.5195,-3.4949,-3.4468,-3.4688,-3.4726,-3.4323,-3.4025,-3.3884,-3.3792,-3.365,-3.3634,-3.3573,-3.3268,-3.3195,-3.3389,-3.3296,-3.3086,-3.3063,-3.296,-3.2787,-3.2994,-3.2454,-3.2538,-3.9315,-3.9299,-3.9369,-3.9325,-3.9299,-3.9352,-3.9246,-3.9006,-3.8231,-3.7759,-3.7561,-3.707,-3.7019,-3.759,-3.837,-3.9219,-3.991,-3.9286,-3.9234,-3.9867,-3.9952,-4.0011,-4.0003,-3.9588,-3.9622,-3.9876,-3.9089,-3.8576,-3.8361,-3.8143,-3.7603,-3.6874,-3.6678,-3.6285,-3.5687,-3.5249,-3.5051,-3.505,-3.4749,-3.4707,-3.4962,-3.4493,-3.4181,-3.417,-3.384,-3.3416,-3.3096,-3.4415,-3.519,-3.5404,-3.6715,-3.7637,-3.7867,-3.8059,-3.8023,-3.7634,-3.7193,-3.68,-3.6414,-3.6211,-3.6148,-3.6116,-3.6005,-3.6058,-3.6351,-3.633,-3.6472,-3.675,-3.7045,-3.734,-3.7688,-3.8269,-3.8436,-3.7838,-3.7567,-3.6819,-3.5507,-3.5264,-3.4965,-3.4579,-3.4426,-3.4384,-3.4397,-3.4535,-3.4729,-3.5072,-3.5061,-3.5157,-3.5588,-3.5359,-3.5251,-3.5114,-3.4949,-3.4743,-3.4434,-3.4497,-3.4556,-3.4168,-3.3531,-3.3506,-3.372,-3.3601,-3.3515,-3.3504,-3.3496,-3.3403,-3.3345,-3.3296,-3.3281,-3.3269,-3.2982,-3.2718,-3.2776,-3.2814,-3.271,-3.9332,-3.9325,-3.9432,-3.9422,-3.9325,-3.9422,-3.8997,-3.8337,-3.7632,-3.7826,-3.817,-3.706,-3.7988,-3.9644,-3.9593,-4.0048,-4.0764,-4.0116,-3.9809,-4.0011,-4.0096,-4.0121,-4.0079,-3.9943,-3.9876,-3.9918,-3.8642,-3.7724,-3.7245,-3.6672,-3.6289,-3.6143,-3.5722,-3.5722,-3.6114,-3.5053,-3.4659,-3.5088,-3.5276,-3.5305,-3.5279,-3.5834,-3.6094,-3.6159,-3.6139,-3.5615,-3.4514,-3.6152,-3.6988,-3.7134,-3.7827,-3.858,-3.8804,-3.8414,-3.7975,-3.7687,-3.6738,-3.6132,-3.6052,-3.6005,-3.6005,-3.5973,-3.5831,-3.5718,-3.5776,-3.5677,-3.5639,-3.5789,-3.6159,-3.6495,-3.6541,-3.6889,-3.7115,-3.6898,-3.636,-3.5629,-3.4799,-3.4439,-3.4397,-3.4397,-3.4397,-3.4397,-3.4494,-3.4701,-3.4949,-3.5033,-3.4902,-3.4981,-3.5466,-3.4969,-3.4553,-3.4817,-3.4784,-3.4481,-3.4341,-3.4221,-3.4125,-3.3903,-3.3146,-3.2763,-3.3244,-3.329,-3.3228,-3.3212,-3.3375,-3.3315,-3.3315,-3.3281,-3.3281,-3.3224,-3.2891,-3.2741,-3.2787,-3.2787,-3.2431,-3.9763,-3.9315,-3.9352,-3.9325,-3.9299,-3.9325,-3.9176,-3.8967,-3.8781,-3.8832,-3.8897,-3.9044,-3.9572,-4.0193,-4.0515,-4.0758,-4.0891,-4.0171,-4.0028,-4.0422,-4.0538,-4.0385,-4.0044,-3.9605,-3.9326,-3.931,-3.9017,-3.8177,-3.7135,-3.6441,-3.5714,-3.4943,-3.5072,-3.5265,-3.5503,-3.555,-3.5896,-3.6368,-3.6503,-3.6654,-3.6986,-3.6911,-3.6874,-3.6907,-3.732,-3.7373,-3.7036,-3.7117,-3.7127,-3.7098,-3.8053,-3.8702,-3.8717,-3.8218,-3.769,-3.7235,-3.6492,-3.602,-3.5988,-3.5863,-3.5799,-3.5767,-3.5653,-3.5572,-3.5539,-3.5489,-3.5457,-3.5457,-3.5729,-3.606,-3.667,-3.6101,-3.5864,-3.6052,-3.5856,-3.5345,-3.4592,-3.4397,-3.4397,-3.4397,-3.4397,-3.4397,-3.4397,-3.4605,-3.4812,-3.4992,-3.4727,-3.4754,-3.5278,-3.4781,-3.4446,-3.4898,-3.4581,-3.4105,-3.3781,-3.3519,-3.3325,-3.3297,-3.2793,-3.25,-3.2895,-3.3027,-3.292,-3.304,-3.3212,-3.3281,-3.3281,-3.3281,-3.3281,-3.3281,-3.312,-3.3051,-3.3028,-3.2856,-3.2604,-3.9056,-3.8901,-3.8954,-3.9103,-3.9309,-3.9405,-3.9239,-3.9049,-3.931,-3.9343,-3.9395,-3.9978,-4.0555,-4.0858,-4.099,-4.095,-4.0809,-3.9996,-3.9846,-4.0278,-4.0168,-4.0088,-4.0036,-3.9656,-3.9233,-3.9023,-3.9076,-3.8269,-3.6729,-3.6261,-3.5391,-3.4352,-3.4716,-3.5242,-3.546,-3.6191,-3.6832,-3.7303,-3.7636,-3.7952,-3.8167,-3.8229,-3.8238,-3.8279,-3.8621,-3.8813,-3.8796,-3.8328,-3.806,-3.8076,-3.8561,-3.8629,-3.8381,-3.7732,-3.7189,-3.6753,-3.6227,-3.5797,-3.5797,-3.5701,-3.5621,-3.5621,-3.5554,-3.5311,-3.5133,-3.5052,-3.5052,-3.5052,-3.5285,-3.5851,-3.6546,-3.6042,-3.5475,-3.5667,-3.5386,-3.4991,-3.4481,-3.4397,-3.4397,-3.4397,-3.4397,-3.4397,-3.4397,-3.4605,-3.4624,-3.4738,-3.458,-3.4433,-3.4902,-3.4594,-3.4538,-3.4436,-3.4108,-3.3611,-3.3081,-3.2771,-3.2494,-3.2524,-3.2475,-3.251,-3.2741,-3.2727,-3.265,-3.304,-3.3281,-3.3281,-3.3281,-3.3281,-3.3281,-3.3281,-3.3281,-3.3235,-3.3166,-3.3189,-3.3028,-3.7566,-3.8179,-3.8351,-3.879,-3.9319,-3.9547,-3.9308,-3.8773,-3.9195,-3.9603,-3.9813,-4.0184,-4.0898,-4.1603,-4.0863,-4.0538,-4.0641,-3.9617,-3.9303,-3.9462,-3.9313,-3.9325,-3.9994,-3.9994,-3.9597,-3.9048,-3.8898,-3.7869,-3.6166,-3.6067,-3.5383,-3.4469,-3.5154,-3.5651,-3.6406,-3.697,-3.7603,-3.8068,-3.8695,-3.894,-3.8941,-3.9556,-3.9927,-3.9885,-3.9808,-3.9697,-3.9527,-3.9251,-3.9354,-3.961,-3.8853,-3.8249,-3.7719,-3.6994,-3.6646,-3.6569,-3.5923,-3.5694,-3.5597,-3.5567,-3.5522,-3.5554,-3.5504,-3.518,-3.4562,-3.4712,-3.4785,-3.4685,-3.5219,-3.5862,-3.6357,-3.602,-3.5808,-3.552,-3.495,-3.4522,-3.4397,-3.4397,-3.4439,-3.4481,-3.4439,-3.4439,-3.4522,-3.4825,-3.4764,-3.4445,-3.4487,-3.4406,-3.4339,-3.4136,-3.3834,-3.3669,-3.3518,-3.3095,-3.2591,-3.2471,-3.2227,-3.2171,-3.2195,-3.24,-3.2618,-3.2676,-3.2558,-3.2948,-3.3281,-3.3281,-3.3281,-3.3281,-3.3281,-3.3281,-3.3281,-3.3281,-3.3361,-3.3442,-3.3476,-3.7533,-3.8195,-3.8238,-3.8688,-3.9398,-3.9511,-3.9715,-3.9881,-4.0124,-4.0573,-4.1112,-4.0928,-4.0951,-4.1252,-4.0439,-3.9785,-3.9192,-3.8399,-3.8486,-3.9,-3.8509,-3.8979,-3.9893,-4.0096,-3.9623,-3.884,-3.8405,-3.7452,-3.5968,-3.6129,-3.5947,-3.5572,-3.6669,-3.7585,-3.8253,-3.8841,-3.9337,-3.9462,-3.9648,-3.9766,-3.9775,-3.9927,-4.0037,-3.9935,-3.9884,-3.9549,-3.9049,-3.8446,-3.8407,-3.8767,-3.8165,-3.7427,-3.6891,-3.6616,-3.6519,-3.6501,-3.6032,-3.5824,-3.616,-3.5839,-3.5584,-3.5621,-3.5504,-3.5118,-3.4442,-3.5329,-3.552,-3.5449,-3.6104,-3.706,-3.7461,-3.6644,-3.5712,-3.4858,-3.4592,-3.4439,-3.4439,-3.4397,-3.4522,-3.4839,-3.4921,-3.4908,-3.4908,-3.4936,-3.491,-3.4413,-3.4202,-3.4004,-3.3945,-3.3617,-3.3242,-3.32,-3.3038,-3.2553,-3.2216,-3.2094,-3.198,-3.189,-3.1979,-3.2187,-3.2538,-3.2871,-3.2741,-3.2799,-3.3178,-3.3281,-3.3281,-3.3281,-3.3281,-3.3281,-3.3281,-3.3315,-3.366,-3.3832,-3.3843,-3.6787,-3.7722,-3.7748,-3.8519,-3.9723,-3.985,-4.0033,-4.0295,-4.0657,-4.0844,-4.1024,-4.0909,-4.0712,-4.0487,-3.958,-3.8784,-3.8096,-3.7425,-3.7648,-3.8417,-3.8398,-3.8796,-3.9404,-3.9488,-3.8874,-3.7875,-3.7828,-3.722,-3.6405,-3.6588,-3.6779,-3.6985,-3.7962,-3.8665,-3.8905,-3.9723,-4.0062,-4.0003,-4.0062,-4.0087,-4.0028,-4.0011,-3.9597,-3.9241,-3.8985,-3.8539,-3.7781,-3.7144,-3.7067,-3.7406,-3.7191,-3.6831,-3.6578,-3.6513,-3.6704,-3.7026,-3.674,-3.6806,-3.6975,-3.6484,-3.6057,-3.5937,-3.5556,-3.4839,-3.4569,-3.5346,-3.5726,-3.5889,-3.7016,-3.7822,-3.7944,-3.6944,-3.5764,-3.4979,-3.4853,-3.4853,-3.4729,-3.4743,-3.4908,-3.5195,-3.5358,-3.5277,-3.5113,-3.5113,-3.4734,-3.4275,-3.406,-3.3803,-3.3514,-3.3046,-3.2621,-3.2537,-3.2393,-3.1961,-3.175,-3.1632,-3.1902,-3.1841,-3.2147,-3.2308,-3.2512,-3.296,-3.2994,-3.2971,-3.3166,-3.3281,-3.3281,-3.3281,-3.3281,-3.3281,-3.3281,-3.3476,-3.3832,-3.4211,-3.4222,-3.5827,-3.7119,-3.7178,-3.8329,-3.9931,-4.027,-4.0193,-4.0202,-4.0536,-4.0459,-4.0078,-4.0202,-3.9887,-3.9564,-3.8327,-3.7624,-3.7227,-3.6803,-3.7222,-3.7918,-3.8359,-3.8706,-3.8386,-3.8522,-3.7919,-3.7032,-3.7233,-3.7164,-3.6963,-3.7414,-3.7855,-3.8113,-3.8753,-3.9065,-3.9309,-3.9825,-3.9986,-3.9986,-4.0062,-4.0037,-3.991,-3.9747,-3.9154,-3.8197,-3.7503,-3.7118,-3.6524,-3.6034,-3.6029,-3.6507,-3.6399,-3.6501,-3.6615,-3.6703,-3.7192,-3.7807,-3.7901,-3.7855,-3.798,-3.7313,-3.6806,-3.6631,-3.557,-3.4583,-3.4864,-3.553,-3.6151,-3.6395,-3.7572,-3.7964,-3.7719,-3.6841,-3.6015,-3.5345,-3.548,-3.548,-3.5318,-3.5195,-3.5318,-3.5683,-3.5764,-3.5521,-3.5277,-3.5046,-3.4762,-3.3926,-3.3736,-3.3511,-3.314,-3.2728,-3.2197,-3.1665,-3.155,-3.1358,-3.1239,-3.1159,-3.1563,-3.1859,-3.2434,-3.2661,-3.2718,-3.3017,-3.3189,-3.3281,-3.3281,-3.3281,-3.3281,-3.3281,-3.3304,-3.3361,-3.3407,-3.3683,-3.4016,-3.444,-3.4624,-3.629,-3.7127,-3.7612,-3.8414,-3.9402,-3.9945,-4.0044,-3.9895,-3.9996,-3.9948,-3.9718,-3.922,-3.8547,-3.7835,-3.6951,-3.6159,-3.6068,-3.638,-3.706,-3.7874,-3.8421,-3.791,-3.7366,-3.7501,-3.7502,-3.7143,-3.7326,-3.7408,-3.7507,-3.8051,-3.8621,-3.887,-3.936,-3.9859,-3.9876,-3.996,-4.0096,-4.0045,-4.0087,-4.0011,-3.9764,-3.9358,-3.8649,-3.7536,-3.6464,-3.5917,-3.5852,-3.566,-3.5999,-3.6523,-3.6481,-3.6493,-3.6847,-3.6968,-3.7613,-3.8439,-3.8363,-3.8336,-3.8629,-3.8091,-3.7548,-3.7506,-3.6888,-3.6492,-3.602,-3.6916,-3.7315,-3.7382,-3.7746,-3.7848,-3.6961,-3.6531,-3.6084,-3.575,-3.5723,-3.5844,-3.5978,-3.5764,-3.5764,-3.6018,-3.5938,-3.5642,-3.5507,-3.5154,-3.4581,-3.374,-3.3318,-3.3169,-3.2822,-3.2448,-3.1825,-3.1151,-3.1154,-3.1193,-3.146,-3.1513,-3.1915,-3.219,-3.265,-3.2948,-3.3017,-3.3074,-3.3235,-3.3281,-3.3281,-3.3304,-3.3384,-3.3384,-3.3419,-3.3476,-3.3637,-3.401,-3.436,-3.4744,-3.4831,-3.6372,-3.6949,-3.7256,-3.8111,-3.921,-3.9633,-3.9684,-3.947,-3.9251,-3.8962,-3.853,-3.7858,-3.7219,-3.6641,-3.6117,-3.57,-3.5698,-3.6572,-3.7487,-3.8094,-3.8422,-3.792,-3.7011,-3.7028,-3.7145,-3.687,-3.7186,-3.7552,-3.8062,-3.8555,-3.9016,-3.9495,-3.991,-4.0028,-4.0113,-4.0113,-4.0113,-4.0096,-4.0087,-3.9918,-3.9428,-3.9032,-3.7945,-3.6584,-3.5301,-3.4683,-3.5156,-3.5594,-3.6148,-3.6778,-3.7107,-3.7367,-3.7831,-3.8016,-3.865,-3.939,-3.9451,-3.928,-3.9413,-3.8861,-3.8175,-3.7869,-3.7282,-3.6818,-3.6746,-3.7627,-3.8098,-3.7958,-3.8113,-3.804,-3.6547,-3.6322,-3.6191,-3.6165,-3.6191,-3.6363,-3.6312,-3.5978,-3.5884,-3.6138,-3.5965,-3.5426,-3.51,-3.4771,-3.4301,-3.3382,-3.2845,-3.2636,-3.2476,-3.203,-3.1401,-3.0966,-3.0974,-3.1169,-3.1652,-3.203,-3.2489,-3.2741,-3.2994,-3.3155,-3.3189,-3.3224,-3.3281,-3.3292,-3.3327,-3.3511,-3.3579,-3.3556,-3.374,-3.4073,-3.4308,-3.4502,-3.4596,-3.4687,-3.4735,-3.6733,-3.6972,-3.7064,-3.7919,-3.9036,-3.9252,-3.91,-3.8741,-3.8374,-3.7749,-3.7048,-3.6551,-3.6255,-3.5837,-3.5744,-3.5554,-3.5853,-3.6595,-3.7492,-3.8087,-3.7953,-3.7519,-3.6962,-3.6937,-3.692,-3.634,-3.7161,-3.7928,-3.8614,-3.8925,-3.9404,-3.9969,-4.0079,-4.0113,-4.0113,-4.0113,-4.0113,-4.0113,-3.9876,-3.9558,-3.8897,-3.8492,-3.7205,-3.5549,-3.4836,-3.4558,-3.5197,-3.591,-3.6704,-3.7347,-3.8157,-3.8852,-3.9293,-3.9382,-3.9661,-4.0397,-4.0267,-4.0197,-4.0032,-3.9488,-3.8765,-3.7989,-3.7366,-3.6984,-3.7322,-3.7758,-3.8068,-3.8208,-3.8212,-3.7788,-3.6549,-3.635,-3.6417,-3.6496,-3.6758,-3.6733,-3.6431,-3.5965,-3.5817,-3.6018,-3.5548,-3.484,-3.433,-3.3911,-3.3543,-3.3116,-3.2575,-3.2127,-3.1965,-3.1765,-3.1203,-3.096,-3.109,-3.1456,-3.1961,-3.242,-3.2902,-3.3028,-3.3258,-3.3269,-3.3281,-3.3281,-3.3292,-3.3338,-3.3407,-3.3625,-3.3878,-3.4027,-3.4291,-3.4716,-3.4724,-3.4638,-3.4586,-3.4564,-3.457,-3.8746,-3.8246,-3.8736,-3.8763,-3.8443,-3.8512,-3.8167,-3.7512,-3.7093,-3.6585,-3.6147,-3.5916,-3.5621,-3.5333,-3.5118,-3.5388,-3.5983,-3.6632,-3.7101,-3.7561,-3.7327,-3.6753,-3.6829,-3.7078,-3.7103,-3.7303,-3.7878,-3.8671,-3.9301,-3.9681,-3.9784,-4.0054,-4.0113,-4.0113,-4.0113,-4.0087,-4.0096,-4.0035,-3.9611,-3.9155,-3.8653,-3.7746,-3.6691,-3.5257,-3.5266,-3.5572,-3.6001,-3.7023,-3.8114,-3.899,-3.9125,-3.9573,-3.9944,-3.9763,-3.9886,-4.0286,-4.0401,-4.0347,-4.0146,-3.9839,-3.9561,-3.9344,-3.8803,-3.8659,-3.8614,-3.837,-3.8069,-3.7825,-3.7307,-3.667,-3.6431,-3.6417,-3.6575,-3.6733,-3.6654,-3.647,-3.6232,-3.5751,-3.5357,-3.5561,-3.492,-3.4191,-3.3645,-3.3134,-3.2673,-3.2339,-3.1933,-3.1625,-3.1492,-3.1451,-3.1259,-3.1182,-3.1275,-3.1803,-3.2328,-3.2776,-3.3189,-3.3166,-3.3269,-3.322,-3.3231,-3.3281,-3.3315,-3.3291,-3.3586,-3.3866,-3.413,-3.4418,-3.4635,-3.4925,-3.4831,-3.4657,-3.4468,-3.4285,-3.4273,-3.8767,-3.8272,-3.7917,-3.7673,-3.7516,-3.7404,-3.7116,-3.6681,-3.6281,-3.5959,-3.571,-3.5436,-3.5195,-3.5018,-3.4947,-3.5416,-3.615,-3.6759,-3.7301,-3.7778,-3.7561,-3.7295,-3.717,-3.7525,-3.7734,-3.8069,-3.8662,-3.9233,-3.979,-3.9918,-4.002,-4.0087,-4.0113,-4.0113,-4.0113,-4.015,-4.0146,-4.0001,-3.9659,-3.9211,-3.874,-3.7685,-3.6749,-3.6522,-3.6615,-3.699,-3.7349,-3.8068,-3.8904,-3.9441,-3.976,-4.0117,-4.0255,-4.0205,-4.0033,-4.0305,-4.0312,-4.0156,-4.0051,-3.9788,-3.9516,-3.9037,-3.8882,-3.859,-3.8267,-3.7771,-3.7501,-3.7092,-3.6677,-3.6111,-3.6351,-3.6536,-3.6693,-3.6654,-3.6498,-3.622,-3.5778,-3.5282,-3.5112,-3.4987,-3.427,-3.3615,-3.295,-3.2401,-3.1845,-3.146,-3.1273,-3.1276,-3.1222,-3.1291,-3.139,-3.1588,-3.1714,-3.2183,-3.2676,-3.2971,-3.3281,-3.3281,-3.3192,-3.3142,-3.3026,-3.301,-3.3118,-3.3186,-3.3555,-3.4005,-3.4521,-3.4854,-3.4994,-3.5077,-3.5023,-3.4822,-3.4306,-3.3993,-3.3933,-3.8521,-3.7883,-3.6845,-3.6558,-3.6681,-3.6381,-3.6207,-3.602,-3.5693,-3.5526,-3.5407,-3.5118,-3.4947,-3.4947,-3.506,-3.5445,-3.6236,-3.6748,-3.7242,-3.7678,-3.7519,-3.7602,-3.7958,-3.7915,-3.7902,-3.8488,-3.8941,-3.9647,-3.9884,-4.0011,-4.007,-4.002,-4.002,-4.0036,-4.0083,-4.0005,-4.0084,-4.014,-3.9941,-3.947,-3.8724,-3.8147,-3.7775,-3.7835,-3.8098,-3.8312,-3.8458,-3.9152,-3.9508,-3.984,-4.0151,-4.0474,-4.042,-4.0366,-4.0261,-4.0191,-4.0207,-3.998,-3.9803,-3.9646,-3.9286,-3.8599,-3.8304,-3.7876,-3.7336,-3.7044,-3.6688,-3.6229,-3.6097,-3.6005,-3.6391,-3.6654,-3.6698,-3.6572,-3.6345,-3.613,-3.5743,-3.5296,-3.4847,-3.4415,-3.3707,-3.3158,-3.2714,-3.2312,-3.1869,-3.1869,-3.1676,-3.1835,-3.1791,-3.1633,-3.174,-3.2007,-3.2273,-3.2718,-3.3035,-3.3097,-3.3281,-3.3281,-3.3053,-3.2925,-3.2741,-3.2616,-3.2811,-3.3072,-3.3522,-3.3982,-3.4645,-3.5142,-3.5182,-3.5249,-3.5266,-3.4847,-3.4136,-3.3575,-3.3356,-3.9124,-3.7478,-3.7292,-3.6895,-3.6266,-3.5847,-3.5705,-3.5616,-3.5218,-3.4977,-3.5048,-3.4954,-3.497,-3.5065,-3.5182,-3.5335,-3.5509,-3.5793,-3.6248,-3.671,-3.6302,-3.6578,-3.717,-3.6679,-3.7594,-3.8447,-3.8866,-3.9303,-3.9732,-3.9994,-4.0113,-4.0028,-3.9747,-3.9601,-4.0106,-3.9887,-3.9729,-4.007,-3.9673,-3.9009,-3.8402,-3.8165,-3.8113,-3.8269,-3.8723,-3.9146,-3.9275,-3.9849,-4.0224,-4.032,-4.0413,-4.0436,-4.0347,-4.0347,-4.0086,-3.9895,-3.9753,-3.9753,-3.9574,-3.9394,-3.8965,-3.8267,-3.8032,-3.7701,-3.6936,-3.6456,-3.6149,-3.5831,-3.6005,-3.6247,-3.6368,-3.6458,-3.6493,-3.6389,-3.6222,-3.631,-3.6108,-3.5203,-3.4774,-3.4289,-3.3637,-3.3228,-3.2803,-3.2394,-3.2043,-3.2078,-3.2137,-3.223,-3.2335,-3.2183,-3.2132,-3.2445,-3.2584,-3.2969,-3.2891,-3.3035,-3.2969,-3.3081,-3.2852,-3.2555,-3.2398,-3.2317,-3.2608,-3.2926,-3.3372,-3.4003,-3.4744,-3.5145,-3.532,-3.5168,-3.4814,-3.4334,-3.3784,-3.3285,-3.2887,-3.8196,-3.7335,-3.6683,-3.6193,-3.5815,-3.5385,-3.5195,-3.5171,-3.5001,-3.4899,-3.4923,-3.4994,-3.5088,-3.5205,-3.5268,-3.5308,-3.5375,-3.5676,-3.6038,-3.6217,-3.6,-3.6167,-3.6684,-3.6909,-3.7584,-3.8176,-3.895,-3.9376,-3.9702,-3.9947,-4.0141,-4.0077,-3.9946,-3.9956,-4.0212,-4.0051,-4.0128,-4.0198,-3.9999,-3.9613,-3.9287,-3.9238,-3.9291,-3.9306,-3.9719,-3.9895,-4.0052,-4.0255,-4.0489,-4.0489,-4.0436,-4.0366,-4.0226,-4.0086,-3.9874,-3.9717,-3.9126,-3.887,-3.8797,-3.876,-3.8248,-3.7539,-3.7039,-3.632,-3.5736,-3.5629,-3.5615,-3.5399,-3.5764,-3.6115,-3.6333,-3.6182,-3.6347,-3.6354,-3.6287,-3.5999,-3.5872,-3.5299,-3.4626,-3.4131,-3.366,-3.3279,-3.2909,-3.2484,-3.2225,-3.2298,-3.2358,-3.2394,-3.2571,-3.2723,-3.2762,-3.2932,-3.3012,-3.32,-3.2833,-3.2684,-3.2392,-3.2342,-3.2201,-3.1987,-3.1986,-3.2069,-3.2319,-3.2479,-3.2701,-3.354,-3.4636,-3.4857,-3.4759,-3.448,-3.4166,-3.3784,-3.3399,-3.3126,-3.2784,-3.6789,-3.6676,-3.5791,-3.543,-3.5391,-3.5048,-3.4923,-3.4923,-3.4947,-3.4947,-3.4994,-3.5111,-3.5268,-3.5354,-3.536,-3.5383,-3.5411,-3.5947,-3.6085,-3.6152,-3.6185,-3.6236,-3.6578,-3.7021,-3.7489,-3.799,-3.8757,-3.9363,-3.9626,-3.9752,-3.9915,-3.9982,-3.9865,-4.0114,-4.027,-4.0151,-4.0112,-4.0376,-4.0344,-4.0213,-4.01,-4.0185,-4.0255,-4.0305,-4.042,-4.0489,-4.0489,-4.0489,-4.0489,-4.0436,-4.0366,-4.0261,-4.0086,-3.991,-3.9538,-3.9235,-3.8612,-3.8023,-3.782,-3.7591,-3.7347,-3.6674,-3.5883,-3.5237,-3.4758,-3.4825,-3.5113,-3.5154,-3.575,-3.6116,-3.625,-3.6074,-3.6402,-3.6564,-3.6505,-3.595,-3.5487,-3.5148,-3.4696,-3.421,-3.3799,-3.3401,-3.2992,-3.2575,-3.2439,-3.2528,-3.2566,-3.2531,-3.273,-3.3036,-3.2952,-3.2932,-3.2833,-3.2805,-3.2437,-3.2117,-3.1863,-3.1702,-3.156,-3.1657,-3.1847,-3.1838,-3.1972,-3.2078,-3.234,-3.2819,-3.3815,-3.4024,-3.4155,-3.3998,-3.3784,-3.3399,-3.3001,-3.2794,-3.2669,-3.5084,-3.5067,-3.5011,-3.4994,-3.4977,-3.4923,-3.4899,-3.4923,-3.5041,-3.5081,-3.5152,-3.5354,-3.5446,-3.5492,-3.5503,-3.5503,-3.5469,-3.5599,-3.5626,-3.5551,-3.5541,-3.6007,-3.6444,-3.6915,-3.7436,-3.8453,-3.872,-3.9129,-3.9731,-3.9728,-3.9594,-3.9398,-3.9782,-3.9992,-4.0085,-4.0103,-4.0145,-4.0356,-4.0459,-4.0455,-4.0436,-4.047,-4.047,-4.047,-4.0489,-4.0489,-4.0489,-4.0505,-4.0401,-4.0296,-4.0226,-4.0121,-3.9874,-3.9574,-3.9162,-3.8612,-3.8023,-3.7285,-3.6688,-3.6674,-3.6517,-3.5816,-3.5114,-3.4634,-3.4439,-3.4825,-3.5072,-3.5192,-3.5802,-3.6164,-3.6307,-3.6335,-3.6535,-3.6863,-3.675,-3.627,-3.5777,-3.54,-3.4944,-3.4363,-3.3895,-3.3469,-3.3281,-3.2879,-3.2825,-3.294,-3.3012,-3.2989,-3.2946,-3.3108,-3.2818,-3.265,-3.2499,-3.2246,-3.1801,-3.1527,-3.1468,-3.1359,-3.1216,-3.1582,-3.1976,-3.1969,-3.1884,-3.2242,-3.2556,-3.2737,-3.2867,-3.3321,-3.3614,-3.3614,-3.3455,-3.3115,-3.296,-3.2898,-3.2799,-3.5148,-3.4899,-3.4899,-3.4899,-3.4899,-3.4899,-3.4947,-3.5018,-3.5065,-3.5198,-3.5337,-3.5446,-3.552,-3.5566,-3.552,-3.552,-3.5492,-3.5514,-3.5492,-3.5475,-3.5605,-3.6044,-3.6481,-3.6949,-3.7411,-3.8269,-3.8331,-3.8673,-3.9544,-3.9919,-4.0064,-4.0054,-4.0051,-4.0209,-4.0282,-4.0183,-4.0312,-4.0366,-4.0489,-4.0489,-4.0489,-4.0489,-4.0489,-4.0489,-4.0489,-4.047,-4.0401,-4.0366,-4.0277,-4.0137,-4.0016,-3.9839,-3.9538,-3.9126,-3.8612,-3.8028,-3.7352,-3.6455,-3.5924,-3.591,-3.5736,-3.506,-3.4592,-3.441,-3.4424,-3.4812,-3.5118,-3.5385,-3.5818,-3.6151,-3.6656,-3.6516,-3.652,-3.6987,-3.7007,-3.6585,-3.6081,-3.5593,-3.503,-3.4434,-3.3869,-3.3331,-3.3281,-3.3247,-3.3273,-3.3362,-3.3408,-3.3381,-3.322,-3.2958,-3.2633,-3.2269,-3.2015,-3.1659,-3.1208,-3.1107,-3.112,-3.1009,-3.0895,-3.141,-3.1913,-3.2009,-3.2037,-3.2468,-3.2669,-3.2716,-3.283,-3.2887,-3.3058,-3.3172,-3.3115,-3.2887,-3.2867,-3.2913,-3.2851,-3.5195,-3.4923,-3.4899,-3.4923,-3.4947,-3.497,-3.5058,-3.5135,-3.5222,-3.5321,-3.552,-3.552,-3.5549,-3.5594,-3.5566,-3.5498,-3.5514,-3.5537,-3.5689,-3.583,-3.6044,-3.6342,-3.6786,-3.7286,-3.7816,-3.8312,-3.8657,-3.9125,-4.0549,-4.0648,-4.0713,-4.0784,-4.0776,-4.0727,-4.0478,-4.0489,-4.0489,-4.0489,-4.0489,-4.0489,-4.0489,-4.0489,-4.0489,-4.0489,-4.047,-4.0401,-4.0312,-4.0242,-4.0086,-3.9945,-3.9768,-3.9553,-3.9126,-3.8598,-3.8,-3.7264,-3.6605,-3.5805,-3.5467,-3.5438,-3.5192,-3.4645,-3.4743,-3.4593,-3.4546,-3.4701,-3.4884,-3.5322,-3.5729,-3.6243,-3.6946,-3.6912,-3.6991,-3.7534,-3.7345,-3.6957,-3.6229,-3.5702,-3.509,-3.447,-3.404,-3.3805,-3.4003,-3.3991,-3.3469,-3.3469,-3.3381,-3.322,-3.2846,-3.2583,-3.2269,-3.1863,-3.1505,-3.1094,-3.0692,-3.08,-3.0895,-3.099,-3.0997,-3.1389,-3.1747,-3.1895,-3.2163,-3.2504,-3.2669,-3.2669,-3.2727,-3.2841,-3.2784,-3.2727,-3.2747,-3.2825,-3.2747,-3.283,-3.2851,-3.493,-3.4899,-3.4923,-3.4994,-3.5088,-3.5088,-3.5175,-3.5291,-3.5406,-3.552,-3.5594,-3.5616,-3.5616,-3.56,-3.5594,-3.5566,-3.5543,-3.5588,-3.5875,-3.6359,-3.635,-3.6738,-3.7203,-3.7724,-3.818,-3.8995,-3.9306,-4.0107,-4.2043,-4.1463,-4.137,-4.134,-4.1231,-4.0956,-4.0524,-4.0489,-4.0489,-4.0489,-4.0489,-4.0489,-4.0489,-4.0489,-4.0489,-4.047,-4.0401,-4.0347,-4.0242,-4.0066,-3.991,-3.9732,-3.9502,-3.9126,-3.8486,-3.8113,-3.7299,-3.611,-3.6266,-3.5651,-3.4697,-3.5057,-3.5015,-3.4714,-3.4907,-3.4894,-3.4541,-3.4518,-3.4847,-3.5443,-3.5922,-3.6446,-3.6972,-3.7456,-3.7691,-3.7691,-3.7455,-3.7014,-3.6295,-3.5511,-3.4848,-3.4811,-3.4702,-3.4544,-3.4787,-3.4751,-3.388,-3.3507,-3.3381,-3.3069,-3.2633,-3.2117,-3.175,-3.1454,-3.1043,-3.0692,-3.0412,-3.0578,-3.071,-3.0791,-3.1102,-3.1609,-3.1919,-3.2091,-3.2359,-3.2618,-3.2669,-3.2669,-3.2669,-3.2727,-3.2669,-3.268,-3.2809,-3.284,-3.2789,-3.2742,-3.2882,-3.5362,-3.5362,-3.547,-3.5396,-3.5245,-3.5111,-3.5222,-3.5423,-3.5503,-3.5577,-3.56,-3.5616,-3.5616,-3.5616,-3.56,-3.5577,-3.5571,-3.5611,-3.5999,-3.6635,-3.6501,-3.7289,-3.777,-3.7949,-3.8465,-3.9435,-3.9841,-4.0549,-4.2369,-4.1956,-4.1936,-4.1949,-4.1245,-4.0749,-4.0558,-4.0489,-4.0489,-4.0489,-4.0489,-4.0489,-4.0489,-4.0489,-4.0489,-4.0489,-4.0366,-4.0242,-4.0066,-3.9874,-3.964,-3.9403,-3.9149,-3.8516,-3.7877,-3.7495,-3.6387,-3.5561,-3.5586,-3.4927,-3.4727,-3.5116,-3.5547,-3.5312,-3.5195,-3.5142,-3.4528,-3.4829,-3.5247,-3.577,-3.6305,-3.6894,-3.7547,-3.7704,-3.7815,-3.7572,-3.7256,-3.673,-3.6096,-3.5223,-3.4641,-3.5138,-3.5271,-3.4824,-3.4872,-3.4593,-3.388,-3.3135,-3.2846,-3.2645,-3.2319,-3.1597,-3.1094,-3.0888,-3.064,-3.0287,-3.0181,-3.0667,-3.1029,-3.1195,-3.1536,-3.1946,-3.2194,-3.2318,-3.2452,-3.2659,-3.2669,-3.2669,-3.2669,-3.2669,-3.2669,-3.27,-3.283,-3.284,-3.2768,-3.2871,-3.3058,-3.5633,-3.5655,-3.5583,-3.5487,-3.536,-3.5268,-3.5344,-3.552,-3.5594,-3.5616,-3.5616,-3.5616,-3.5616,-3.5616,-3.56,-3.5577,-3.5571,-3.5588,-3.5977,-3.6645,-3.6697,-3.7435,-3.801,-3.8372,-3.9215,-4.0128,-4.0543,-4.1124,-4.2816,-4.2463,-4.203,-4.1534,-4.0966,-4.043,-4.0274,-4.0274,-4.0489,-4.0489,-4.0489,-4.0489,-4.0489,-4.0489,-4.0455,-4.0401,-4.0261,-4.0101,-3.9803,-3.9532,-3.923,-3.8959,-3.8446,-3.7787,-3.7236,-3.6591,-3.5697,-3.5369,-3.5315,-3.5182,-3.5848,-3.594,-3.6253,-3.6018,-3.59,-3.5587,-3.5182,-3.5404,-3.5978,-3.6507,-3.6878,-3.7395,-3.7912,-3.7998,-3.7795,-3.7551,-3.7108,-3.6628,-3.6238,-3.5451,-3.4933,-3.5427,-3.5571,-3.5174,-3.4824,-3.4152,-3.3683,-3.2924,-3.2258,-3.2128,-3.1958,-3.1354,-3.0757,-3.0684,-3.0632,-3.0546,-3.0689,-3.1071,-3.1381,-3.1578,-3.195,-3.2297,-3.2421,-3.2535,-3.2618,-3.2669,-3.2669,-3.2669,-3.2669,-3.2669,-3.2669,-3.2721,-3.2861,-3.283,-3.2747,-3.2804,-3.2922,-3.57,-3.5739,-3.5304,-3.5314,-3.5452,-3.5492,-3.552,-3.5583,-3.5583,-3.5616,-3.5616,-3.5616,-3.5616,-3.56,-3.56,-3.5571,-3.5498,-3.5492,-3.6087,-3.6646,-3.7066,-3.7811,-3.8452,-3.8984,-3.9978,-4.0918,-4.148,-4.1878,-4.33,-4.2591,-4.1765,-4.088,-4.0277,-3.9942,-3.9859,-4.0028,-4.0336,-4.0443,-4.0489,-4.0489,-4.0489,-4.0455,-4.0309,-4.0159,-3.9923,-3.9713,-3.9343,-3.8802,-3.8676,-3.8317,-3.7727,-3.7058,-3.6469,-3.6062,-3.5703,-3.5587,-3.5856,-3.641,-3.6933,-3.6815,-3.7014,-3.6862,-3.7072,-3.6708,-3.6328,-3.6179,-3.6665,-3.7052,-3.7345,-3.7822,-3.8211,-3.8063,-3.79,-3.7505,-3.7108,-3.6815,-3.6568,-3.6083,-3.5559,-3.5523,-3.5619,-3.5427,-3.5223,-3.4641,-3.3396,-3.2639,-3.1973,-3.1631,-3.1497,-3.1206,-3.0748,-3.0735,-3.0774,-3.1002,-3.1184,-3.1464,-3.165,-3.1816,-3.224,-3.2556,-3.2659,-3.2669,-3.2669,-3.2669,-3.2669,-3.2669,-3.2669,-3.2669,-3.2669,-3.2731,-3.284,-3.2809,-3.2669,-3.2373,-3.2418,-3.6032,-3.5788,-3.5827,-3.5689,-3.5537,-3.5549,-3.5594,-3.56,-3.5616,-3.5616,-3.5616,-3.5616,-3.56,-3.56,-3.5566,-3.5537,-3.5469,-3.5608,-3.637,-3.692,-3.7285,-3.8246,-3.9048,-3.9821,-4.0825,-4.1577,-4.2149,-4.2356,-4.2805,-4.2378,-4.104,-3.9905,-3.9534,-3.9323,-3.9474,-3.9705,-4.012,-4.0428,-4.0536,-4.0489,-4.047,-4.0436,-4.0132,-3.9814,-3.9284,-3.9124,-3.882,-3.7967,-3.7858,-3.8059,-3.7247,-3.6648,-3.6974,-3.6712,-3.6481,-3.6422,-3.6332,-3.6279,-3.665,-3.7179,-3.7515,-3.7736,-3.8114,-3.7727,-3.7253,-3.7056,-3.7391,-3.7581,-3.7667,-3.7964,-3.8141,-3.8044,-3.7946,-3.7657,-3.7261,-3.6909,-3.6662,-3.638,-3.5953,-3.6143,-3.6203,-3.5523,-3.5319,-3.4262,-3.3019,-3.2341,-3.1796,-3.1451,-3.1159,-3.0948,-3.0935,-3.0938,-3.1081,-3.1319,-3.1464,-3.1702,-3.1878,-3.2029,-3.2411,-3.2669,-3.2669,-3.2669,-3.2669,-3.2669,-3.2669,-3.2669,-3.2669,-3.2669,-3.2669,-3.2669,-3.2711,-3.269,-3.2612,-3.2065,-3.1652,-3.6075,-3.592,-3.5871,-3.5751,-3.5571,-3.5577,-3.5616,-3.5616,-3.5616,-3.5616,-3.5616,-3.5616,-3.5577,-3.5549,-3.5498,-3.5446,-3.5348,-3.5686,-3.6262,-3.6731,-3.7369,-3.8363,-3.9395,-4.0147,-4.085,-4.1616,-4.2018,-4.2034,-4.2163,-4.1087,-3.9718,-3.876,-3.8585,-3.8954,-3.9231,-3.9674,-4.0366,-4.0612,-4.0705,-4.0551,-4.0482,-4.0427,-3.9971,-3.9484,-3.8858,-3.8465,-3.8292,-3.7364,-3.7181,-3.7617,-3.685,-3.6632,-3.6978,-3.6974,-3.6928,-3.6893,-3.6993,-3.7072,-3.7416,-3.7771,-3.806,-3.8434,-3.8884,-3.8664,-3.8313,-3.8056,-3.8074,-3.8086,-3.8009,-3.7933,-3.7992,-3.8037,-3.7992,-3.79,-3.74,-3.6956,-3.6769,-3.6581,-3.6675,-3.6922,-3.6439,-3.5607,-3.4739,-3.3633,-3.2831,-3.2277,-3.1862,-3.1519,-3.1326,-3.1173,-3.1316,-3.1422,-3.1567,-3.1733,-3.1878,-3.2012,-3.2132,-3.2297,-3.2463,-3.2659,-3.2669,-3.2669,-3.2669,-3.2669,-3.2669,-3.2669,-3.2669,-3.2669,-3.2669,-3.2612,-3.243,-3.219,-3.1825,-3.1227,-3.081,-3.5898,-3.5989,-3.5678,-3.5566,-3.5616,-3.56,-3.5616,-3.5616,-3.5616,-3.5616,-3.5616,-3.5577,-3.5566,-3.5514,-3.5446,-3.5291,-3.5422,-3.5769,-3.6171,-3.6523,-3.7661,-3.863,-3.9201,-3.9854,-4.071,-4.1152,-4.139,-4.1469,-4.0938,-4.0035,-3.8855,-3.766,-3.8539,-3.9029,-3.9226,-3.992,-4.0705,-4.1463,-4.1243,-4.0997,-4.0854,-4.0611,-4.0243,-3.9717,-3.8792,-3.7872,-3.7638,-3.7015,-3.6252,-3.6649,-3.6824,-3.6586,-3.7038,-3.7306,-3.7243,-3.7379,-3.7701,-3.7986,-3.8282,-3.8644,-3.8845,-3.9077,-3.9336,-3.9121,-3.8822,-3.8501,-3.8421,-3.8299,-3.8167,-3.8024,-3.8037,-3.7992,-3.7946,-3.7854,-3.7551,-3.7261,-3.7155,-3.6828,-3.6581,-3.6521,-3.5595,-3.4872,-3.4531,-3.3454,-3.2523,-3.2115,-3.2212,-3.1952,-3.1793,-3.1705,-3.1733,-3.1992,-3.2043,-3.2168,-3.2277,-3.2411,-3.2504,-3.2638,-3.2659,-3.2659,-3.2669,-3.2669,-3.2669,-3.2669,-3.2669,-3.2669,-3.2669,-3.2669,-3.2555,-3.2305,-3.2008,-3.1652,-3.1043,-3.0149,-2.9307,-3.5871,-3.5639,-3.5594,-3.5577,-3.5583,-3.5616,-3.5583,-3.5616,-3.5616,-3.5583,-3.5616,-3.5566,-3.5464,-3.5368,-3.5274,-3.5118,-3.5164,-3.58,-3.6257,-3.6736,-3.7652,-3.8506,-3.9193,-3.9809,-4.0593,-4.115,-4.1215,-4.0728,-3.9936,-3.9126,-3.858,-3.8037,-3.8437,-3.8611,-3.9569,-4.0359,-4.1074,-4.2109,-4.2155,-4.1909,-4.1862,-4.1517,-4.1133,-4.0003,-3.885,-3.7892,-3.7447,-3.6726,-3.6456,-3.6614,-3.6823,-3.7279,-3.8156,-3.8182,-3.8376,-3.864,-3.8496,-3.8711,-3.9051,-3.9305,-3.938,-3.9394,-3.9438,-3.9216,-3.8993,-3.8737,-3.8557,-3.8421,-3.8298,-3.8116,-3.8024,-3.7946,-3.79,-3.7808,-3.7768,-3.7663,-3.757,-3.7105,-3.6609,-3.5764,-3.4835,-3.4284,-3.4021,-3.332,-3.235,-3.2351,-3.2939,-3.3029,-3.2876,-3.2747,-3.2468,-3.2602,-3.2509,-3.2613,-3.2669,-3.2669,-3.2669,-3.2669,-3.2669,-3.2669,-3.2669,-3.2669,-3.2669,-3.2669,-3.2669,-3.2669,-3.2669,-3.2669,-3.2487,-3.2076,-3.1469,-3.0985,-2.9552,-2.8477,-2.7512,-3.5728,-3.5515,-3.5222,-3.5115,-3.5042,-3.4754,-3.4788,-3.5059,-3.5048,-3.5228,-3.5532,-3.5481,-3.5261,-3.5019,-3.4968,-3.4596,-3.4657,-3.5729,-3.6051,-3.6521,-3.7389,-3.8202,-3.8965,-3.959,-3.9841,-4.0356,-4.0299,-3.9781,-3.8956,-3.867,-3.8332,-3.8017,-3.796,-3.8772,-4.0006,-4.0489,-4.1469,-4.2556,-4.2879,-4.2866,-4.2651,-4.1874,-4.1075,-3.9938,-3.866,-3.7739,-3.7303,-3.6683,-3.6532,-3.6761,-3.7151,-3.7526,-3.8147,-3.8368,-3.8652,-3.8832,-3.8948,-3.9141,-3.9482,-3.9659,-3.9689,-3.9615,-3.9261,-3.8917,-3.8737,-3.8466,-3.8253,-3.8116,-3.807,-3.7946,-3.7946,-3.79,-3.79,-3.7854,-3.8147,-3.8309,-3.8101,-3.7744,-3.7285,-3.6725,-3.5567,-3.4169,-3.3765,-3.3057,-3.2394,-3.2735,-3.3307,-3.3586,-3.3574,-3.3689,-3.3441,-3.3234,-3.3151,-3.2861,-3.2669,-3.2669,-3.2669,-3.2669,-3.2669,-3.2669,-3.2669,-3.2669,-3.2669,-3.2669,-3.2669,-3.2669,-3.2669,-3.2612,-3.219,-3.171,-3.0985,-3.0266,-2.8536,-2.6866,-2.6017,-3.5481,-3.5363,-3.4776,-3.4438,-3.4269,-3.3711,-3.3774,-3.4259,-3.4223,-3.451,-3.4936,-3.4935,-3.4536,-3.4405,-3.4565,-3.3891,-3.4047,-3.5461,-3.5878,-3.6369,-3.7331,-3.8049,-3.8571,-3.8995,-3.9235,-3.9275,-3.9188,-3.8916,-3.8399,-3.8279,-3.8139,-3.7783,-3.8455,-3.9432,-3.989,-4.0867,-4.2247,-4.2959,-4.3286,-4.3243,-4.2506,-4.1524,-4.0783,-3.9556,-3.8211,-3.7134,-3.6967,-3.6927,-3.6663,-3.6964,-3.7494,-3.7886,-3.8122,-3.8466,-3.8769,-3.8993,-3.9305,-3.9557,-3.9777,-3.9703,-3.9659,-3.9482,-3.8904,-3.8602,-3.8466,-3.8266,-3.8005,-3.8004,-3.8004,-3.8018,-3.8018,-3.807,-3.807,-3.8193,-3.8624,-3.8769,-3.8466,-3.8049,-3.7494,-3.7045,-3.5663,-3.4118,-3.3489,-3.2793,-3.2872,-3.3251,-3.3539,-3.3747,-3.3906,-3.4196,-3.4238,-3.4,-3.3834,-3.3472,-3.2975,-3.27,-3.2711,-3.2669,-3.2669,-3.2669,-3.2669,-3.2669,-3.2669,-3.2669,-3.2669,-3.268,-3.2498,-3.2373,-3.1893,-3.1073,-2.9982,-2.8842,-2.7039,-2.5546,-2.4748,-3.5245,-3.4692,-3.4523,-3.4167,-3.3626,-3.3402,-3.3482,-3.3515,-3.3544,-3.3487,-3.3551,-3.3129,-3.2922,-3.3456,-3.4023,-3.3806,-3.3646,-3.5161,-3.59,-3.6282,-3.7162,-3.7853,-3.8325,-3.8636,-3.8787,-3.8785,-3.8601,-3.8135,-3.8138,-3.8172,-3.8284,-3.8387,-3.9444,-4.0481,-4.1486,-4.2358,-4.3063,-4.3441,-4.3304,-4.3159,-4.2708,-4.177,-4.083,-3.9802,-3.8808,-3.7638,-3.7047,-3.7264,-3.7181,-3.7299,-3.7566,-3.7991,-3.833,-3.8602,-3.8948,-3.9394,-3.9689,-3.9777,-3.9878,-3.9703,-3.9615,-3.9038,-3.8557,-3.8389,-3.8279,-3.8162,-3.8063,-3.8257,-3.8283,-3.8329,-3.8415,-3.8632,-3.871,-3.896,-3.9316,-3.8846,-3.8423,-3.7367,-3.6393,-3.559,-3.4519,-3.3693,-3.3341,-3.3064,-3.3262,-3.3674,-3.4132,-3.43,-3.4496,-3.4745,-3.4941,-3.4714,-3.4455,-3.4028,-3.342,-3.2944,-3.283,-3.2721,-3.269,-3.2731,-3.2731,-3.268,-3.268,-3.2851,-3.2752,-3.2664,-3.2471,-3.2018,-3.082,-2.9872,-2.8692,-2.7357,-2.5647,-2.4603,-2.4113]}]]